<?xml version="1.0" encoding="UTF-8" standalone="no" ?>
<gpx xmlns="http://www.topografix.com/GPX/1/1" xmlns:xsi="http://www.w3.org/2001/XMLSchema-instance" xsi:schemaLocation="http://www.topografix.com/GPX/1/1 http://www.topografix.com/GPX/1/1/gpx.xsd" version="1.1" creator="VisuGPX - https://www.visugpx.com">
  <metadata>
    <name>Tour de Mafate étape 3 Roche plate à aurerre </name>
  </metadata>
  <trk>
    <name><![CDATA[Tour de Mafate étape 3 Roche plate à aurerre _1]]></name>
    <trkseg>
      <trkpt lat="-21.06833" lon="55.40393">
        <ele>1822.2</ele>
        <time>2022-10-11T15:04:20.000Z</time>
      </trkpt>
      <trkpt lat="-21.06835" lon="55.40394">
        <ele>1821.7</ele>
        <time>2022-10-11T15:04:20.124Z</time>
      </trkpt>
      <trkpt lat="-21.06837" lon="55.40389">
        <ele>1824.9</ele>
        <time>2022-10-11T15:04:21.164Z</time>
      </trkpt>
      <trkpt lat="-21.06841" lon="55.40381">
        <ele>1830</ele>
        <time>2022-10-11T15:04:22.899Z</time>
      </trkpt>
      <trkpt lat="-21.06845" lon="55.40375">
        <ele>1834</ele>
        <time>2022-10-11T15:04:24.309Z</time>
      </trkpt>
      <trkpt lat="-21.06849" lon="55.40369">
        <ele>1837.9</ele>
        <time>2022-10-11T15:04:25.719Z</time>
      </trkpt>
      <trkpt lat="-21.0686" lon="55.4036">
        <ele>1844.4</ele>
        <time>2022-10-11T15:04:28.555Z</time>
      </trkpt>
      <trkpt lat="-21.0686" lon="55.40359">
        <ele>1845</ele>
        <time>2022-10-11T15:04:28.746Z</time>
        <extensions>
          <visugpx:TrkExtension xmlns:visugpx="https://www.visugpx.com/editgpx/">
            <visugpx:node>1</visugpx:node>
            </visugpx:TrkExtension>
        </extensions>
      </trkpt>
      <trkpt lat="-21.0686" lon="55.40357">
        <ele>1846.2</ele>
        <time>2022-10-11T15:04:29.129Z</time>
      </trkpt>
      <trkpt lat="-21.0686" lon="55.40352">
        <ele>1849.2</ele>
        <time>2022-10-11T15:04:30.085Z</time>
      </trkpt>
      <trkpt lat="-21.06861" lon="55.40349">
        <ele>1851.1</ele>
        <time>2022-10-11T15:04:30.694Z</time>
      </trkpt>
      <trkpt lat="-21.06861" lon="55.40345">
        <ele>1853.6</ele>
        <time>2022-10-11T15:04:31.459Z</time>
      </trkpt>
      <trkpt lat="-21.06861" lon="55.40342">
        <ele>1855.4</ele>
        <time>2022-10-11T15:04:32.033Z</time>
      </trkpt>
      <trkpt lat="-21.06861" lon="55.40337">
        <ele>1858.4</ele>
        <time>2022-10-11T15:04:32.989Z</time>
      </trkpt>
      <trkpt lat="-21.06863" lon="55.40333">
        <ele>1861</ele>
        <time>2022-10-11T15:04:33.856Z</time>
      </trkpt>
      <trkpt lat="-21.06866" lon="55.40331">
        <ele>1862.5</ele>
        <time>2022-10-11T15:04:34.580Z</time>
      </trkpt>
      <trkpt lat="-21.06869" lon="55.40329">
        <ele>1864</ele>
        <time>2022-10-11T15:04:35.304Z</time>
      </trkpt>
      <trkpt lat="-21.06874" lon="55.40328">
        <ele>1865.1</ele>
        <time>2022-10-11T15:04:36.347Z</time>
      </trkpt>
      <trkpt lat="-21.06878" lon="55.40329">
        <ele>1864.9</ele>
        <time>2022-10-11T15:04:36.555Z</time>
      </trkpt>
      <trkpt lat="-21.06883" lon="55.40328">
        <ele>1866</ele>
        <time>2022-10-11T15:04:37.597Z</time>
      </trkpt>
      <trkpt lat="-21.06887" lon="55.40326">
        <ele>1867.6</ele>
        <time>2022-10-11T15:04:38.502Z</time>
      </trkpt>
      <trkpt lat="-21.0689" lon="55.40323">
        <ele>1869.7</ele>
        <time>2022-10-11T15:04:39.342Z</time>
      </trkpt>
      <trkpt lat="-21.06894" lon="55.4032">
        <ele>1872</ele>
        <time>2022-10-11T15:04:40.343Z</time>
      </trkpt>
      <trkpt lat="-21.06894" lon="55.40319">
        <ele>1872.6</ele>
        <time>2022-10-11T15:04:40.534Z</time>
        <extensions>
          <visugpx:TrkExtension xmlns:visugpx="https://www.visugpx.com/editgpx/">
            <visugpx:node>2</visugpx:node>
            </visugpx:TrkExtension>
        </extensions>
      </trkpt>
      <trkpt lat="-21.06897" lon="55.40316">
        <ele>1874.7</ele>
        <time>2022-10-11T15:04:41.375Z</time>
      </trkpt>
      <trkpt lat="-21.069" lon="55.40312">
        <ele>1877.5</ele>
        <time>2022-10-11T15:04:42.356Z</time>
      </trkpt>
      <trkpt lat="-21.06903" lon="55.40306">
        <ele>1881.5</ele>
        <time>2022-10-11T15:04:43.658Z</time>
      </trkpt>
      <trkpt lat="-21.06903" lon="55.40302">
        <ele>1884</ele>
        <time>2022-10-11T15:04:44.423Z</time>
      </trkpt>
      <trkpt lat="-21.06902" lon="55.40297">
        <ele>1887</ele>
        <time>2022-10-11T15:04:45.400Z</time>
      </trkpt>
      <trkpt lat="-21.06902" lon="55.40294">
        <ele>1888.8</ele>
        <time>2022-10-11T15:04:45.974Z</time>
      </trkpt>
      <trkpt lat="-21.06904" lon="55.4029">
        <ele>1891.5</ele>
        <time>2022-10-11T15:04:46.842Z</time>
      </trkpt>
      <trkpt lat="-21.06908" lon="55.40286">
        <ele>1894.5</ele>
        <time>2022-10-11T15:04:47.963Z</time>
      </trkpt>
      <trkpt lat="-21.06911" lon="55.40282">
        <ele>1897.3</ele>
        <time>2022-10-11T15:04:48.944Z</time>
      </trkpt>
      <trkpt lat="-21.06915" lon="55.40277">
        <ele>1900.9</ele>
        <time>2022-10-11T15:04:50.203Z</time>
      </trkpt>
      <trkpt lat="-21.06919" lon="55.40271">
        <ele>1905</ele>
        <time>2022-10-11T15:04:51.613Z</time>
      </trkpt>
      <trkpt lat="-21.06923" lon="55.40267">
        <ele>1907.6</ele>
        <time>2022-10-11T15:04:52.734Z</time>
      </trkpt>
      <trkpt lat="-21.06925" lon="55.40264">
        <ele>1909.6</ele>
        <time>2022-10-11T15:04:53.439Z</time>
      </trkpt>
      <trkpt lat="-21.06928" lon="55.40259">
        <ele>1912.9</ele>
        <time>2022-10-11T15:04:54.576Z</time>
      </trkpt>
      <trkpt lat="-21.06936" lon="55.40256">
        <ele>1915.1</ele>
        <time>2022-10-11T15:04:56.313Z</time>
      </trkpt>
      <trkpt lat="-21.06938" lon="55.40254">
        <ele>1916.5</ele>
        <time>2022-10-11T15:04:56.873Z</time>
      </trkpt>
      <trkpt lat="-21.06942" lon="55.40252">
        <ele>1917.9</ele>
        <time>2022-10-11T15:04:57.778Z</time>
      </trkpt>
      <trkpt lat="-21.06944" lon="55.40249">
        <ele>1919.9</ele>
        <time>2022-10-11T15:04:58.483Z</time>
      </trkpt>
      <trkpt lat="-21.06947" lon="55.40245">
        <ele>1922.5</ele>
        <time>2022-10-11T15:04:59.464Z</time>
      </trkpt>
      <trkpt lat="-21.06948" lon="55.40242">
        <ele>1924.4</ele>
        <time>2022-10-11T15:05:00.073Z</time>
      </trkpt>
      <trkpt lat="-21.06948" lon="55.40239">
        <ele>1926.3</ele>
        <time>2022-10-11T15:05:00.647Z</time>
      </trkpt>
      <trkpt lat="-21.06955" lon="55.40233">
        <ele>1930.4</ele>
        <time>2022-10-11T15:05:02.483Z</time>
      </trkpt>
      <trkpt lat="-21.0696" lon="55.4023">
        <ele>1932.6</ele>
        <time>2022-10-11T15:05:03.658Z</time>
      </trkpt>
      <trkpt lat="-21.06965" lon="55.40226">
        <ele>1935.4</ele>
        <time>2022-10-11T15:05:04.936Z</time>
      </trkpt>
      <trkpt lat="-21.06971" lon="55.40221">
        <ele>1939</ele>
        <time>2022-10-11T15:05:06.494Z</time>
      </trkpt>
      <trkpt lat="-21.06977" lon="55.40216">
        <ele>1942.7</ele>
        <time>2022-10-11T15:05:08.051Z</time>
      </trkpt>
      <trkpt lat="-21.0698" lon="55.40211">
        <ele>1946.1</ele>
        <time>2022-10-11T15:05:09.188Z</time>
      </trkpt>
      <trkpt lat="-21.06982" lon="55.40209">
        <ele>1947.6</ele>
        <time>2022-10-11T15:05:09.748Z</time>
      </trkpt>
      <trkpt lat="-21.06983" lon="55.40207">
        <ele>1948.9</ele>
        <time>2022-10-11T15:05:10.182Z</time>
      </trkpt>
      <trkpt lat="-21.06984" lon="55.40202">
        <ele>1952.2</ele>
        <time>2022-10-11T15:05:11.160Z</time>
      </trkpt>
      <trkpt lat="-21.06985" lon="55.40195">
        <ele>1956.9</ele>
        <time>2022-10-11T15:05:12.514Z</time>
      </trkpt>
      <trkpt lat="-21.06985" lon="55.40189">
        <ele>1960.7</ele>
        <time>2022-10-11T15:05:13.661Z</time>
      </trkpt>
      <trkpt lat="-21.06987" lon="55.40183">
        <ele>1964.8</ele>
        <time>2022-10-11T15:05:14.879Z</time>
      </trkpt>
      <trkpt lat="-21.06989" lon="55.40177">
        <ele>1969</ele>
        <time>2022-10-11T15:05:16.098Z</time>
      </trkpt>
      <trkpt lat="-21.06992" lon="55.40172">
        <ele>1972.6</ele>
        <time>2022-10-11T15:05:17.234Z</time>
      </trkpt>
      <trkpt lat="-21.06995" lon="55.40168">
        <ele>1975.5</ele>
        <time>2022-10-11T15:05:18.216Z</time>
      </trkpt>
      <trkpt lat="-21.06998" lon="55.40165">
        <ele>1977.7</ele>
        <time>2022-10-11T15:05:19.056Z</time>
      </trkpt>
      <trkpt lat="-21.06999" lon="55.40164">
        <ele>1978.4</ele>
        <time>2022-10-11T15:05:19.337Z</time>
      </trkpt>
      <trkpt lat="-21.07" lon="55.4016">
        <ele>1980.8</ele>
        <time>2022-10-11T15:05:20.128Z</time>
      </trkpt>
      <trkpt lat="-21.06999" lon="55.40156">
        <ele>1982.9</ele>
        <time>2022-10-11T15:05:20.920Z</time>
        <extensions>
          <visugpx:TrkExtension xmlns:visugpx="https://www.visugpx.com/editgpx/">
            <visugpx:node>3</visugpx:node>
            </visugpx:TrkExtension>
        </extensions>
      </trkpt>
      <trkpt lat="-21.06998" lon="55.40155">
        <ele>1983.3</ele>
        <time>2022-10-11T15:05:21.201Z</time>
      </trkpt>
      <trkpt lat="-21.06997" lon="55.4015">
        <ele>1986</ele>
        <time>2022-10-11T15:05:22.178Z</time>
      </trkpt>
      <trkpt lat="-21.06999" lon="55.40145">
        <ele>1989.1</ele>
        <time>2022-10-11T15:05:23.218Z</time>
      </trkpt>
      <trkpt lat="-21.07001" lon="55.40141">
        <ele>1991.4</ele>
        <time>2022-10-11T15:05:24.086Z</time>
      </trkpt>
      <trkpt lat="-21.07004" lon="55.40139">
        <ele>1992.5</ele>
        <time>2022-10-11T15:05:24.810Z</time>
      </trkpt>
      <trkpt lat="-21.07006" lon="55.40136">
        <ele>1994.1</ele>
        <time>2022-10-11T15:05:25.515Z</time>
      </trkpt>
      <trkpt lat="-21.07005" lon="55.40131">
        <ele>1997</ele>
        <time>2022-10-11T15:05:26.493Z</time>
      </trkpt>
      <trkpt lat="-21.07006" lon="55.40124">
        <ele>2000.9</ele>
        <time>2022-10-11T15:05:27.847Z</time>
      </trkpt>
      <trkpt lat="-21.07008" lon="55.4012">
        <ele>2003.1</ele>
        <time>2022-10-11T15:05:28.715Z</time>
      </trkpt>
      <trkpt lat="-21.07012" lon="55.40116">
        <ele>2005.3</ele>
        <time>2022-10-11T15:05:29.836Z</time>
      </trkpt>
      <trkpt lat="-21.07016" lon="55.40112">
        <ele>2007.5</ele>
        <time>2022-10-11T15:05:30.957Z</time>
      </trkpt>
      <trkpt lat="-21.07018" lon="55.4011">
        <ele>2008.6</ele>
        <time>2022-10-11T15:05:31.517Z</time>
      </trkpt>
      <trkpt lat="-21.07019" lon="55.40107">
        <ele>2010.3</ele>
        <time>2022-10-11T15:05:32.126Z</time>
      </trkpt>
      <trkpt lat="-21.07017" lon="55.40102">
        <ele>2013.2</ele>
        <time>2022-10-11T15:05:33.167Z</time>
      </trkpt>
      <trkpt lat="-21.07015" lon="55.40099">
        <ele>2014.9</ele>
        <time>2022-10-11T15:05:33.872Z</time>
      </trkpt>
      <trkpt lat="-21.07015" lon="55.40093">
        <ele>2018.3</ele>
        <time>2022-10-11T15:05:35.019Z</time>
      </trkpt>
      <trkpt lat="-21.07011" lon="55.4009">
        <ele>2020.1</ele>
        <time>2022-10-11T15:05:36.019Z</time>
      </trkpt>
      <trkpt lat="-21.07009" lon="55.40086">
        <ele>2022.4</ele>
        <time>2022-10-11T15:05:36.887Z</time>
      </trkpt>
      <trkpt lat="-21.07004" lon="55.40083">
        <ele>2024.1</ele>
        <time>2022-10-11T15:05:38.061Z</time>
      </trkpt>
      <trkpt lat="-21.06997" lon="55.40078">
        <ele>2025.5</ele>
        <time>2022-10-11T15:05:39.785Z</time>
      </trkpt>
      <trkpt lat="-21.06998" lon="55.40072">
        <ele>2028.1</ele>
        <time>2022-10-11T15:05:40.950Z</time>
      </trkpt>
      <trkpt lat="-21.06992" lon="55.40071">
        <ele>2027.2</ele>
        <time>2022-10-11T15:05:41.241Z</time>
      </trkpt>
      <trkpt lat="-21.06994" lon="55.40068">
        <ele>2028.8</ele>
        <time>2022-10-11T15:05:41.946Z</time>
      </trkpt>
      <trkpt lat="-21.07002" lon="55.40063">
        <ele>2032</ele>
        <time>2022-10-11T15:05:43.844Z</time>
        <extensions>
          <visugpx:TrkExtension xmlns:visugpx="https://www.visugpx.com/editgpx/">
            <visugpx:node>4</visugpx:node>
            </visugpx:TrkExtension>
        </extensions>
      </trkpt>
      <trkpt lat="-21.07003" lon="55.40062">
        <ele>2032.4</ele>
        <time>2022-10-11T15:05:44.124Z</time>
      </trkpt>
      <trkpt lat="-21.07006" lon="55.40057">
        <ele>2034.4</ele>
        <time>2022-10-11T15:05:45.259Z</time>
      </trkpt>
      <trkpt lat="-21.07008" lon="55.40051">
        <ele>2036.7</ele>
        <time>2022-10-11T15:05:46.475Z</time>
      </trkpt>
      <trkpt lat="-21.0701" lon="55.40046">
        <ele>2038.7</ele>
        <time>2022-10-11T15:05:47.513Z</time>
      </trkpt>
      <trkpt lat="-21.07011" lon="55.40041">
        <ele>2040.7</ele>
        <time>2022-10-11T15:05:48.488Z</time>
      </trkpt>
      <trkpt lat="-21.07007" lon="55.40035">
        <ele>2043.1</ele>
        <time>2022-10-11T15:05:49.893Z</time>
      </trkpt>
      <trkpt lat="-21.07007" lon="55.40033">
        <ele>2043.9</ele>
        <time>2022-10-11T15:05:50.274Z</time>
      </trkpt>
      <trkpt lat="-21.07009" lon="55.40032">
        <ele>2044.3</ele>
        <time>2022-10-11T15:05:50.724Z</time>
      </trkpt>
      <trkpt lat="-21.0701" lon="55.40032">
        <ele>2044.3</ele>
        <time>2022-10-11T15:05:50.927Z</time>
      </trkpt>
      <trkpt lat="-21.07015" lon="55.40032">
        <ele>2044.3</ele>
        <time>2022-10-11T15:05:51.942Z</time>
      </trkpt>
      <trkpt lat="-21.0702" lon="55.40035">
        <ele>2043</ele>
        <time>2022-10-11T15:05:53.105Z</time>
      </trkpt>
      <trkpt lat="-21.07023" lon="55.40036">
        <ele>2042.6</ele>
        <time>2022-10-11T15:05:53.742Z</time>
      </trkpt>
      <trkpt lat="-21.07018" lon="55.4003">
        <ele>2045</ele>
        <time>2022-10-11T15:05:55.263Z</time>
      </trkpt>
      <trkpt lat="-21.07016" lon="55.40027">
        <ele>2046.2</ele>
        <time>2022-10-11T15:05:55.960Z</time>
      </trkpt>
      <trkpt lat="-21.07013" lon="55.40023">
        <ele>2047.8</ele>
        <time>2022-10-11T15:05:56.930Z</time>
      </trkpt>
      <trkpt lat="-21.07011" lon="55.40023">
        <ele>2047.9</ele>
        <time>2022-10-11T15:05:57.335Z</time>
      </trkpt>
      <trkpt lat="-21.07007" lon="55.40023">
        <ele>2047.9</ele>
        <time>2022-10-11T15:05:58.145Z</time>
      </trkpt>
      <trkpt lat="-21.07002" lon="55.40026">
        <ele>2046.7</ele>
        <time>2022-10-11T15:05:59.305Z</time>
      </trkpt>
      <trkpt lat="-21.06995" lon="55.40031">
        <ele>2043.5</ele>
        <time>2022-10-11T15:06:01.007Z</time>
      </trkpt>
      <trkpt lat="-21.06989" lon="55.40036">
        <ele>2040.1</ele>
        <time>2022-10-11T15:06:02.544Z</time>
      </trkpt>
      <trkpt lat="-21.06981" lon="55.40039">
        <ele>2037.1</ele>
        <time>2022-10-11T15:06:04.257Z</time>
        <extensions>
          <visugpx:TrkExtension xmlns:visugpx="https://www.visugpx.com/editgpx/">
            <visugpx:node>5</visugpx:node>
            </visugpx:TrkExtension>
        </extensions>
      </trkpt>
      <trkpt lat="-21.06976" lon="55.4004">
        <ele>2035.5</ele>
      </trkpt>
      <trkpt lat="-21.06971" lon="55.40039">
        <ele>2034.7</ele>
      </trkpt>
      <trkpt lat="-21.06966" lon="55.40037">
        <ele>2034.2</ele>
      </trkpt>
      <trkpt lat="-21.0696" lon="55.40032">
        <ele>2034.6</ele>
      </trkpt>
      <trkpt lat="-21.06957" lon="55.40029">
        <ele>2034.9</ele>
      </trkpt>
      <trkpt lat="-21.06953" lon="55.40021">
        <ele>2036.7</ele>
      </trkpt>
      <trkpt lat="-21.06951" lon="55.40011">
        <ele>2039.7</ele>
      </trkpt>
      <trkpt lat="-21.0695" lon="55.40006">
        <ele>2041.1</ele>
        <extensions>
          <visugpx:TrkExtension xmlns:visugpx="https://www.visugpx.com/editgpx/">
            <visugpx:node>6</visugpx:node>
            </visugpx:TrkExtension>
        </extensions>
      </trkpt>
      <trkpt lat="-21.06949" lon="55.40006">
        <ele>2040.9</ele>
      </trkpt>
      <trkpt lat="-21.06949" lon="55.39999">
        <ele>2043</ele>
      </trkpt>
      <trkpt lat="-21.06938" lon="55.39993">
        <ele>2040.3</ele>
      </trkpt>
      <trkpt lat="-21.06929" lon="55.39989">
        <ele>2038.1</ele>
      </trkpt>
      <trkpt lat="-21.06919" lon="55.39986">
        <ele>2035.5</ele>
      </trkpt>
      <trkpt lat="-21.06908" lon="55.39976">
        <ele>2032.2</ele>
      </trkpt>
      <trkpt lat="-21.06901" lon="55.39972">
        <ele>2029.8</ele>
      </trkpt>
      <trkpt lat="-21.06897" lon="55.39971">
        <ele>2028.3</ele>
        <extensions>
          <visugpx:TrkExtension xmlns:visugpx="https://www.visugpx.com/editgpx/">
            <visugpx:node>7</visugpx:node>
            </visugpx:TrkExtension>
        </extensions>
      </trkpt>
      <trkpt lat="-21.06896" lon="55.3997">
        <ele>2028</ele>
      </trkpt>
      <trkpt lat="-21.0689" lon="55.39963">
        <ele>2026.2</ele>
      </trkpt>
      <trkpt lat="-21.0689" lon="55.39955">
        <ele>2026.6</ele>
      </trkpt>
      <trkpt lat="-21.06891" lon="55.39949">
        <ele>2027.3</ele>
      </trkpt>
      <trkpt lat="-21.06891" lon="55.39947">
        <ele>2027.4</ele>
      </trkpt>
      <trkpt lat="-21.0689" lon="55.3994">
        <ele>2027.4</ele>
      </trkpt>
      <trkpt lat="-21.06891" lon="55.39932">
        <ele>2028.3</ele>
      </trkpt>
      <trkpt lat="-21.06887" lon="55.39924">
        <ele>2027.2</ele>
      </trkpt>
      <trkpt lat="-21.06888" lon="55.39919">
        <ele>2027.9</ele>
      </trkpt>
      <trkpt lat="-21.06888" lon="55.3991">
        <ele>2027.3</ele>
      </trkpt>
      <trkpt lat="-21.06889" lon="55.39904">
        <ele>2027</ele>
      </trkpt>
      <trkpt lat="-21.06885" lon="55.39899">
        <ele>2024.9</ele>
      </trkpt>
      <trkpt lat="-21.06883" lon="55.39899">
        <ele>2024.2</ele>
      </trkpt>
      <trkpt lat="-21.06882" lon="55.39899">
        <ele>2023.8</ele>
        <extensions>
          <visugpx:TrkExtension xmlns:visugpx="https://www.visugpx.com/editgpx/">
            <visugpx:node>8</visugpx:node>
            </visugpx:TrkExtension>
        </extensions>
      </trkpt>
      <trkpt lat="-21.06881" lon="55.39899">
        <ele>2023.4</ele>
      </trkpt>
      <trkpt lat="-21.06878" lon="55.399">
        <ele>2022.4</ele>
      </trkpt>
      <trkpt lat="-21.0687" lon="55.39901">
        <ele>2019.4</ele>
      </trkpt>
      <trkpt lat="-21.06868" lon="55.39905">
        <ele>2019.1</ele>
      </trkpt>
      <trkpt lat="-21.06865" lon="55.39908">
        <ele>2018.2</ele>
      </trkpt>
      <trkpt lat="-21.06862" lon="55.39908">
        <ele>2017.1</ele>
      </trkpt>
      <trkpt lat="-21.06858" lon="55.39904">
        <ele>2015.1</ele>
      </trkpt>
      <trkpt lat="-21.06857" lon="55.39905">
        <ele>2014.8</ele>
      </trkpt>
      <trkpt lat="-21.06854" lon="55.39905">
        <ele>2013.7</ele>
      </trkpt>
      <trkpt lat="-21.06852" lon="55.399">
        <ele>2012.4</ele>
      </trkpt>
      <trkpt lat="-21.06851" lon="55.39898">
        <ele>2011.8</ele>
      </trkpt>
      <trkpt lat="-21.06848" lon="55.39897">
        <ele>2010.5</ele>
      </trkpt>
      <trkpt lat="-21.06842" lon="55.39898">
        <ele>2008.3</ele>
      </trkpt>
      <trkpt lat="-21.06837" lon="55.39899">
        <ele>2006.5</ele>
      </trkpt>
      <trkpt lat="-21.06834" lon="55.39899">
        <ele>2005.3</ele>
      </trkpt>
      <trkpt lat="-21.06828" lon="55.399">
        <ele>2002.9</ele>
      </trkpt>
      <trkpt lat="-21.06825" lon="55.39903">
        <ele>2001.9</ele>
      </trkpt>
      <trkpt lat="-21.06822" lon="55.39904">
        <ele>2000.8</ele>
      </trkpt>
      <trkpt lat="-21.06817" lon="55.39903">
        <ele>1998.5</ele>
      </trkpt>
      <trkpt lat="-21.06811" lon="55.39906">
        <ele>1996.2</ele>
      </trkpt>
      <trkpt lat="-21.06805" lon="55.39908">
        <ele>1993.9</ele>
        <extensions>
          <visugpx:TrkExtension xmlns:visugpx="https://www.visugpx.com/editgpx/">
            <visugpx:node>9</visugpx:node>
            </visugpx:TrkExtension>
        </extensions>
      </trkpt>
      <trkpt lat="-21.06801" lon="55.39907">
        <ele>1992</ele>
      </trkpt>
      <trkpt lat="-21.06796" lon="55.39905">
        <ele>1989.7</ele>
      </trkpt>
      <trkpt lat="-21.06794" lon="55.39905">
        <ele>1988.8</ele>
      </trkpt>
      <trkpt lat="-21.06788" lon="55.39897">
        <ele>1985.4</ele>
      </trkpt>
      <trkpt lat="-21.06787" lon="55.39896">
        <ele>1984.9</ele>
      </trkpt>
      <trkpt lat="-21.06779" lon="55.39884">
        <ele>1980.3</ele>
      </trkpt>
      <trkpt lat="-21.06776" lon="55.39879">
        <ele>1978.5</ele>
      </trkpt>
      <trkpt lat="-21.06771" lon="55.39875">
        <ele>1975.9</ele>
      </trkpt>
      <trkpt lat="-21.06763" lon="55.39869">
        <ele>1972</ele>
      </trkpt>
      <trkpt lat="-21.06757" lon="55.39864">
        <ele>1968.9</ele>
      </trkpt>
      <trkpt lat="-21.06755" lon="55.3986">
        <ele>1967.7</ele>
      </trkpt>
      <trkpt lat="-21.0675" lon="55.39857">
        <ele>1965.3</ele>
      </trkpt>
      <trkpt lat="-21.06745" lon="55.39857">
        <ele>1963.1</ele>
      </trkpt>
      <trkpt lat="-21.0674" lon="55.39857">
        <ele>1960.9</ele>
      </trkpt>
      <trkpt lat="-21.06735" lon="55.39857">
        <ele>1958.7</ele>
      </trkpt>
      <trkpt lat="-21.06732" lon="55.39852">
        <ele>1956.8</ele>
      </trkpt>
      <trkpt lat="-21.06727" lon="55.39844">
        <ele>1953.8</ele>
      </trkpt>
      <trkpt lat="-21.0672" lon="55.39834">
        <ele>1949.7</ele>
      </trkpt>
      <trkpt lat="-21.06713" lon="55.39826">
        <ele>1945.2</ele>
      </trkpt>
      <trkpt lat="-21.06711" lon="55.39824">
        <ele>1944</ele>
      </trkpt>
      <trkpt lat="-21.06705" lon="55.39809">
        <ele>1938.7</ele>
      </trkpt>
      <trkpt lat="-21.06701" lon="55.39805">
        <ele>1936.2</ele>
      </trkpt>
      <trkpt lat="-21.06691" lon="55.39801">
        <ele>1931.1</ele>
      </trkpt>
      <trkpt lat="-21.06674" lon="55.39794">
        <ele>1922.6</ele>
      </trkpt>
      <trkpt lat="-21.06668" lon="55.39782">
        <ele>1917.9</ele>
      </trkpt>
      <trkpt lat="-21.06663" lon="55.39771">
        <ele>1913.9</ele>
      </trkpt>
      <trkpt lat="-21.06655" lon="55.39763">
        <ele>1909</ele>
      </trkpt>
      <trkpt lat="-21.0665" lon="55.39753">
        <ele>1905.1</ele>
        <extensions>
          <visugpx:TrkExtension xmlns:visugpx="https://www.visugpx.com/editgpx/">
            <visugpx:node>10</visugpx:node>
            </visugpx:TrkExtension>
        </extensions>
      </trkpt>
      <trkpt lat="-21.06645" lon="55.39752">
        <ele>1902.7</ele>
      </trkpt>
      <trkpt lat="-21.06638" lon="55.39748">
        <ele>1898.8</ele>
      </trkpt>
      <trkpt lat="-21.06633" lon="55.39746">
        <ele>1896.2</ele>
      </trkpt>
      <trkpt lat="-21.06626" lon="55.39749">
        <ele>1893.7</ele>
      </trkpt>
      <trkpt lat="-21.06622" lon="55.39755">
        <ele>1893.1</ele>
      </trkpt>
      <trkpt lat="-21.06617" lon="55.39757">
        <ele>1891.2</ele>
      </trkpt>
      <trkpt lat="-21.06611" lon="55.39756">
        <ele>1888.4</ele>
      </trkpt>
      <trkpt lat="-21.06607" lon="55.39758">
        <ele>1887</ele>
      </trkpt>
      <trkpt lat="-21.06604" lon="55.39765">
        <ele>1887</ele>
      </trkpt>
      <trkpt lat="-21.06595" lon="55.39771">
        <ele>1884.1</ele>
      </trkpt>
      <trkpt lat="-21.06587" lon="55.39768">
        <ele>1880.1</ele>
      </trkpt>
      <trkpt lat="-21.06578" lon="55.39766">
        <ele>1875.8</ele>
      </trkpt>
      <trkpt lat="-21.06573" lon="55.39764">
        <ele>1873.2</ele>
      </trkpt>
      <trkpt lat="-21.06568" lon="55.39759">
        <ele>1870.1</ele>
      </trkpt>
      <trkpt lat="-21.06564" lon="55.39755">
        <ele>1867.6</ele>
      </trkpt>
      <trkpt lat="-21.06559" lon="55.39754">
        <ele>1865.3</ele>
      </trkpt>
      <trkpt lat="-21.0655" lon="55.3976">
        <ele>1862.6</ele>
      </trkpt>
      <trkpt lat="-21.06531" lon="55.39771">
        <ele>1856.6</ele>
      </trkpt>
      <trkpt lat="-21.0652" lon="55.39776">
        <ele>1852.9</ele>
      </trkpt>
      <trkpt lat="-21.0651" lon="55.39784">
        <ele>1850.2</ele>
      </trkpt>
      <trkpt lat="-21.06501" lon="55.3979">
        <ele>1847.6</ele>
      </trkpt>
      <trkpt lat="-21.0649" lon="55.39793">
        <ele>1843.6</ele>
      </trkpt>
      <trkpt lat="-21.06481" lon="55.3979">
        <ele>1839.2</ele>
      </trkpt>
      <trkpt lat="-21.06473" lon="55.39791">
        <ele>1836</ele>
      </trkpt>
      <trkpt lat="-21.06466" lon="55.39788">
        <ele>1832.4</ele>
      </trkpt>
      <trkpt lat="-21.06459" lon="55.39786">
        <ele>1829</ele>
      </trkpt>
      <trkpt lat="-21.06453" lon="55.39789">
        <ele>1827.1</ele>
      </trkpt>
      <trkpt lat="-21.06449" lon="55.39793">
        <ele>1826.4</ele>
      </trkpt>
      <trkpt lat="-21.0644" lon="55.39795">
        <ele>1823.1</ele>
      </trkpt>
      <trkpt lat="-21.06425" lon="55.39793">
        <ele>1816.3</ele>
      </trkpt>
      <trkpt lat="-21.06407" lon="55.39791">
        <ele>1808.2</ele>
      </trkpt>
      <trkpt lat="-21.06391" lon="55.39789">
        <ele>1800.7</ele>
      </trkpt>
      <trkpt lat="-21.06387" lon="55.39792">
        <ele>1799.8</ele>
      </trkpt>
      <trkpt lat="-21.06383" lon="55.39797">
        <ele>1799.4</ele>
      </trkpt>
      <trkpt lat="-21.06378" lon="55.39797">
        <ele>1797.3</ele>
      </trkpt>
      <trkpt lat="-21.06365" lon="55.39805">
        <ele>1793.9</ele>
      </trkpt>
      <trkpt lat="-21.06356" lon="55.3981">
        <ele>1791.6</ele>
      </trkpt>
      <trkpt lat="-21.06347" lon="55.39811">
        <ele>1788.1</ele>
      </trkpt>
      <trkpt lat="-21.06335" lon="55.39811">
        <ele>1783</ele>
      </trkpt>
      <trkpt lat="-21.06324" lon="55.39812">
        <ele>1778.5</ele>
      </trkpt>
      <trkpt lat="-21.06314" lon="55.39813">
        <ele>1774.5</ele>
      </trkpt>
      <trkpt lat="-21.06307" lon="55.39817">
        <ele>1772.7</ele>
      </trkpt>
      <trkpt lat="-21.06302" lon="55.39823">
        <ele>1772.5</ele>
      </trkpt>
      <trkpt lat="-21.06297" lon="55.39824">
        <ele>1770.7</ele>
      </trkpt>
      <trkpt lat="-21.06291" lon="55.39819">
        <ele>1766.5</ele>
      </trkpt>
      <trkpt lat="-21.06285" lon="55.39818">
        <ele>1763.6</ele>
      </trkpt>
      <trkpt lat="-21.06277" lon="55.3982">
        <ele>1760.8</ele>
      </trkpt>
      <trkpt lat="-21.06272" lon="55.39817">
        <ele>1757.6</ele>
      </trkpt>
      <trkpt lat="-21.06265" lon="55.39818">
        <ele>1754.9</ele>
      </trkpt>
      <trkpt lat="-21.06258" lon="55.39813">
        <ele>1750.2</ele>
      </trkpt>
      <trkpt lat="-21.0625" lon="55.39809">
        <ele>1745.2</ele>
      </trkpt>
      <trkpt lat="-21.06246" lon="55.39802">
        <ele>1740.8</ele>
        <extensions>
          <visugpx:TrkExtension xmlns:visugpx="https://www.visugpx.com/editgpx/">
            <visugpx:node>11</visugpx:node>
            </visugpx:TrkExtension>
        </extensions>
      </trkpt>
      <trkpt lat="-21.06244" lon="55.398">
        <ele>1739</ele>
      </trkpt>
      <trkpt lat="-21.06241" lon="55.39793">
        <ele>1735</ele>
      </trkpt>
      <trkpt lat="-21.06239" lon="55.39789">
        <ele>1732.5</ele>
      </trkpt>
      <trkpt lat="-21.06237" lon="55.39782">
        <ele>1729</ele>
      </trkpt>
      <trkpt lat="-21.06235" lon="55.39774">
        <ele>1725</ele>
      </trkpt>
      <trkpt lat="-21.06233" lon="55.39771">
        <ele>1722.8</ele>
      </trkpt>
      <trkpt lat="-21.0623" lon="55.39767">
        <ele>1719.8</ele>
      </trkpt>
      <trkpt lat="-21.06221" lon="55.39763">
        <ele>1713.6</ele>
      </trkpt>
      <trkpt lat="-21.06216" lon="55.39762">
        <ele>1710.7</ele>
      </trkpt>
      <trkpt lat="-21.06213" lon="55.39762">
        <ele>1709.1</ele>
      </trkpt>
      <trkpt lat="-21.06208" lon="55.39763">
        <ele>1706.9</ele>
      </trkpt>
      <trkpt lat="-21.062" lon="55.39762">
        <ele>1702.4</ele>
      </trkpt>
      <trkpt lat="-21.06189" lon="55.39758">
        <ele>1695</ele>
      </trkpt>
      <trkpt lat="-21.06184" lon="55.39758">
        <ele>1692.4</ele>
      </trkpt>
      <trkpt lat="-21.06176" lon="55.39756">
        <ele>1687.4</ele>
      </trkpt>
      <trkpt lat="-21.06169" lon="55.39753">
        <ele>1682.5</ele>
      </trkpt>
      <trkpt lat="-21.06169" lon="55.39749">
        <ele>1680.8</ele>
      </trkpt>
      <trkpt lat="-21.0617" lon="55.39745">
        <ele>1679.7</ele>
      </trkpt>
      <trkpt lat="-21.06167" lon="55.39742">
        <ele>1676.8</ele>
      </trkpt>
      <trkpt lat="-21.06163" lon="55.39735">
        <ele>1671.6</ele>
      </trkpt>
      <trkpt lat="-21.06161" lon="55.3973">
        <ele>1668.3</ele>
      </trkpt>
      <trkpt lat="-21.0616" lon="55.39725">
        <ele>1665.6</ele>
      </trkpt>
      <trkpt lat="-21.06159" lon="55.3972">
        <ele>1662.9</ele>
      </trkpt>
      <trkpt lat="-21.06163" lon="55.39721">
        <ele>1665.7</ele>
      </trkpt>
      <trkpt lat="-21.06165" lon="55.39721">
        <ele>1666.8</ele>
      </trkpt>
      <trkpt lat="-21.06163" lon="55.39716">
        <ele>1663.6</ele>
      </trkpt>
      <trkpt lat="-21.06156" lon="55.397">
        <ele>1652.6</ele>
      </trkpt>
      <trkpt lat="-21.06153" lon="55.39691">
        <ele>1647</ele>
      </trkpt>
      <trkpt lat="-21.06151" lon="55.39688">
        <ele>1644.5</ele>
      </trkpt>
      <trkpt lat="-21.06141" lon="55.39679">
        <ele>1634.6</ele>
      </trkpt>
      <trkpt lat="-21.06135" lon="55.39673">
        <ele>1628.4</ele>
      </trkpt>
      <trkpt lat="-21.06129" lon="55.39671">
        <ele>1623.8</ele>
      </trkpt>
      <trkpt lat="-21.06125" lon="55.3967">
        <ele>1621</ele>
      </trkpt>
      <trkpt lat="-21.06124" lon="55.39667">
        <ele>1619</ele>
      </trkpt>
      <trkpt lat="-21.06124" lon="55.39662">
        <ele>1616.9</ele>
      </trkpt>
      <trkpt lat="-21.0612" lon="55.39658">
        <ele>1612.8</ele>
      </trkpt>
      <trkpt lat="-21.0612" lon="55.39651">
        <ele>1609.8</ele>
      </trkpt>
      <trkpt lat="-21.0612" lon="55.39647">
        <ele>1608.2</ele>
      </trkpt>
      <trkpt lat="-21.0612" lon="55.39643">
        <ele>1606.5</ele>
      </trkpt>
      <trkpt lat="-21.0612" lon="55.39639">
        <ele>1604.8</ele>
      </trkpt>
      <trkpt lat="-21.06118" lon="55.39633">
        <ele>1601</ele>
      </trkpt>
      <trkpt lat="-21.06116" lon="55.39628">
        <ele>1597.7</ele>
      </trkpt>
      <trkpt lat="-21.06113" lon="55.39622">
        <ele>1593.2</ele>
      </trkpt>
      <trkpt lat="-21.06108" lon="55.39616">
        <ele>1587.6</ele>
      </trkpt>
      <trkpt lat="-21.06104" lon="55.39609">
        <ele>1582.1</ele>
      </trkpt>
      <trkpt lat="-21.061" lon="55.39604">
        <ele>1577.4</ele>
      </trkpt>
      <trkpt lat="-21.06098" lon="55.39597">
        <ele>1573.2</ele>
      </trkpt>
      <trkpt lat="-21.06097" lon="55.39591">
        <ele>1570</ele>
      </trkpt>
      <trkpt lat="-21.06094" lon="55.39585">
        <ele>1565.5</ele>
      </trkpt>
      <trkpt lat="-21.0609" lon="55.39581">
        <ele>1561.3</ele>
      </trkpt>
      <trkpt lat="-21.06088" lon="55.39578">
        <ele>1558.8</ele>
      </trkpt>
      <trkpt lat="-21.06087" lon="55.39577">
        <ele>1557.8</ele>
      </trkpt>
      <trkpt lat="-21.06083" lon="55.39575">
        <ele>1554.5</ele>
      </trkpt>
      <trkpt lat="-21.06078" lon="55.39575">
        <ele>1551.3</ele>
      </trkpt>
      <trkpt lat="-21.06074" lon="55.39574">
        <ele>1548.4</ele>
      </trkpt>
      <trkpt lat="-21.06069" lon="55.3957">
        <ele>1543.7</ele>
      </trkpt>
      <trkpt lat="-21.06066" lon="55.39567">
        <ele>1540.7</ele>
      </trkpt>
      <trkpt lat="-21.06062" lon="55.39562">
        <ele>1536.4</ele>
      </trkpt>
      <trkpt lat="-21.06059" lon="55.39559">
        <ele>1533.5</ele>
      </trkpt>
      <trkpt lat="-21.06055" lon="55.39555">
        <ele>1529.7</ele>
      </trkpt>
      <trkpt lat="-21.0605" lon="55.39552">
        <ele>1525.6</ele>
      </trkpt>
      <trkpt lat="-21.06046" lon="55.39548">
        <ele>1521.9</ele>
      </trkpt>
      <trkpt lat="-21.06042" lon="55.39545">
        <ele>1518.5</ele>
      </trkpt>
      <trkpt lat="-21.06037" lon="55.39543">
        <ele>1515</ele>
      </trkpt>
      <trkpt lat="-21.06032" lon="55.39542">
        <ele>1511.7</ele>
      </trkpt>
      <trkpt lat="-21.06026" lon="55.39541">
        <ele>1507.9</ele>
      </trkpt>
      <trkpt lat="-21.06023" lon="55.39543">
        <ele>1506.8</ele>
      </trkpt>
      <trkpt lat="-21.0602" lon="55.39545">
        <ele>1505.6</ele>
      </trkpt>
      <trkpt lat="-21.06016" lon="55.39547">
        <ele>1503.9</ele>
      </trkpt>
      <trkpt lat="-21.06012" lon="55.39548">
        <ele>1501.8</ele>
      </trkpt>
      <trkpt lat="-21.06008" lon="55.39548">
        <ele>1499.4</ele>
      </trkpt>
      <trkpt lat="-21.06003" lon="55.39547">
        <ele>1496.2</ele>
      </trkpt>
      <trkpt lat="-21.05998" lon="55.39546">
        <ele>1492.7</ele>
      </trkpt>
      <trkpt lat="-21.05994" lon="55.39546">
        <ele>1489.9</ele>
      </trkpt>
      <trkpt lat="-21.05988" lon="55.39548">
        <ele>1486.3</ele>
      </trkpt>
      <trkpt lat="-21.05981" lon="55.39548">
        <ele>1481.4</ele>
      </trkpt>
      <trkpt lat="-21.05974" lon="55.39548">
        <ele>1476.5</ele>
      </trkpt>
      <trkpt lat="-21.05968" lon="55.39547">
        <ele>1472</ele>
      </trkpt>
      <trkpt lat="-21.05961" lon="55.39546">
        <ele>1466.8</ele>
      </trkpt>
      <trkpt lat="-21.05954" lon="55.39545">
        <ele>1461.5</ele>
      </trkpt>
      <trkpt lat="-21.05946" lon="55.39542">
        <ele>1454.9</ele>
      </trkpt>
      <trkpt lat="-21.05937" lon="55.3954">
        <ele>1447.8</ele>
      </trkpt>
      <trkpt lat="-21.0593" lon="55.39539">
        <ele>1442.5</ele>
      </trkpt>
      <trkpt lat="-21.05924" lon="55.39538">
        <ele>1437.8</ele>
      </trkpt>
      <trkpt lat="-21.05919" lon="55.39537">
        <ele>1433.9</ele>
      </trkpt>
      <trkpt lat="-21.05915" lon="55.39537">
        <ele>1430.9</ele>
      </trkpt>
      <trkpt lat="-21.05909" lon="55.39535">
        <ele>1425.5</ele>
      </trkpt>
      <trkpt lat="-21.05904" lon="55.39534">
        <ele>1421.2</ele>
      </trkpt>
      <trkpt lat="-21.05899" lon="55.39533">
        <ele>1416.8</ele>
      </trkpt>
      <trkpt lat="-21.05895" lon="55.39533">
        <ele>1413.7</ele>
      </trkpt>
      <trkpt lat="-21.05891" lon="55.39532">
        <ele>1410.1</ele>
      </trkpt>
      <trkpt lat="-21.05888" lon="55.39531">
        <ele>1407.2</ele>
      </trkpt>
      <trkpt lat="-21.05885" lon="55.39529">
        <ele>1403.8</ele>
      </trkpt>
      <trkpt lat="-21.05882" lon="55.39528">
        <ele>1400.9</ele>
      </trkpt>
      <trkpt lat="-21.05879" lon="55.39525">
        <ele>1396.9</ele>
      </trkpt>
      <trkpt lat="-21.05875" lon="55.39523">
        <ele>1392.6</ele>
      </trkpt>
      <trkpt lat="-21.05871" lon="55.39523">
        <ele>1389.3</ele>
      </trkpt>
      <trkpt lat="-21.05867" lon="55.39522">
        <ele>1385.4</ele>
      </trkpt>
      <trkpt lat="-21.05863" lon="55.3952">
        <ele>1380.9</ele>
      </trkpt>
      <trkpt lat="-21.05859" lon="55.39518">
        <ele>1376.4</ele>
      </trkpt>
      <trkpt lat="-21.05855" lon="55.39518">
        <ele>1373</ele>
      </trkpt>
      <trkpt lat="-21.05851" lon="55.39518">
        <ele>1369.6</ele>
      </trkpt>
      <trkpt lat="-21.05847" lon="55.39518">
        <ele>1366.3</ele>
      </trkpt>
      <trkpt lat="-21.05842" lon="55.39518">
        <ele>1362</ele>
      </trkpt>
      <trkpt lat="-21.05837" lon="55.39518">
        <ele>1357.8</ele>
      </trkpt>
      <trkpt lat="-21.05833" lon="55.39518">
        <ele>1354.6</ele>
      </trkpt>
      <trkpt lat="-21.05829" lon="55.39517">
        <ele>1351.6</ele>
      </trkpt>
      <trkpt lat="-21.05825" lon="55.39515">
        <ele>1347.8</ele>
      </trkpt>
      <trkpt lat="-21.05821" lon="55.39514">
        <ele>1344.8</ele>
      </trkpt>
      <trkpt lat="-21.05818" lon="55.39514">
        <ele>1343.1</ele>
      </trkpt>
      <trkpt lat="-21.05815" lon="55.39514">
        <ele>1341.4</ele>
        <extensions>
          <visugpx:TrkExtension xmlns:visugpx="https://www.visugpx.com/editgpx/">
            <visugpx:node>12</visugpx:node>
            </visugpx:TrkExtension>
        </extensions>
      </trkpt>
      <trkpt lat="-21.05811" lon="55.39513">
        <ele>1338.4</ele>
      </trkpt>
      <trkpt lat="-21.05808" lon="55.39511">
        <ele>1335.2</ele>
      </trkpt>
      <trkpt lat="-21.05804" lon="55.39508">
        <ele>1330.7</ele>
      </trkpt>
      <trkpt lat="-21.05792" lon="55.39509">
        <ele>1324.4</ele>
      </trkpt>
      <trkpt lat="-21.05772" lon="55.39511">
        <ele>1314.4</ele>
      </trkpt>
      <trkpt lat="-21.05752" lon="55.39515">
        <ele>1306</ele>
      </trkpt>
      <trkpt lat="-21.05742" lon="55.39517">
        <ele>1303.6</ele>
      </trkpt>
      <trkpt lat="-21.05731" lon="55.39516">
        <ele>1298.9</ele>
      </trkpt>
      <trkpt lat="-21.05721" lon="55.39516">
        <ele>1295.3</ele>
      </trkpt>
      <trkpt lat="-21.05712" lon="55.39514">
        <ele>1290.6</ele>
      </trkpt>
      <trkpt lat="-21.05701" lon="55.39508">
        <ele>1282.1</ele>
      </trkpt>
      <trkpt lat="-21.05689" lon="55.39502">
        <ele>1273.3</ele>
      </trkpt>
      <trkpt lat="-21.05679" lon="55.39486">
        <ele>1270.6</ele>
      </trkpt>
      <trkpt lat="-21.05664" lon="55.39454">
        <ele>1271.6</ele>
      </trkpt>
      <trkpt lat="-21.05667" lon="55.39452">
        <ele>1272.7</ele>
      </trkpt>
      <trkpt lat="-21.05678" lon="55.39455">
        <ele>1275.4</ele>
      </trkpt>
      <trkpt lat="-21.05673" lon="55.39448">
        <ele>1275.1</ele>
      </trkpt>
      <trkpt lat="-21.05668" lon="55.39445">
        <ele>1274.3</ele>
      </trkpt>
      <trkpt lat="-21.05676" lon="55.39437">
        <ele>1277.8</ele>
      </trkpt>
      <trkpt lat="-21.05671" lon="55.39435">
        <ele>1276.8</ele>
      </trkpt>
      <trkpt lat="-21.05678" lon="55.39427">
        <ele>1280</ele>
      </trkpt>
      <trkpt lat="-21.05672" lon="55.39426">
        <ele>1278.7</ele>
      </trkpt>
      <trkpt lat="-21.05672" lon="55.39423">
        <ele>1279.2</ele>
      </trkpt>
      <trkpt lat="-21.0568" lon="55.39407">
        <ele>1280.5</ele>
      </trkpt>
      <trkpt lat="-21.05674" lon="55.39405">
        <ele>1278.4</ele>
      </trkpt>
      <trkpt lat="-21.05682" lon="55.39395">
        <ele>1278.9</ele>
      </trkpt>
      <trkpt lat="-21.05673" lon="55.39394">
        <ele>1275.9</ele>
      </trkpt>
      <trkpt lat="-21.05681" lon="55.39385">
        <ele>1276.9</ele>
      </trkpt>
      <trkpt lat="-21.05686" lon="55.39389">
        <ele>1279.3</ele>
      </trkpt>
      <trkpt lat="-21.05691" lon="55.39401">
        <ele>1282.6</ele>
      </trkpt>
      <trkpt lat="-21.05695" lon="55.39408">
        <ele>1284.7</ele>
      </trkpt>
      <trkpt lat="-21.05693" lon="55.39416">
        <ele>1285.2</ele>
      </trkpt>
      <trkpt lat="-21.05694" lon="55.39419">
        <ele>1285.2</ele>
      </trkpt>
      <trkpt lat="-21.05698" lon="55.39417">
        <ele>1286.5</ele>
      </trkpt>
      <trkpt lat="-21.05704" lon="55.39406">
        <ele>1287</ele>
      </trkpt>
      <trkpt lat="-21.0571" lon="55.39402">
        <ele>1288.3</ele>
      </trkpt>
      <trkpt lat="-21.05701" lon="55.39398">
        <ele>1285.3</ele>
      </trkpt>
      <trkpt lat="-21.05701" lon="55.39395">
        <ele>1285</ele>
      </trkpt>
      <trkpt lat="-21.05707" lon="55.39393">
        <ele>1286.7</ele>
      </trkpt>
      <trkpt lat="-21.0571" lon="55.39396">
        <ele>1287.9</ele>
      </trkpt>
      <trkpt lat="-21.05714" lon="55.39396">
        <ele>1289.2</ele>
      </trkpt>
      <trkpt lat="-21.05711" lon="55.39387">
        <ele>1287.6</ele>
      </trkpt>
      <trkpt lat="-21.05709" lon="55.39378">
        <ele>1286.2</ele>
      </trkpt>
      <trkpt lat="-21.05711" lon="55.39375">
        <ele>1286.8</ele>
      </trkpt>
      <trkpt lat="-21.05719" lon="55.3938">
        <ele>1290.1</ele>
        <extensions>
          <visugpx:TrkExtension xmlns:visugpx="https://www.visugpx.com/editgpx/">
            <visugpx:node>13</visugpx:node>
            </visugpx:TrkExtension>
        </extensions>
      </trkpt>
      <trkpt lat="-21.05722" lon="55.39382">
        <ele>1291.3</ele>
      </trkpt>
      <trkpt lat="-21.05722" lon="55.39387">
        <ele>1291.4</ele>
      </trkpt>
      <trkpt lat="-21.05729" lon="55.39385">
        <ele>1293.8</ele>
      </trkpt>
      <trkpt lat="-21.05728" lon="55.39375">
        <ele>1293.4</ele>
      </trkpt>
      <trkpt lat="-21.05729" lon="55.39371">
        <ele>1293.8</ele>
      </trkpt>
      <trkpt lat="-21.05729" lon="55.39365">
        <ele>1293.8</ele>
      </trkpt>
      <trkpt lat="-21.05725" lon="55.3936">
        <ele>1292</ele>
      </trkpt>
      <trkpt lat="-21.05719" lon="55.39357">
        <ele>1289.2</ele>
      </trkpt>
      <trkpt lat="-21.05707" lon="55.39351">
        <ele>1283.2</ele>
      </trkpt>
      <trkpt lat="-21.05701" lon="55.39345">
        <ele>1279.8</ele>
      </trkpt>
      <trkpt lat="-21.057" lon="55.39336">
        <ele>1278.3</ele>
      </trkpt>
      <trkpt lat="-21.05691" lon="55.39335">
        <ele>1273.4</ele>
      </trkpt>
      <trkpt lat="-21.0568" lon="55.39319">
        <ele>1266.3</ele>
      </trkpt>
      <trkpt lat="-21.05671" lon="55.39314">
        <ele>1261</ele>
      </trkpt>
      <trkpt lat="-21.05667" lon="55.39314">
        <ele>1258.8</ele>
      </trkpt>
      <trkpt lat="-21.05667" lon="55.3931">
        <ele>1258.5</ele>
      </trkpt>
      <trkpt lat="-21.05663" lon="55.39311">
        <ele>1256.8</ele>
      </trkpt>
      <trkpt lat="-21.05662" lon="55.39303">
        <ele>1255.8</ele>
      </trkpt>
      <trkpt lat="-21.05656" lon="55.393">
        <ele>1253.1</ele>
      </trkpt>
      <trkpt lat="-21.0565" lon="55.39294">
        <ele>1250.2</ele>
      </trkpt>
      <trkpt lat="-21.05644" lon="55.39285">
        <ele>1247</ele>
      </trkpt>
      <trkpt lat="-21.05638" lon="55.39275">
        <ele>1243.9</ele>
      </trkpt>
      <trkpt lat="-21.05624" lon="55.39262">
        <ele>1237.3</ele>
      </trkpt>
      <trkpt lat="-21.05617" lon="55.39257">
        <ele>1234.1</ele>
      </trkpt>
      <trkpt lat="-21.05612" lon="55.39254">
        <ele>1231.9</ele>
      </trkpt>
      <trkpt lat="-21.05609" lon="55.39247">
        <ele>1230.1</ele>
      </trkpt>
      <trkpt lat="-21.05602" lon="55.39243">
        <ele>1226.7</ele>
      </trkpt>
      <trkpt lat="-21.05594" lon="55.39229">
        <ele>1221.2</ele>
      </trkpt>
      <trkpt lat="-21.05592" lon="55.39223">
        <ele>1219.3</ele>
      </trkpt>
      <trkpt lat="-21.05592" lon="55.3922">
        <ele>1218.8</ele>
      </trkpt>
      <trkpt lat="-21.05588" lon="55.39216">
        <ele>1216.2</ele>
      </trkpt>
      <trkpt lat="-21.05578" lon="55.3921">
        <ele>1209.9</ele>
      </trkpt>
      <trkpt lat="-21.05574" lon="55.39204">
        <ele>1206.8</ele>
      </trkpt>
      <trkpt lat="-21.0557" lon="55.39202">
        <ele>1204.4</ele>
      </trkpt>
      <trkpt lat="-21.05565" lon="55.39199">
        <ele>1201.4</ele>
      </trkpt>
      <trkpt lat="-21.05558" lon="55.39192">
        <ele>1196.8</ele>
      </trkpt>
      <trkpt lat="-21.05548" lon="55.39186">
        <ele>1191.1</ele>
      </trkpt>
      <trkpt lat="-21.05542" lon="55.39183">
        <ele>1187.8</ele>
      </trkpt>
      <trkpt lat="-21.05534" lon="55.39179">
        <ele>1183.6</ele>
      </trkpt>
      <trkpt lat="-21.05528" lon="55.39175">
        <ele>1180.4</ele>
      </trkpt>
      <trkpt lat="-21.05519" lon="55.39175">
        <ele>1176.2</ele>
      </trkpt>
      <trkpt lat="-21.0551" lon="55.39175">
        <ele>1171.9</ele>
      </trkpt>
      <trkpt lat="-21.05504" lon="55.3917">
        <ele>1168.9</ele>
      </trkpt>
      <trkpt lat="-21.05499" lon="55.39167">
        <ele>1166.3</ele>
      </trkpt>
      <trkpt lat="-21.05493" lon="55.39167">
        <ele>1162.1</ele>
      </trkpt>
      <trkpt lat="-21.05485" lon="55.39169">
        <ele>1156.5</ele>
      </trkpt>
      <trkpt lat="-21.05478" lon="55.39169">
        <ele>1151.6</ele>
      </trkpt>
      <trkpt lat="-21.0547" lon="55.39167">
        <ele>1145.8</ele>
      </trkpt>
      <trkpt lat="-21.05466" lon="55.39161">
        <ele>1141.9</ele>
      </trkpt>
      <trkpt lat="-21.05461" lon="55.39158">
        <ele>1137.9</ele>
      </trkpt>
      <trkpt lat="-21.05456" lon="55.39155">
        <ele>1133.8</ele>
      </trkpt>
      <trkpt lat="-21.05452" lon="55.39149">
        <ele>1130.1</ele>
      </trkpt>
      <trkpt lat="-21.05445" lon="55.39143">
        <ele>1124.3</ele>
      </trkpt>
      <trkpt lat="-21.05441" lon="55.39136">
        <ele>1120.4</ele>
      </trkpt>
      <trkpt lat="-21.05438" lon="55.3913">
        <ele>1117.5</ele>
      </trkpt>
      <trkpt lat="-21.05431" lon="55.39127">
        <ele>1112.3</ele>
      </trkpt>
      <trkpt lat="-21.05421" lon="55.39125">
        <ele>1105.4</ele>
      </trkpt>
      <trkpt lat="-21.05417" lon="55.39125">
        <ele>1102.7</ele>
      </trkpt>
      <trkpt lat="-21.05414" lon="55.39125">
        <ele>1101.3</ele>
      </trkpt>
      <trkpt lat="-21.05412" lon="55.39123">
        <ele>1100.2</ele>
      </trkpt>
      <trkpt lat="-21.05406" lon="55.39121">
        <ele>1097.2</ele>
      </trkpt>
      <trkpt lat="-21.05406" lon="55.39119">
        <ele>1097</ele>
      </trkpt>
      <trkpt lat="-21.05408" lon="55.39115">
        <ele>1097.4</ele>
        <extensions>
          <visugpx:TrkExtension xmlns:visugpx="https://www.visugpx.com/editgpx/">
            <visugpx:node>14</visugpx:node>
            </visugpx:TrkExtension>
        </extensions>
      </trkpt>
      <trkpt lat="-21.05411" lon="55.3911">
        <ele>1098</ele>
      </trkpt>
      <trkpt lat="-21.0541" lon="55.39108">
        <ele>1097.3</ele>
      </trkpt>
      <trkpt lat="-21.05404" lon="55.3911">
        <ele>1095</ele>
      </trkpt>
      <trkpt lat="-21.05399" lon="55.39114">
        <ele>1093.3</ele>
      </trkpt>
      <trkpt lat="-21.05383" lon="55.39113">
        <ele>1086.1</ele>
      </trkpt>
      <trkpt lat="-21.05373" lon="55.39111">
        <ele>1081.4</ele>
      </trkpt>
      <trkpt lat="-21.05369" lon="55.39109">
        <ele>1079.4</ele>
      </trkpt>
      <trkpt lat="-21.05353" lon="55.39112">
        <ele>1072.8</ele>
      </trkpt>
      <trkpt lat="-21.05347" lon="55.39109">
        <ele>1069.8</ele>
      </trkpt>
      <trkpt lat="-21.05338" lon="55.3911">
        <ele>1065.9</ele>
      </trkpt>
      <trkpt lat="-21.05327" lon="55.39108">
        <ele>1062.4</ele>
      </trkpt>
      <trkpt lat="-21.05323" lon="55.3911">
        <ele>1061.8</ele>
      </trkpt>
      <trkpt lat="-21.05315" lon="55.39112">
        <ele>1060.3</ele>
      </trkpt>
      <trkpt lat="-21.05308" lon="55.39119">
        <ele>1059.2</ele>
      </trkpt>
      <trkpt lat="-21.0529" lon="55.39123">
        <ele>1055.3</ele>
      </trkpt>
      <trkpt lat="-21.05275" lon="55.39128">
        <ele>1051.8</ele>
      </trkpt>
      <trkpt lat="-21.05262" lon="55.3913">
        <ele>1048.7</ele>
      </trkpt>
      <trkpt lat="-21.05238" lon="55.39136">
        <ele>1043.8</ele>
      </trkpt>
      <trkpt lat="-21.05232" lon="55.39138">
        <ele>1042.8</ele>
      </trkpt>
      <trkpt lat="-21.0521" lon="55.39144">
        <ele>1039</ele>
      </trkpt>
      <trkpt lat="-21.05192" lon="55.39155">
        <ele>1034.6</ele>
      </trkpt>
      <trkpt lat="-21.05173" lon="55.39166">
        <ele>1029.3</ele>
      </trkpt>
      <trkpt lat="-21.05161" lon="55.3917">
        <ele>1029.3</ele>
      </trkpt>
      <trkpt lat="-21.0515" lon="55.39174">
        <ele>1030.9</ele>
      </trkpt>
      <trkpt lat="-21.05132" lon="55.39172">
        <ele>1031.5</ele>
      </trkpt>
      <trkpt lat="-21.05116" lon="55.3917">
        <ele>1032.1</ele>
      </trkpt>
      <trkpt lat="-21.05092" lon="55.39163">
        <ele>1033.6</ele>
      </trkpt>
      <trkpt lat="-21.05028" lon="55.39144">
        <ele>1030.8</ele>
      </trkpt>
      <trkpt lat="-21.04994" lon="55.39134">
        <ele>1028.7</ele>
      </trkpt>
      <trkpt lat="-21.04971" lon="55.39126">
        <ele>1029.2</ele>
      </trkpt>
      <trkpt lat="-21.04964" lon="55.39124">
        <ele>1029.6</ele>
      </trkpt>
      <trkpt lat="-21.04959" lon="55.39125">
        <ele>1029.5</ele>
      </trkpt>
      <trkpt lat="-21.04953" lon="55.39126">
        <ele>1029.4</ele>
      </trkpt>
      <trkpt lat="-21.04948" lon="55.39129">
        <ele>1028.7</ele>
      </trkpt>
      <trkpt lat="-21.04938" lon="55.3914">
        <ele>1025.9</ele>
      </trkpt>
      <trkpt lat="-21.04928" lon="55.3915">
        <ele>1022.5</ele>
      </trkpt>
      <trkpt lat="-21.04917" lon="55.39154">
        <ele>1020.3</ele>
      </trkpt>
      <trkpt lat="-21.04904" lon="55.3916">
        <ele>1015.3</ele>
      </trkpt>
      <trkpt lat="-21.04886" lon="55.39165">
        <ele>1009.3</ele>
      </trkpt>
      <trkpt lat="-21.04857" lon="55.39165">
        <ele>1002.4</ele>
      </trkpt>
      <trkpt lat="-21.0484" lon="55.39165">
        <ele>998.4</ele>
      </trkpt>
      <trkpt lat="-21.04822" lon="55.39164">
        <ele>993.5</ele>
      </trkpt>
      <trkpt lat="-21.04811" lon="55.39161">
        <ele>991.1</ele>
      </trkpt>
      <trkpt lat="-21.048" lon="55.39158">
        <ele>988.5</ele>
      </trkpt>
      <trkpt lat="-21.04799" lon="55.39158">
        <ele>988.2</ele>
      </trkpt>
      <trkpt lat="-21.04789" lon="55.39159">
        <ele>984.3</ele>
      </trkpt>
      <trkpt lat="-21.04778" lon="55.39158">
        <ele>980.9</ele>
      </trkpt>
      <trkpt lat="-21.04765" lon="55.39156">
        <ele>976.9</ele>
      </trkpt>
      <trkpt lat="-21.04757" lon="55.39155">
        <ele>974.3</ele>
      </trkpt>
      <trkpt lat="-21.04757" lon="55.39154">
        <ele>974.6</ele>
      </trkpt>
      <trkpt lat="-21.04761" lon="55.39149">
        <ele>977.4</ele>
      </trkpt>
      <trkpt lat="-21.04764" lon="55.39146">
        <ele>979.3</ele>
      </trkpt>
      <trkpt lat="-21.0475" lon="55.39136">
        <ele>976.4</ele>
      </trkpt>
      <trkpt lat="-21.04746" lon="55.39135">
        <ele>974.7</ele>
      </trkpt>
      <trkpt lat="-21.04736" lon="55.3913">
        <ele>971.1</ele>
      </trkpt>
      <trkpt lat="-21.0472" lon="55.39127">
        <ele>964.1</ele>
      </trkpt>
      <trkpt lat="-21.04707" lon="55.39128">
        <ele>957.7</ele>
      </trkpt>
      <trkpt lat="-21.04697" lon="55.39128">
        <ele>952.9</ele>
      </trkpt>
      <trkpt lat="-21.04695" lon="55.3913">
        <ele>951.7</ele>
      </trkpt>
      <trkpt lat="-21.04692" lon="55.39133">
        <ele>949.9</ele>
      </trkpt>
      <trkpt lat="-21.0469" lon="55.39134">
        <ele>948.8</ele>
      </trkpt>
      <trkpt lat="-21.04687" lon="55.39137">
        <ele>947.1</ele>
      </trkpt>
      <trkpt lat="-21.04683" lon="55.39138">
        <ele>945.2</ele>
      </trkpt>
      <trkpt lat="-21.0468" lon="55.39139">
        <ele>943.7</ele>
      </trkpt>
      <trkpt lat="-21.04676" lon="55.3914">
        <ele>941.8</ele>
      </trkpt>
      <trkpt lat="-21.04673" lon="55.39141">
        <ele>940.4</ele>
      </trkpt>
      <trkpt lat="-21.04669" lon="55.39141">
        <ele>938.6</ele>
      </trkpt>
      <trkpt lat="-21.04662" lon="55.39144">
        <ele>936.3</ele>
      </trkpt>
      <trkpt lat="-21.04656" lon="55.39143">
        <ele>935</ele>
      </trkpt>
      <trkpt lat="-21.04647" lon="55.39141">
        <ele>933.1</ele>
      </trkpt>
      <trkpt lat="-21.04642" lon="55.39141">
        <ele>932</ele>
      </trkpt>
      <trkpt lat="-21.04635" lon="55.39139">
        <ele>930.6</ele>
      </trkpt>
      <trkpt lat="-21.0463" lon="55.39139">
        <ele>929.4</ele>
      </trkpt>
      <trkpt lat="-21.04624" lon="55.39141">
        <ele>927.9</ele>
      </trkpt>
      <trkpt lat="-21.04618" lon="55.39145">
        <ele>926.2</ele>
      </trkpt>
      <trkpt lat="-21.04614" lon="55.39149">
        <ele>925</ele>
      </trkpt>
      <trkpt lat="-21.0461" lon="55.39152">
        <ele>923.8</ele>
      </trkpt>
      <trkpt lat="-21.04608" lon="55.39152">
        <ele>923.3</ele>
      </trkpt>
      <trkpt lat="-21.04611" lon="55.39147">
        <ele>924.5</ele>
      </trkpt>
      <trkpt lat="-21.04614" lon="55.39141">
        <ele>925.7</ele>
      </trkpt>
      <trkpt lat="-21.04613" lon="55.39141">
        <ele>925.5</ele>
      </trkpt>
      <trkpt lat="-21.04608" lon="55.39144">
        <ele>924</ele>
      </trkpt>
      <trkpt lat="-21.04598" lon="55.39148">
        <ele>921.4</ele>
      </trkpt>
      <trkpt lat="-21.04594" lon="55.3915">
        <ele>920.3</ele>
      </trkpt>
      <trkpt lat="-21.04593" lon="55.39149">
        <ele>920.1</ele>
      </trkpt>
      <trkpt lat="-21.04593" lon="55.39147">
        <ele>920.3</ele>
      </trkpt>
      <trkpt lat="-21.04597" lon="55.39141">
        <ele>921.8</ele>
      </trkpt>
      <trkpt lat="-21.04603" lon="55.39134">
        <ele>923.9</ele>
      </trkpt>
      <trkpt lat="-21.04603" lon="55.39131">
        <ele>924.2</ele>
      </trkpt>
      <trkpt lat="-21.046" lon="55.39131">
        <ele>923.5</ele>
      </trkpt>
      <trkpt lat="-21.04597" lon="55.39132">
        <ele>922.8</ele>
      </trkpt>
      <trkpt lat="-21.04593" lon="55.39136">
        <ele>921.5</ele>
      </trkpt>
      <trkpt lat="-21.04589" lon="55.3914">
        <ele>920.2</ele>
      </trkpt>
      <trkpt lat="-21.04586" lon="55.39145">
        <ele>918.9</ele>
      </trkpt>
      <trkpt lat="-21.04583" lon="55.39146">
        <ele>918.3</ele>
        <extensions>
          <visugpx:TrkExtension xmlns:visugpx="https://www.visugpx.com/editgpx/">
            <visugpx:node>15</visugpx:node>
            </visugpx:TrkExtension>
        </extensions>
      </trkpt>
      <trkpt lat="-21.04581" lon="55.39144">
        <ele>919.1</ele>
      </trkpt>
      <trkpt lat="-21.04581" lon="55.39141">
        <ele>919.4</ele>
      </trkpt>
      <trkpt lat="-21.04585" lon="55.39136">
        <ele>919.7</ele>
      </trkpt>
      <trkpt lat="-21.04589" lon="55.39131">
        <ele>921.1</ele>
      </trkpt>
      <trkpt lat="-21.04596" lon="55.39123">
        <ele>923.4</ele>
      </trkpt>
      <trkpt lat="-21.04597" lon="55.39119">
        <ele>924.1</ele>
      </trkpt>
      <trkpt lat="-21.04594" lon="55.39116">
        <ele>923.7</ele>
      </trkpt>
      <trkpt lat="-21.04588" lon="55.3912">
        <ele>922</ele>
      </trkpt>
      <trkpt lat="-21.04582" lon="55.39126">
        <ele>920.8</ele>
      </trkpt>
      <trkpt lat="-21.04575" lon="55.39132">
        <ele>922.2</ele>
      </trkpt>
      <trkpt lat="-21.0457" lon="55.39135">
        <ele>923.3</ele>
      </trkpt>
      <trkpt lat="-21.04568" lon="55.39133">
        <ele>924.2</ele>
      </trkpt>
      <trkpt lat="-21.0457" lon="55.39129">
        <ele>924.1</ele>
      </trkpt>
      <trkpt lat="-21.04573" lon="55.39124">
        <ele>923.8</ele>
      </trkpt>
      <trkpt lat="-21.04576" lon="55.39119">
        <ele>923.4</ele>
      </trkpt>
      <trkpt lat="-21.0458" lon="55.39115">
        <ele>922.6</ele>
      </trkpt>
      <trkpt lat="-21.04585" lon="55.39106">
        <ele>922.9</ele>
      </trkpt>
      <trkpt lat="-21.04588" lon="55.391">
        <ele>924.1</ele>
      </trkpt>
      <trkpt lat="-21.04589" lon="55.39094">
        <ele>925</ele>
      </trkpt>
      <trkpt lat="-21.04586" lon="55.39092">
        <ele>924.6</ele>
      </trkpt>
      <trkpt lat="-21.04582" lon="55.39095">
        <ele>924.2</ele>
      </trkpt>
      <trkpt lat="-21.04578" lon="55.39101">
        <ele>924.9</ele>
      </trkpt>
      <trkpt lat="-21.04574" lon="55.39108">
        <ele>925.4</ele>
      </trkpt>
      <trkpt lat="-21.04572" lon="55.39109">
        <ele>925.9</ele>
      </trkpt>
      <trkpt lat="-21.04567" lon="55.39111">
        <ele>927.3</ele>
      </trkpt>
      <trkpt lat="-21.04566" lon="55.39111">
        <ele>927.6</ele>
      </trkpt>
      <trkpt lat="-21.04566" lon="55.3911">
        <ele>927.8</ele>
      </trkpt>
      <trkpt lat="-21.04567" lon="55.39105">
        <ele>928.1</ele>
      </trkpt>
      <trkpt lat="-21.04568" lon="55.39097">
        <ele>928.8</ele>
      </trkpt>
      <trkpt lat="-21.04569" lon="55.3909">
        <ele>929.3</ele>
      </trkpt>
      <trkpt lat="-21.04572" lon="55.39083">
        <ele>929.3</ele>
      </trkpt>
      <trkpt lat="-21.04573" lon="55.39077">
        <ele>932.5</ele>
      </trkpt>
      <trkpt lat="-21.04572" lon="55.39077">
        <ele>932.9</ele>
      </trkpt>
      <trkpt lat="-21.04569" lon="55.39077">
        <ele>933.9</ele>
      </trkpt>
      <trkpt lat="-21.04568" lon="55.39078">
        <ele>933.7</ele>
      </trkpt>
      <trkpt lat="-21.04566" lon="55.39081">
        <ele>932.6</ele>
      </trkpt>
      <trkpt lat="-21.04563" lon="55.39086">
        <ele>932</ele>
      </trkpt>
      <trkpt lat="-21.04562" lon="55.39092">
        <ele>931.5</ele>
      </trkpt>
      <trkpt lat="-21.04561" lon="55.39097">
        <ele>931.2</ele>
      </trkpt>
      <trkpt lat="-21.04559" lon="55.39098">
        <ele>931.7</ele>
      </trkpt>
      <trkpt lat="-21.04559" lon="55.39087">
        <ele>933.2</ele>
      </trkpt>
      <trkpt lat="-21.04558" lon="55.39077">
        <ele>937.8</ele>
      </trkpt>
      <trkpt lat="-21.04561" lon="55.3907">
        <ele>940.8</ele>
      </trkpt>
      <trkpt lat="-21.04562" lon="55.39064">
        <ele>944</ele>
      </trkpt>
      <trkpt lat="-21.04559" lon="55.39062">
        <ele>946.1</ele>
      </trkpt>
      <trkpt lat="-21.04555" lon="55.39064">
        <ele>946.3</ele>
      </trkpt>
      <trkpt lat="-21.04551" lon="55.39069">
        <ele>944.8</ele>
      </trkpt>
      <trkpt lat="-21.04547" lon="55.39073">
        <ele>943.9</ele>
      </trkpt>
      <trkpt lat="-21.04546" lon="55.39078">
        <ele>941.4</ele>
      </trkpt>
      <trkpt lat="-21.04546" lon="55.39084">
        <ele>938.3</ele>
      </trkpt>
      <trkpt lat="-21.04546" lon="55.39091">
        <ele>937.2</ele>
      </trkpt>
      <trkpt lat="-21.04543" lon="55.39097">
        <ele>937.3</ele>
      </trkpt>
      <trkpt lat="-21.0454" lon="55.39098">
        <ele>938.2</ele>
      </trkpt>
      <trkpt lat="-21.04538" lon="55.39094">
        <ele>939.5</ele>
      </trkpt>
      <trkpt lat="-21.04535" lon="55.39087">
        <ele>941.8</ele>
      </trkpt>
      <trkpt lat="-21.04533" lon="55.39076">
        <ele>947.1</ele>
      </trkpt>
      <trkpt lat="-21.04527" lon="55.39085">
        <ele>945</ele>
      </trkpt>
      <trkpt lat="-21.04525" lon="55.39091">
        <ele>944.6</ele>
      </trkpt>
      <trkpt lat="-21.04525" lon="55.39099">
        <ele>943.1</ele>
      </trkpt>
      <trkpt lat="-21.04526" lon="55.39106">
        <ele>941.5</ele>
      </trkpt>
      <trkpt lat="-21.04527" lon="55.39113">
        <ele>939.9</ele>
      </trkpt>
      <trkpt lat="-21.04528" lon="55.39118">
        <ele>938.7</ele>
      </trkpt>
      <trkpt lat="-21.04528" lon="55.39121">
        <ele>938.2</ele>
      </trkpt>
      <trkpt lat="-21.04527" lon="55.39122">
        <ele>938.3</ele>
      </trkpt>
      <trkpt lat="-21.04525" lon="55.39121">
        <ele>939.1</ele>
      </trkpt>
      <trkpt lat="-21.04523" lon="55.39116">
        <ele>940.6</ele>
      </trkpt>
      <trkpt lat="-21.04521" lon="55.39108">
        <ele>942.8</ele>
      </trkpt>
      <trkpt lat="-21.04518" lon="55.39103">
        <ele>944.7</ele>
      </trkpt>
      <trkpt lat="-21.04515" lon="55.39098">
        <ele>946.7</ele>
      </trkpt>
      <trkpt lat="-21.04512" lon="55.39096">
        <ele>948.1</ele>
      </trkpt>
      <trkpt lat="-21.04511" lon="55.39097">
        <ele>948.3</ele>
      </trkpt>
      <trkpt lat="-21.04501" lon="55.39104">
        <ele>950.2</ele>
      </trkpt>
      <trkpt lat="-21.04497" lon="55.39104">
        <ele>951.9</ele>
      </trkpt>
      <trkpt lat="-21.04489" lon="55.39105">
        <ele>955.1</ele>
      </trkpt>
      <trkpt lat="-21.0448" lon="55.39105">
        <ele>959</ele>
      </trkpt>
      <trkpt lat="-21.04468" lon="55.39107">
        <ele>963.6</ele>
      </trkpt>
      <trkpt lat="-21.0446" lon="55.39107">
        <ele>967</ele>
      </trkpt>
      <trkpt lat="-21.0445" lon="55.3911">
        <ele>970.2</ele>
      </trkpt>
      <trkpt lat="-21.04443" lon="55.39113">
        <ele>972</ele>
      </trkpt>
      <trkpt lat="-21.04434" lon="55.39117">
        <ele>974</ele>
      </trkpt>
      <trkpt lat="-21.04427" lon="55.39123">
        <ele>974.1</ele>
      </trkpt>
      <trkpt lat="-21.04421" lon="55.39129">
        <ele>973.5</ele>
      </trkpt>
      <trkpt lat="-21.04415" lon="55.39133">
        <ele>973.5</ele>
      </trkpt>
      <trkpt lat="-21.04411" lon="55.39137">
        <ele>972.4</ele>
      </trkpt>
      <trkpt lat="-21.0441" lon="55.3914">
        <ele>971.2</ele>
      </trkpt>
      <trkpt lat="-21.04408" lon="55.39144">
        <ele>969.8</ele>
      </trkpt>
      <trkpt lat="-21.04405" lon="55.39148">
        <ele>968.7</ele>
      </trkpt>
      <trkpt lat="-21.044" lon="55.39154">
        <ele>967.2</ele>
      </trkpt>
      <trkpt lat="-21.04394" lon="55.39161">
        <ele>965.9</ele>
      </trkpt>
      <trkpt lat="-21.04389" lon="55.39167">
        <ele>964.8</ele>
      </trkpt>
      <trkpt lat="-21.04385" lon="55.39172">
        <ele>963.7</ele>
      </trkpt>
      <trkpt lat="-21.0438" lon="55.39176">
        <ele>963.4</ele>
      </trkpt>
      <trkpt lat="-21.04375" lon="55.39179">
        <ele>963.4</ele>
      </trkpt>
      <trkpt lat="-21.04368" lon="55.39184">
        <ele>963.2</ele>
      </trkpt>
      <trkpt lat="-21.04363" lon="55.39186">
        <ele>963.7</ele>
      </trkpt>
      <trkpt lat="-21.0436" lon="55.39188">
        <ele>963.6</ele>
      </trkpt>
      <trkpt lat="-21.04359" lon="55.39182">
        <ele>966.6</ele>
      </trkpt>
      <trkpt lat="-21.04358" lon="55.3918">
        <ele>967.8</ele>
      </trkpt>
      <trkpt lat="-21.04356" lon="55.39181">
        <ele>967.9</ele>
      </trkpt>
      <trkpt lat="-21.04353" lon="55.3918">
        <ele>969.2</ele>
      </trkpt>
      <trkpt lat="-21.04352" lon="55.39178">
        <ele>970.4</ele>
      </trkpt>
      <trkpt lat="-21.0435" lon="55.39175">
        <ele>972.4</ele>
      </trkpt>
      <trkpt lat="-21.04348" lon="55.39173">
        <ele>973.9</ele>
      </trkpt>
      <trkpt lat="-21.04344" lon="55.39173">
        <ele>975</ele>
      </trkpt>
      <trkpt lat="-21.04342" lon="55.39172">
        <ele>976</ele>
      </trkpt>
      <trkpt lat="-21.0434" lon="55.39171">
        <ele>977.1</ele>
      </trkpt>
      <trkpt lat="-21.0434" lon="55.3917">
        <ele>977.5</ele>
      </trkpt>
      <trkpt lat="-21.04343" lon="55.39165">
        <ele>978.6</ele>
      </trkpt>
      <trkpt lat="-21.04345" lon="55.39161">
        <ele>979.1</ele>
      </trkpt>
      <trkpt lat="-21.04346" lon="55.39158">
        <ele>979.7</ele>
      </trkpt>
      <trkpt lat="-21.04345" lon="55.39154">
        <ele>981</ele>
      </trkpt>
      <trkpt lat="-21.04345" lon="55.39149">
        <ele>982.3</ele>
      </trkpt>
      <trkpt lat="-21.04344" lon="55.39147">
        <ele>983</ele>
      </trkpt>
      <trkpt lat="-21.04343" lon="55.39144">
        <ele>984</ele>
      </trkpt>
      <trkpt lat="-21.04341" lon="55.39146">
        <ele>984</ele>
      </trkpt>
      <trkpt lat="-21.04339" lon="55.39148">
        <ele>983.9</ele>
      </trkpt>
      <trkpt lat="-21.04337" lon="55.39149">
        <ele>984.2</ele>
      </trkpt>
      <trkpt lat="-21.04336" lon="55.39151">
        <ele>983.9</ele>
      </trkpt>
      <trkpt lat="-21.04332" lon="55.39153">
        <ele>984.2</ele>
      </trkpt>
      <trkpt lat="-21.04328" lon="55.39156">
        <ele>983.6</ele>
      </trkpt>
      <trkpt lat="-21.04321" lon="55.39157">
        <ele>983.6</ele>
      </trkpt>
      <trkpt lat="-21.04311" lon="55.39159">
        <ele>983.5</ele>
      </trkpt>
      <trkpt lat="-21.043" lon="55.3916">
        <ele>983.7</ele>
      </trkpt>
      <trkpt lat="-21.04289" lon="55.3916">
        <ele>984.1</ele>
      </trkpt>
      <trkpt lat="-21.04282" lon="55.39159">
        <ele>984.5</ele>
      </trkpt>
      <trkpt lat="-21.04277" lon="55.39158">
        <ele>984.9</ele>
      </trkpt>
      <trkpt lat="-21.0427" lon="55.39157">
        <ele>985.4</ele>
      </trkpt>
      <trkpt lat="-21.04263" lon="55.39156">
        <ele>985.9</ele>
      </trkpt>
      <trkpt lat="-21.04257" lon="55.39156">
        <ele>986.1</ele>
      </trkpt>
      <trkpt lat="-21.04248" lon="55.39153">
        <ele>986.4</ele>
      </trkpt>
      <trkpt lat="-21.04246" lon="55.39151">
        <ele>986.4</ele>
      </trkpt>
      <trkpt lat="-21.0424" lon="55.39154">
        <ele>984.2</ele>
      </trkpt>
      <trkpt lat="-21.04233" lon="55.39156">
        <ele>981.9</ele>
      </trkpt>
      <trkpt lat="-21.0423" lon="55.39156">
        <ele>981.1</ele>
      </trkpt>
      <trkpt lat="-21.04226" lon="55.39158">
        <ele>979.6</ele>
        <extensions>
          <visugpx:TrkExtension xmlns:visugpx="https://www.visugpx.com/editgpx/">
            <visugpx:node>16</visugpx:node>
            </visugpx:TrkExtension>
        </extensions>
      </trkpt>
      <trkpt lat="-21.04225" lon="55.39158">
        <ele>979.4</ele>
      </trkpt>
      <trkpt lat="-21.0422" lon="55.39161">
        <ele>977.4</ele>
      </trkpt>
      <trkpt lat="-21.04218" lon="55.39162">
        <ele>976.6</ele>
      </trkpt>
      <trkpt lat="-21.04214" lon="55.39163">
        <ele>975.3</ele>
      </trkpt>
      <trkpt lat="-21.0421" lon="55.39164">
        <ele>974.1</ele>
      </trkpt>
      <trkpt lat="-21.04206" lon="55.39167">
        <ele>972.4</ele>
      </trkpt>
      <trkpt lat="-21.04202" lon="55.39171">
        <ele>971.7</ele>
      </trkpt>
      <trkpt lat="-21.04199" lon="55.39176">
        <ele>971.4</ele>
      </trkpt>
      <trkpt lat="-21.04195" lon="55.39181">
        <ele>970.9</ele>
      </trkpt>
      <trkpt lat="-21.04192" lon="55.39186">
        <ele>970.8</ele>
      </trkpt>
      <trkpt lat="-21.04189" lon="55.39191">
        <ele>970.8</ele>
      </trkpt>
      <trkpt lat="-21.04184" lon="55.39195">
        <ele>970.5</ele>
      </trkpt>
      <trkpt lat="-21.04179" lon="55.39197">
        <ele>969.9</ele>
      </trkpt>
      <trkpt lat="-21.04174" lon="55.392">
        <ele>969.6</ele>
      </trkpt>
      <trkpt lat="-21.04171" lon="55.39204">
        <ele>969.8</ele>
      </trkpt>
      <trkpt lat="-21.04168" lon="55.39207">
        <ele>969.9</ele>
      </trkpt>
      <trkpt lat="-21.04165" lon="55.39211">
        <ele>970.1</ele>
      </trkpt>
      <trkpt lat="-21.04161" lon="55.39213">
        <ele>969.4</ele>
      </trkpt>
      <trkpt lat="-21.04158" lon="55.39216">
        <ele>969.1</ele>
      </trkpt>
      <trkpt lat="-21.04154" lon="55.3922">
        <ele>968.6</ele>
      </trkpt>
      <trkpt lat="-21.0415" lon="55.39222">
        <ele>967.7</ele>
      </trkpt>
      <trkpt lat="-21.04147" lon="55.39225">
        <ele>967.2</ele>
      </trkpt>
      <trkpt lat="-21.04142" lon="55.39227">
        <ele>965.9</ele>
      </trkpt>
      <trkpt lat="-21.04136" lon="55.39229">
        <ele>964.2</ele>
      </trkpt>
      <trkpt lat="-21.04131" lon="55.39232">
        <ele>962.9</ele>
      </trkpt>
      <trkpt lat="-21.04128" lon="55.39235">
        <ele>962.1</ele>
      </trkpt>
      <trkpt lat="-21.04122" lon="55.39242">
        <ele>960.4</ele>
      </trkpt>
      <trkpt lat="-21.04118" lon="55.39244">
        <ele>959.1</ele>
      </trkpt>
      <trkpt lat="-21.04109" lon="55.39249">
        <ele>955.8</ele>
      </trkpt>
      <trkpt lat="-21.04099" lon="55.39253">
        <ele>952.5</ele>
      </trkpt>
      <trkpt lat="-21.04093" lon="55.39255">
        <ele>950.6</ele>
      </trkpt>
      <trkpt lat="-21.04088" lon="55.39255">
        <ele>948.8</ele>
      </trkpt>
      <trkpt lat="-21.04082" lon="55.39254">
        <ele>946.4</ele>
      </trkpt>
      <trkpt lat="-21.04078" lon="55.39252">
        <ele>944.7</ele>
      </trkpt>
      <trkpt lat="-21.04074" lon="55.39248">
        <ele>943.3</ele>
      </trkpt>
      <trkpt lat="-21.0407" lon="55.39247">
        <ele>942.1</ele>
      </trkpt>
      <trkpt lat="-21.04068" lon="55.39249">
        <ele>941.3</ele>
      </trkpt>
      <trkpt lat="-21.04064" lon="55.39252">
        <ele>940.3</ele>
      </trkpt>
      <trkpt lat="-21.04062" lon="55.39253">
        <ele>939.9</ele>
      </trkpt>
      <trkpt lat="-21.04059" lon="55.39256">
        <ele>939.5</ele>
      </trkpt>
      <trkpt lat="-21.04055" lon="55.39261">
        <ele>939</ele>
      </trkpt>
      <trkpt lat="-21.04052" lon="55.39263">
        <ele>938.4</ele>
      </trkpt>
      <trkpt lat="-21.04047" lon="55.39265">
        <ele>937.1</ele>
      </trkpt>
      <trkpt lat="-21.04041" lon="55.39265">
        <ele>935.1</ele>
      </trkpt>
      <trkpt lat="-21.0403" lon="55.39262">
        <ele>931.1</ele>
      </trkpt>
      <trkpt lat="-21.04002" lon="55.39255">
        <ele>921.2</ele>
      </trkpt>
      <trkpt lat="-21.03991" lon="55.39253">
        <ele>918.4</ele>
      </trkpt>
      <trkpt lat="-21.03983" lon="55.39249">
        <ele>916.5</ele>
      </trkpt>
      <trkpt lat="-21.03974" lon="55.39248">
        <ele>914.6</ele>
      </trkpt>
      <trkpt lat="-21.03967" lon="55.39248">
        <ele>913</ele>
      </trkpt>
      <trkpt lat="-21.03961" lon="55.39247">
        <ele>911.7</ele>
      </trkpt>
      <trkpt lat="-21.03952" lon="55.39249">
        <ele>909.7</ele>
      </trkpt>
      <trkpt lat="-21.03939" lon="55.39253">
        <ele>907.1</ele>
      </trkpt>
      <trkpt lat="-21.03931" lon="55.39257">
        <ele>905.9</ele>
      </trkpt>
      <trkpt lat="-21.03926" lon="55.3926">
        <ele>905.1</ele>
      </trkpt>
      <trkpt lat="-21.03921" lon="55.3926">
        <ele>904</ele>
      </trkpt>
      <trkpt lat="-21.03915" lon="55.39259">
        <ele>902.5</ele>
      </trkpt>
      <trkpt lat="-21.0391" lon="55.39257">
        <ele>900.8</ele>
      </trkpt>
      <trkpt lat="-21.03902" lon="55.39255">
        <ele>898.1</ele>
      </trkpt>
      <trkpt lat="-21.03894" lon="55.39251">
        <ele>895.1</ele>
      </trkpt>
      <trkpt lat="-21.03885" lon="55.39246">
        <ele>892.6</ele>
      </trkpt>
      <trkpt lat="-21.03877" lon="55.39244">
        <ele>890.8</ele>
      </trkpt>
      <trkpt lat="-21.0387" lon="55.39244">
        <ele>888.9</ele>
      </trkpt>
      <trkpt lat="-21.03863" lon="55.39242">
        <ele>887.6</ele>
      </trkpt>
      <trkpt lat="-21.03859" lon="55.39247">
        <ele>885</ele>
      </trkpt>
      <trkpt lat="-21.03855" lon="55.39252">
        <ele>883.2</ele>
      </trkpt>
      <trkpt lat="-21.03851" lon="55.39258">
        <ele>883.5</ele>
      </trkpt>
      <trkpt lat="-21.03847" lon="55.39265">
        <ele>884.1</ele>
      </trkpt>
      <trkpt lat="-21.03837" lon="55.3928">
        <ele>885.5</ele>
      </trkpt>
      <trkpt lat="-21.03826" lon="55.39291">
        <ele>888.1</ele>
      </trkpt>
      <trkpt lat="-21.03816" lon="55.39297">
        <ele>890</ele>
      </trkpt>
      <trkpt lat="-21.03803" lon="55.39296">
        <ele>890.1</ele>
      </trkpt>
      <trkpt lat="-21.03792" lon="55.39291">
        <ele>889.4</ele>
      </trkpt>
      <trkpt lat="-21.03789" lon="55.39291">
        <ele>889.5</ele>
      </trkpt>
      <trkpt lat="-21.03779" lon="55.39292">
        <ele>890</ele>
      </trkpt>
      <trkpt lat="-21.03771" lon="55.39295">
        <ele>890.8</ele>
      </trkpt>
      <trkpt lat="-21.03767" lon="55.39295">
        <ele>890.9</ele>
      </trkpt>
      <trkpt lat="-21.03764" lon="55.39297">
        <ele>891.3</ele>
      </trkpt>
      <trkpt lat="-21.03759" lon="55.39304">
        <ele>892.4</ele>
      </trkpt>
      <trkpt lat="-21.03755" lon="55.39311">
        <ele>893.3</ele>
      </trkpt>
      <trkpt lat="-21.03751" lon="55.39316">
        <ele>893.9</ele>
      </trkpt>
      <trkpt lat="-21.03742" lon="55.39319">
        <ele>895.1</ele>
      </trkpt>
      <trkpt lat="-21.03734" lon="55.39321">
        <ele>895.9</ele>
      </trkpt>
      <trkpt lat="-21.03723" lon="55.39328">
        <ele>896.8</ele>
      </trkpt>
      <trkpt lat="-21.03711" lon="55.39333">
        <ele>897</ele>
      </trkpt>
      <trkpt lat="-21.03703" lon="55.39336">
        <ele>896.9</ele>
      </trkpt>
      <trkpt lat="-21.03698" lon="55.39339">
        <ele>896.7</ele>
      </trkpt>
      <trkpt lat="-21.03696" lon="55.39344">
        <ele>896.3</ele>
      </trkpt>
      <trkpt lat="-21.03695" lon="55.39348">
        <ele>896</ele>
      </trkpt>
      <trkpt lat="-21.03697" lon="55.39353">
        <ele>895.5</ele>
      </trkpt>
      <trkpt lat="-21.03694" lon="55.39357">
        <ele>895.2</ele>
      </trkpt>
      <trkpt lat="-21.03691" lon="55.3936">
        <ele>894.9</ele>
      </trkpt>
      <trkpt lat="-21.03684" lon="55.39366">
        <ele>894.2</ele>
      </trkpt>
      <trkpt lat="-21.03678" lon="55.3937">
        <ele>893.7</ele>
      </trkpt>
      <trkpt lat="-21.03677" lon="55.39375">
        <ele>893.2</ele>
      </trkpt>
      <trkpt lat="-21.0368" lon="55.39379">
        <ele>892.8</ele>
      </trkpt>
      <trkpt lat="-21.03685" lon="55.39383">
        <ele>892.5</ele>
      </trkpt>
      <trkpt lat="-21.03688" lon="55.39386">
        <ele>892.3</ele>
      </trkpt>
      <trkpt lat="-21.03689" lon="55.39392">
        <ele>891.7</ele>
      </trkpt>
      <trkpt lat="-21.03688" lon="55.39398">
        <ele>891.1</ele>
      </trkpt>
      <trkpt lat="-21.03684" lon="55.39406">
        <ele>890.1</ele>
      </trkpt>
      <trkpt lat="-21.0368" lon="55.39414">
        <ele>889.1</ele>
      </trkpt>
      <trkpt lat="-21.0368" lon="55.39418">
        <ele>888.9</ele>
        <extensions>
          <visugpx:TrkExtension xmlns:visugpx="https://www.visugpx.com/editgpx/">
            <visugpx:node>17</visugpx:node>
            </visugpx:TrkExtension>
        </extensions>
      </trkpt>
      <trkpt lat="-21.03679" lon="55.39421">
        <ele>888.9</ele>
      </trkpt>
      <trkpt lat="-21.0368" lon="55.39427">
        <ele>889.3</ele>
      </trkpt>
      <trkpt lat="-21.03681" lon="55.39431">
        <ele>889.5</ele>
      </trkpt>
      <trkpt lat="-21.0368" lon="55.39436">
        <ele>889.7</ele>
      </trkpt>
      <trkpt lat="-21.03679" lon="55.39442">
        <ele>889.9</ele>
      </trkpt>
      <trkpt lat="-21.03678" lon="55.39446">
        <ele>890</ele>
      </trkpt>
      <trkpt lat="-21.03679" lon="55.39452">
        <ele>890.3</ele>
      </trkpt>
      <trkpt lat="-21.0368" lon="55.39458">
        <ele>890.7</ele>
      </trkpt>
      <trkpt lat="-21.03679" lon="55.39467">
        <ele>891</ele>
      </trkpt>
      <trkpt lat="-21.03679" lon="55.3947">
        <ele>891.1</ele>
      </trkpt>
      <trkpt lat="-21.03681" lon="55.39473">
        <ele>891.5</ele>
      </trkpt>
      <trkpt lat="-21.03682" lon="55.39475">
        <ele>891.7</ele>
      </trkpt>
      <trkpt lat="-21.03681" lon="55.39477">
        <ele>891.7</ele>
      </trkpt>
      <trkpt lat="-21.03679" lon="55.39479">
        <ele>891.5</ele>
      </trkpt>
      <trkpt lat="-21.03681" lon="55.3948">
        <ele>891.8</ele>
      </trkpt>
      <trkpt lat="-21.03685" lon="55.39481">
        <ele>892.3</ele>
      </trkpt>
      <trkpt lat="-21.03686" lon="55.39483">
        <ele>892.5</ele>
      </trkpt>
      <trkpt lat="-21.03685" lon="55.39485">
        <ele>892.5</ele>
      </trkpt>
      <trkpt lat="-21.03684" lon="55.39488">
        <ele>892.5</ele>
      </trkpt>
      <trkpt lat="-21.03684" lon="55.39489">
        <ele>892.5</ele>
      </trkpt>
      <trkpt lat="-21.03686" lon="55.39491">
        <ele>892.9</ele>
      </trkpt>
      <trkpt lat="-21.03685" lon="55.39493">
        <ele>892.9</ele>
      </trkpt>
      <trkpt lat="-21.03682" lon="55.39494">
        <ele>892.6</ele>
      </trkpt>
      <trkpt lat="-21.0368" lon="55.39495">
        <ele>892.4</ele>
      </trkpt>
      <trkpt lat="-21.0368" lon="55.39497">
        <ele>892.5</ele>
      </trkpt>
      <trkpt lat="-21.03681" lon="55.395">
        <ele>892.7</ele>
      </trkpt>
      <trkpt lat="-21.03679" lon="55.39502">
        <ele>892.8</ele>
      </trkpt>
      <trkpt lat="-21.03676" lon="55.39503">
        <ele>892.6</ele>
      </trkpt>
      <trkpt lat="-21.03673" lon="55.39502">
        <ele>892.1</ele>
      </trkpt>
      <trkpt lat="-21.03672" lon="55.39503">
        <ele>892.2</ele>
      </trkpt>
      <trkpt lat="-21.03673" lon="55.39505">
        <ele>892.6</ele>
      </trkpt>
      <trkpt lat="-21.03673" lon="55.39508">
        <ele>893.1</ele>
      </trkpt>
      <trkpt lat="-21.03674" lon="55.39512">
        <ele>893.9</ele>
      </trkpt>
      <trkpt lat="-21.03674" lon="55.39514">
        <ele>894.3</ele>
      </trkpt>
      <trkpt lat="-21.03673" lon="55.39517">
        <ele>894.7</ele>
      </trkpt>
      <trkpt lat="-21.03671" lon="55.39518">
        <ele>894.6</ele>
      </trkpt>
      <trkpt lat="-21.03668" lon="55.39521">
        <ele>894.7</ele>
      </trkpt>
      <trkpt lat="-21.03669" lon="55.39523">
        <ele>895.2</ele>
      </trkpt>
      <trkpt lat="-21.03671" lon="55.39526">
        <ele>896</ele>
      </trkpt>
      <trkpt lat="-21.03673" lon="55.39528">
        <ele>896.6</ele>
      </trkpt>
      <trkpt lat="-21.03675" lon="55.39531">
        <ele>897.4</ele>
      </trkpt>
      <trkpt lat="-21.03671" lon="55.39534">
        <ele>897.3</ele>
      </trkpt>
      <trkpt lat="-21.03666" lon="55.39538">
        <ele>897.3</ele>
      </trkpt>
      <trkpt lat="-21.03659" lon="55.39541">
        <ele>897.1</ele>
      </trkpt>
      <trkpt lat="-21.03652" lon="55.39541">
        <ele>896.4</ele>
      </trkpt>
      <trkpt lat="-21.03642" lon="55.3954">
        <ele>895.2</ele>
      </trkpt>
      <trkpt lat="-21.0363" lon="55.39535">
        <ele>893.3</ele>
      </trkpt>
      <trkpt lat="-21.03621" lon="55.3953">
        <ele>891.8</ele>
      </trkpt>
      <trkpt lat="-21.03617" lon="55.39525">
        <ele>890.7</ele>
      </trkpt>
      <trkpt lat="-21.03612" lon="55.3952">
        <ele>889.6</ele>
      </trkpt>
      <trkpt lat="-21.03607" lon="55.39517">
        <ele>888.8</ele>
      </trkpt>
      <trkpt lat="-21.03601" lon="55.39518">
        <ele>888.4</ele>
      </trkpt>
      <trkpt lat="-21.03596" lon="55.3952">
        <ele>888.3</ele>
      </trkpt>
      <trkpt lat="-21.0359" lon="55.39523">
        <ele>888.1</ele>
      </trkpt>
      <trkpt lat="-21.03585" lon="55.39527">
        <ele>888.1</ele>
      </trkpt>
      <trkpt lat="-21.03585" lon="55.39532">
        <ele>888.6</ele>
      </trkpt>
      <trkpt lat="-21.03586" lon="55.39536">
        <ele>889.1</ele>
      </trkpt>
      <trkpt lat="-21.03588" lon="55.39541">
        <ele>889.9</ele>
      </trkpt>
      <trkpt lat="-21.03585" lon="55.39544">
        <ele>889.9</ele>
      </trkpt>
      <trkpt lat="-21.0358" lon="55.39547">
        <ele>889.7</ele>
      </trkpt>
      <trkpt lat="-21.03574" lon="55.39548">
        <ele>889.2</ele>
      </trkpt>
      <trkpt lat="-21.03569" lon="55.39547">
        <ele>888.5</ele>
      </trkpt>
      <trkpt lat="-21.03563" lon="55.39546">
        <ele>887.8</ele>
      </trkpt>
      <trkpt lat="-21.03561" lon="55.39548">
        <ele>887.8</ele>
      </trkpt>
      <trkpt lat="-21.03559" lon="55.39552">
        <ele>887.9</ele>
      </trkpt>
      <trkpt lat="-21.03558" lon="55.39555">
        <ele>888</ele>
      </trkpt>
      <trkpt lat="-21.03557" lon="55.39559">
        <ele>888.2</ele>
      </trkpt>
      <trkpt lat="-21.03556" lon="55.39563">
        <ele>888.4</ele>
      </trkpt>
      <trkpt lat="-21.03554" lon="55.39567">
        <ele>888.5</ele>
      </trkpt>
      <trkpt lat="-21.0355" lon="55.3957">
        <ele>888.2</ele>
      </trkpt>
      <trkpt lat="-21.03547" lon="55.39572">
        <ele>888</ele>
      </trkpt>
      <trkpt lat="-21.03545" lon="55.39575">
        <ele>887.9</ele>
      </trkpt>
      <trkpt lat="-21.03545" lon="55.3958">
        <ele>888.2</ele>
      </trkpt>
      <trkpt lat="-21.03542" lon="55.39583">
        <ele>888</ele>
      </trkpt>
      <trkpt lat="-21.03538" lon="55.39586">
        <ele>887.9</ele>
      </trkpt>
      <trkpt lat="-21.03535" lon="55.39587">
        <ele>887.6</ele>
      </trkpt>
      <trkpt lat="-21.03532" lon="55.39585">
        <ele>886.9</ele>
      </trkpt>
      <trkpt lat="-21.03527" lon="55.39582">
        <ele>885.8</ele>
      </trkpt>
      <trkpt lat="-21.03525" lon="55.39584">
        <ele>885.7</ele>
      </trkpt>
      <trkpt lat="-21.03522" lon="55.39587">
        <ele>885.7</ele>
      </trkpt>
      <trkpt lat="-21.03519" lon="55.39592">
        <ele>886</ele>
      </trkpt>
      <trkpt lat="-21.03514" lon="55.39594">
        <ele>885.6</ele>
      </trkpt>
      <trkpt lat="-21.03506" lon="55.39592">
        <ele>884.1</ele>
      </trkpt>
      <trkpt lat="-21.03504" lon="55.39592">
        <ele>883.7</ele>
      </trkpt>
      <trkpt lat="-21.03502" lon="55.39594">
        <ele>883.7</ele>
      </trkpt>
      <trkpt lat="-21.035" lon="55.396">
        <ele>884.2</ele>
      </trkpt>
      <trkpt lat="-21.03499" lon="55.39606">
        <ele>884.8</ele>
      </trkpt>
      <trkpt lat="-21.03498" lon="55.39612">
        <ele>885.5</ele>
      </trkpt>
      <trkpt lat="-21.03495" lon="55.39615">
        <ele>885.4</ele>
      </trkpt>
      <trkpt lat="-21.0349" lon="55.39618">
        <ele>884.9</ele>
      </trkpt>
      <trkpt lat="-21.03489" lon="55.39625">
        <ele>885.6</ele>
      </trkpt>
      <trkpt lat="-21.03489" lon="55.39631">
        <ele>886.3</ele>
      </trkpt>
      <trkpt lat="-21.03491" lon="55.39634">
        <ele>887</ele>
      </trkpt>
      <trkpt lat="-21.03493" lon="55.39638">
        <ele>887.9</ele>
      </trkpt>
      <trkpt lat="-21.03495" lon="55.39642">
        <ele>888.8</ele>
      </trkpt>
      <trkpt lat="-21.03494" lon="55.39645">
        <ele>889</ele>
      </trkpt>
      <trkpt lat="-21.03492" lon="55.39647">
        <ele>888.8</ele>
      </trkpt>
      <trkpt lat="-21.03489" lon="55.3965">
        <ele>888.6</ele>
      </trkpt>
      <trkpt lat="-21.03488" lon="55.39653">
        <ele>888.8</ele>
      </trkpt>
      <trkpt lat="-21.03489" lon="55.39658">
        <ele>889.6</ele>
      </trkpt>
      <trkpt lat="-21.03488" lon="55.39661">
        <ele>889.7</ele>
      </trkpt>
      <trkpt lat="-21.03485" lon="55.39664">
        <ele>889.4</ele>
      </trkpt>
      <trkpt lat="-21.03485" lon="55.39668">
        <ele>890</ele>
      </trkpt>
      <trkpt lat="-21.03484" lon="55.39671">
        <ele>890.4</ele>
      </trkpt>
      <trkpt lat="-21.0348" lon="55.39673">
        <ele>889.8</ele>
      </trkpt>
      <trkpt lat="-21.03477" lon="55.39676">
        <ele>889.7</ele>
      </trkpt>
      <trkpt lat="-21.03475" lon="55.3968">
        <ele>890</ele>
      </trkpt>
      <trkpt lat="-21.03474" lon="55.39686">
        <ele>890.8</ele>
      </trkpt>
      <trkpt lat="-21.03475" lon="55.3969">
        <ele>891.8</ele>
      </trkpt>
      <trkpt lat="-21.03477" lon="55.39694">
        <ele>893</ele>
      </trkpt>
      <trkpt lat="-21.03479" lon="55.39695">
        <ele>893.6</ele>
        <extensions>
          <visugpx:TrkExtension xmlns:visugpx="https://www.visugpx.com/editgpx/">
            <visugpx:node>18</visugpx:node>
            </visugpx:TrkExtension>
        </extensions>
      </trkpt>
      <trkpt lat="-21.0348" lon="55.39697">
        <ele>894.3</ele>
      </trkpt>
      <trkpt lat="-21.03481" lon="55.397">
        <ele>895.1</ele>
      </trkpt>
      <trkpt lat="-21.03481" lon="55.39701">
        <ele>895.2</ele>
      </trkpt>
      <trkpt lat="-21.03478" lon="55.39702">
        <ele>894.7</ele>
      </trkpt>
      <trkpt lat="-21.03473" lon="55.39704">
        <ele>893.8</ele>
      </trkpt>
      <trkpt lat="-21.03471" lon="55.39707">
        <ele>893.8</ele>
      </trkpt>
      <trkpt lat="-21.03471" lon="55.39708">
        <ele>894</ele>
      </trkpt>
      <trkpt lat="-21.03477" lon="55.39709">
        <ele>895.7</ele>
      </trkpt>
      <trkpt lat="-21.03489" lon="55.39714">
        <ele>899.8</ele>
      </trkpt>
      <trkpt lat="-21.03494" lon="55.39715">
        <ele>901.3</ele>
      </trkpt>
      <trkpt lat="-21.03499" lon="55.39716">
        <ele>902.8</ele>
      </trkpt>
      <trkpt lat="-21.03503" lon="55.39719">
        <ele>904.5</ele>
      </trkpt>
      <trkpt lat="-21.03507" lon="55.39722">
        <ele>906.1</ele>
      </trkpt>
      <trkpt lat="-21.03512" lon="55.39725">
        <ele>908.1</ele>
      </trkpt>
      <trkpt lat="-21.03515" lon="55.39723">
        <ele>908.5</ele>
      </trkpt>
      <trkpt lat="-21.03518" lon="55.3972">
        <ele>908.6</ele>
      </trkpt>
      <trkpt lat="-21.0352" lon="55.39715">
        <ele>908</ele>
      </trkpt>
      <trkpt lat="-21.03524" lon="55.39711">
        <ele>908.1</ele>
      </trkpt>
      <trkpt lat="-21.03528" lon="55.39711">
        <ele>909.2</ele>
      </trkpt>
      <trkpt lat="-21.03532" lon="55.39716">
        <ele>911.3</ele>
      </trkpt>
      <trkpt lat="-21.03533" lon="55.39718">
        <ele>912.1</ele>
      </trkpt>
      <trkpt lat="-21.03533" lon="55.39723">
        <ele>913.2</ele>
      </trkpt>
      <trkpt lat="-21.03535" lon="55.39726">
        <ele>914.5</ele>
      </trkpt>
      <trkpt lat="-21.03539" lon="55.39727">
        <ele>915.8</ele>
      </trkpt>
      <trkpt lat="-21.03543" lon="55.39727">
        <ele>916.8</ele>
      </trkpt>
      <trkpt lat="-21.03547" lon="55.39726">
        <ele>917.7</ele>
      </trkpt>
      <trkpt lat="-21.0355" lon="55.39725">
        <ele>918.2</ele>
      </trkpt>
      <trkpt lat="-21.03553" lon="55.39726">
        <ele>919.3</ele>
      </trkpt>
      <trkpt lat="-21.03555" lon="55.39729">
        <ele>920.6</ele>
      </trkpt>
      <trkpt lat="-21.03555" lon="55.39732">
        <ele>921.3</ele>
      </trkpt>
      <trkpt lat="-21.03554" lon="55.39736">
        <ele>922</ele>
      </trkpt>
      <trkpt lat="-21.03551" lon="55.3974">
        <ele>922.2</ele>
      </trkpt>
      <trkpt lat="-21.03548" lon="55.39744">
        <ele>922.4</ele>
      </trkpt>
      <trkpt lat="-21.03545" lon="55.39748">
        <ele>922.5</ele>
      </trkpt>
      <trkpt lat="-21.03546" lon="55.39751">
        <ele>923.5</ele>
      </trkpt>
      <trkpt lat="-21.03548" lon="55.39754">
        <ele>924.9</ele>
      </trkpt>
      <trkpt lat="-21.03548" lon="55.39758">
        <ele>925.9</ele>
      </trkpt>
      <trkpt lat="-21.03546" lon="55.39762">
        <ele>926.3</ele>
      </trkpt>
      <trkpt lat="-21.03543" lon="55.39767">
        <ele>926.7</ele>
      </trkpt>
      <trkpt lat="-21.0354" lon="55.3977">
        <ele>926.5</ele>
      </trkpt>
      <trkpt lat="-21.03536" lon="55.39772">
        <ele>925.8</ele>
      </trkpt>
      <trkpt lat="-21.03534" lon="55.39775">
        <ele>925.9</ele>
      </trkpt>
      <trkpt lat="-21.03531" lon="55.39778">
        <ele>925.7</ele>
      </trkpt>
      <trkpt lat="-21.03531" lon="55.39782">
        <ele>926.7</ele>
      </trkpt>
      <trkpt lat="-21.03531" lon="55.39786">
        <ele>927.7</ele>
      </trkpt>
      <trkpt lat="-21.0353" lon="55.3979">
        <ele>928.3</ele>
      </trkpt>
      <trkpt lat="-21.03528" lon="55.39793">
        <ele>928.4</ele>
      </trkpt>
      <trkpt lat="-21.03525" lon="55.39794">
        <ele>927.7</ele>
      </trkpt>
      <trkpt lat="-21.03521" lon="55.39794">
        <ele>926.4</ele>
      </trkpt>
      <trkpt lat="-21.0352" lon="55.39796">
        <ele>926.5</ele>
      </trkpt>
      <trkpt lat="-21.03515" lon="55.398">
        <ele>925.8</ele>
      </trkpt>
      <trkpt lat="-21.0351" lon="55.3981">
        <ele>926.4</ele>
      </trkpt>
      <trkpt lat="-21.03505" lon="55.39813">
        <ele>925.3</ele>
      </trkpt>
      <trkpt lat="-21.03502" lon="55.39816">
        <ele>924.9</ele>
      </trkpt>
      <trkpt lat="-21.03502" lon="55.39818">
        <ele>925.4</ele>
      </trkpt>
      <trkpt lat="-21.03501" lon="55.39821">
        <ele>925.7</ele>
      </trkpt>
      <trkpt lat="-21.03496" lon="55.39826">
        <ele>925</ele>
      </trkpt>
      <trkpt lat="-21.03496" lon="55.39828">
        <ele>925.4</ele>
      </trkpt>
      <trkpt lat="-21.03488" lon="55.39829">
        <ele>922.8</ele>
      </trkpt>
      <trkpt lat="-21.03483" lon="55.3983">
        <ele>921.2</ele>
      </trkpt>
      <trkpt lat="-21.03479" lon="55.39832">
        <ele>920.2</ele>
      </trkpt>
      <trkpt lat="-21.03476" lon="55.39835">
        <ele>919.6</ele>
      </trkpt>
      <trkpt lat="-21.03471" lon="55.39838">
        <ele>918.3</ele>
      </trkpt>
      <trkpt lat="-21.03467" lon="55.39841">
        <ele>917.3</ele>
      </trkpt>
      <trkpt lat="-21.0346" lon="55.39843">
        <ele>915</ele>
      </trkpt>
      <trkpt lat="-21.03454" lon="55.39842">
        <ele>912.7</ele>
      </trkpt>
      <trkpt lat="-21.03451" lon="55.39844">
        <ele>911.9</ele>
      </trkpt>
      <trkpt lat="-21.0345" lon="55.39848">
        <ele>912</ele>
      </trkpt>
      <trkpt lat="-21.03448" lon="55.39852">
        <ele>911.9</ele>
      </trkpt>
      <trkpt lat="-21.03446" lon="55.39856">
        <ele>911.7</ele>
      </trkpt>
      <trkpt lat="-21.03442" lon="55.39857">
        <ele>910.3</ele>
      </trkpt>
      <trkpt lat="-21.0344" lon="55.39859">
        <ele>909.8</ele>
      </trkpt>
      <trkpt lat="-21.03437" lon="55.39862">
        <ele>909.1</ele>
      </trkpt>
      <trkpt lat="-21.03436" lon="55.39866">
        <ele>909.2</ele>
      </trkpt>
      <trkpt lat="-21.03435" lon="55.39869">
        <ele>909.3</ele>
      </trkpt>
      <trkpt lat="-21.03432" lon="55.39872">
        <ele>908.5</ele>
      </trkpt>
      <trkpt lat="-21.03429" lon="55.39874">
        <ele>907.6</ele>
      </trkpt>
      <trkpt lat="-21.03423" lon="55.39874">
        <ele>905.3</ele>
      </trkpt>
      <trkpt lat="-21.03409" lon="55.3987">
        <ele>899.8</ele>
      </trkpt>
      <trkpt lat="-21.03397" lon="55.39866">
        <ele>895.3</ele>
      </trkpt>
      <trkpt lat="-21.03384" lon="55.39865">
        <ele>890.8</ele>
      </trkpt>
      <trkpt lat="-21.03378" lon="55.39865">
        <ele>888.7</ele>
      </trkpt>
      <trkpt lat="-21.03372" lon="55.3987">
        <ele>887.2</ele>
      </trkpt>
      <trkpt lat="-21.03367" lon="55.39872">
        <ele>885.7</ele>
      </trkpt>
      <trkpt lat="-21.03364" lon="55.39876">
        <ele>885.1</ele>
      </trkpt>
      <trkpt lat="-21.03359" lon="55.39881">
        <ele>883.8</ele>
      </trkpt>
      <trkpt lat="-21.03355" lon="55.39881">
        <ele>882.5</ele>
      </trkpt>
      <trkpt lat="-21.03352" lon="55.39885">
        <ele>881.8</ele>
      </trkpt>
      <trkpt lat="-21.03351" lon="55.3989">
        <ele>881.9</ele>
      </trkpt>
      <trkpt lat="-21.03348" lon="55.39891">
        <ele>881</ele>
      </trkpt>
      <trkpt lat="-21.03344" lon="55.3989">
        <ele>879.5</ele>
      </trkpt>
      <trkpt lat="-21.0334" lon="55.39887">
        <ele>877.8</ele>
      </trkpt>
      <trkpt lat="-21.03333" lon="55.39886">
        <ele>875.3</ele>
      </trkpt>
      <trkpt lat="-21.03326" lon="55.39888">
        <ele>873.3</ele>
      </trkpt>
      <trkpt lat="-21.03323" lon="55.3989">
        <ele>872.5</ele>
      </trkpt>
      <trkpt lat="-21.03325" lon="55.39892">
        <ele>873.3</ele>
      </trkpt>
      <trkpt lat="-21.03327" lon="55.39895">
        <ele>874.2</ele>
      </trkpt>
      <trkpt lat="-21.03325" lon="55.39895">
        <ele>873.5</ele>
      </trkpt>
      <trkpt lat="-21.03323" lon="55.39898">
        <ele>873.1</ele>
      </trkpt>
      <trkpt lat="-21.03323" lon="55.399">
        <ele>873.3</ele>
      </trkpt>
      <trkpt lat="-21.03326" lon="55.39902">
        <ele>874.4</ele>
      </trkpt>
      <trkpt lat="-21.0333" lon="55.39903">
        <ele>875.8</ele>
      </trkpt>
      <trkpt lat="-21.03336" lon="55.3991">
        <ele>878.4</ele>
      </trkpt>
      <trkpt lat="-21.03347" lon="55.39916">
        <ele>882.9</ele>
      </trkpt>
      <trkpt lat="-21.03352" lon="55.39917">
        <ele>884.7</ele>
      </trkpt>
      <trkpt lat="-21.03352" lon="55.39923">
        <ele>884.8</ele>
      </trkpt>
      <trkpt lat="-21.03352" lon="55.39926">
        <ele>884.9</ele>
      </trkpt>
      <trkpt lat="-21.03351" lon="55.39928">
        <ele>884.6</ele>
      </trkpt>
      <trkpt lat="-21.03354" lon="55.39929">
        <ele>885.7</ele>
      </trkpt>
      <trkpt lat="-21.03352" lon="55.39932">
        <ele>885</ele>
      </trkpt>
      <trkpt lat="-21.03348" lon="55.39935">
        <ele>883.6</ele>
      </trkpt>
      <trkpt lat="-21.03351" lon="55.39938">
        <ele>884.7</ele>
      </trkpt>
      <trkpt lat="-21.03365" lon="55.39943">
        <ele>890</ele>
      </trkpt>
      <trkpt lat="-21.03376" lon="55.39943">
        <ele>894</ele>
      </trkpt>
      <trkpt lat="-21.03384" lon="55.39942">
        <ele>896.9</ele>
      </trkpt>
      <trkpt lat="-21.03384" lon="55.39947">
        <ele>897</ele>
      </trkpt>
      <trkpt lat="-21.03384" lon="55.3995">
        <ele>897.1</ele>
      </trkpt>
      <trkpt lat="-21.03387" lon="55.39955">
        <ele>898.4</ele>
      </trkpt>
      <trkpt lat="-21.03385" lon="55.39962">
        <ele>897.8</ele>
      </trkpt>
      <trkpt lat="-21.03387" lon="55.39961">
        <ele>898.5</ele>
      </trkpt>
      <trkpt lat="-21.0339" lon="55.39961">
        <ele>899.7</ele>
      </trkpt>
      <trkpt lat="-21.03398" lon="55.39953">
        <ele>902.4</ele>
      </trkpt>
      <trkpt lat="-21.03411" lon="55.39954">
        <ele>907.2</ele>
      </trkpt>
      <trkpt lat="-21.03413" lon="55.39957">
        <ele>908.1</ele>
      </trkpt>
      <trkpt lat="-21.0341" lon="55.39965">
        <ele>907.2</ele>
      </trkpt>
      <trkpt lat="-21.03413" lon="55.39971">
        <ele>908.6</ele>
      </trkpt>
      <trkpt lat="-21.03419" lon="55.39973">
        <ele>911</ele>
      </trkpt>
      <trkpt lat="-21.03417" lon="55.39975">
        <ele>910.2</ele>
      </trkpt>
      <trkpt lat="-21.03414" lon="55.3998">
        <ele>909.3</ele>
      </trkpt>
      <trkpt lat="-21.03414" lon="55.39983">
        <ele>909.4</ele>
      </trkpt>
      <trkpt lat="-21.03417" lon="55.39988">
        <ele>910.7</ele>
      </trkpt>
      <trkpt lat="-21.03424" lon="55.39987">
        <ele>913.7</ele>
      </trkpt>
      <trkpt lat="-21.03428" lon="55.39987">
        <ele>915.5</ele>
      </trkpt>
      <trkpt lat="-21.03429" lon="55.39991">
        <ele>916.1</ele>
      </trkpt>
      <trkpt lat="-21.03434" lon="55.40001">
        <ele>918.6</ele>
      </trkpt>
      <trkpt lat="-21.03434" lon="55.40006">
        <ele>918.2</ele>
      </trkpt>
      <trkpt lat="-21.03436" lon="55.40013">
        <ele>918.5</ele>
      </trkpt>
      <trkpt lat="-21.03445" lon="55.40015">
        <ele>922.3</ele>
      </trkpt>
      <trkpt lat="-21.03448" lon="55.40014">
        <ele>923.7</ele>
      </trkpt>
      <trkpt lat="-21.03452" lon="55.40018">
        <ele>925.1</ele>
      </trkpt>
      <trkpt lat="-21.0346" lon="55.40018">
        <ele>928.6</ele>
      </trkpt>
      <trkpt lat="-21.03465" lon="55.40016">
        <ele>931</ele>
      </trkpt>
      <trkpt lat="-21.03467" lon="55.40017">
        <ele>931.8</ele>
      </trkpt>
      <trkpt lat="-21.03469" lon="55.40019">
        <ele>932.5</ele>
      </trkpt>
      <trkpt lat="-21.03469" lon="55.40024">
        <ele>932</ele>
      </trkpt>
      <trkpt lat="-21.03459" lon="55.4003">
        <ele>927.1</ele>
      </trkpt>
      <trkpt lat="-21.03452" lon="55.40033">
        <ele>923.7</ele>
      </trkpt>
      <trkpt lat="-21.03441" lon="55.40038">
        <ele>918.5</ele>
      </trkpt>
      <trkpt lat="-21.03435" lon="55.40035">
        <ele>916.1</ele>
      </trkpt>
      <trkpt lat="-21.03431" lon="55.40043">
        <ele>913.7</ele>
      </trkpt>
      <trkpt lat="-21.03418" lon="55.40046">
        <ele>907.7</ele>
      </trkpt>
      <trkpt lat="-21.0341" lon="55.40046">
        <ele>904.5</ele>
      </trkpt>
      <trkpt lat="-21.03404" lon="55.40045">
        <ele>902.3</ele>
      </trkpt>
      <trkpt lat="-21.034" lon="55.40046">
        <ele>900.6</ele>
      </trkpt>
      <trkpt lat="-21.03394" lon="55.4005">
        <ele>897.9</ele>
      </trkpt>
      <trkpt lat="-21.03391" lon="55.40051">
        <ele>896.7</ele>
      </trkpt>
      <trkpt lat="-21.03387" lon="55.40051">
        <ele>895.1</ele>
      </trkpt>
      <trkpt lat="-21.03384" lon="55.40051">
        <ele>893.9</ele>
      </trkpt>
      <trkpt lat="-21.03384" lon="55.40052">
        <ele>893.8</ele>
      </trkpt>
      <trkpt lat="-21.03386" lon="55.40054">
        <ele>894.4</ele>
      </trkpt>
      <trkpt lat="-21.03388" lon="55.40056">
        <ele>895.1</ele>
      </trkpt>
      <trkpt lat="-21.03387" lon="55.40058">
        <ele>894.5</ele>
      </trkpt>
      <trkpt lat="-21.03384" lon="55.40057">
        <ele>893.4</ele>
      </trkpt>
      <trkpt lat="-21.03379" lon="55.40055">
        <ele>891.6</ele>
      </trkpt>
      <trkpt lat="-21.03372" lon="55.40053">
        <ele>889.1</ele>
      </trkpt>
      <trkpt lat="-21.0337" lon="55.4005">
        <ele>888.5</ele>
      </trkpt>
      <trkpt lat="-21.03371" lon="55.40047">
        <ele>889.2</ele>
      </trkpt>
      <trkpt lat="-21.03371" lon="55.40043">
        <ele>889.6</ele>
      </trkpt>
      <trkpt lat="-21.03369" lon="55.40039">
        <ele>889.2</ele>
      </trkpt>
      <trkpt lat="-21.03366" lon="55.40039">
        <ele>888</ele>
      </trkpt>
      <trkpt lat="-21.03361" lon="55.40041">
        <ele>885.9</ele>
      </trkpt>
      <trkpt lat="-21.03359" lon="55.40043">
        <ele>884.9</ele>
      </trkpt>
      <trkpt lat="-21.03355" lon="55.40045">
        <ele>883.1</ele>
      </trkpt>
      <trkpt lat="-21.03352" lon="55.40045">
        <ele>882</ele>
      </trkpt>
      <trkpt lat="-21.03346" lon="55.40045">
        <ele>879.6</ele>
      </trkpt>
      <trkpt lat="-21.03342" lon="55.40041">
        <ele>878.4</ele>
      </trkpt>
      <trkpt lat="-21.03339" lon="55.40037">
        <ele>877.7</ele>
      </trkpt>
      <trkpt lat="-21.03336" lon="55.40036">
        <ele>876.6</ele>
      </trkpt>
      <trkpt lat="-21.03335" lon="55.40038">
        <ele>876</ele>
      </trkpt>
      <trkpt lat="-21.03337" lon="55.40041">
        <ele>876.5</ele>
      </trkpt>
      <trkpt lat="-21.03336" lon="55.40042">
        <ele>876</ele>
      </trkpt>
      <trkpt lat="-21.03334" lon="55.40041">
        <ele>875.3</ele>
      </trkpt>
      <trkpt lat="-21.03331" lon="55.40035">
        <ele>874.8</ele>
      </trkpt>
      <trkpt lat="-21.03328" lon="55.40032">
        <ele>874</ele>
      </trkpt>
      <trkpt lat="-21.03324" lon="55.40029">
        <ele>872.8</ele>
      </trkpt>
      <trkpt lat="-21.03321" lon="55.40027">
        <ele>871.9</ele>
      </trkpt>
      <trkpt lat="-21.03315" lon="55.40024">
        <ele>870</ele>
      </trkpt>
      <trkpt lat="-21.03313" lon="55.40022">
        <ele>869.5</ele>
      </trkpt>
      <trkpt lat="-21.0331" lon="55.40021">
        <ele>868.5</ele>
      </trkpt>
      <trkpt lat="-21.03311" lon="55.40025">
        <ele>868.5</ele>
      </trkpt>
      <trkpt lat="-21.03312" lon="55.4003">
        <ele>868.3</ele>
      </trkpt>
      <trkpt lat="-21.03312" lon="55.40032">
        <ele>868.1</ele>
      </trkpt>
      <trkpt lat="-21.0331" lon="55.40033">
        <ele>867.3</ele>
      </trkpt>
      <trkpt lat="-21.03304" lon="55.4003">
        <ele>865.4</ele>
      </trkpt>
      <trkpt lat="-21.03299" lon="55.40029">
        <ele>863.7</ele>
      </trkpt>
      <trkpt lat="-21.03295" lon="55.40028">
        <ele>862.4</ele>
      </trkpt>
      <trkpt lat="-21.03293" lon="55.4003">
        <ele>861.4</ele>
      </trkpt>
      <trkpt lat="-21.03292" lon="55.40034">
        <ele>860.7</ele>
      </trkpt>
      <trkpt lat="-21.03293" lon="55.40039">
        <ele>860.5</ele>
      </trkpt>
      <trkpt lat="-21.03297" lon="55.40044">
        <ele>861.5</ele>
      </trkpt>
      <trkpt lat="-21.03301" lon="55.40048">
        <ele>862.5</ele>
      </trkpt>
      <trkpt lat="-21.03303" lon="55.40051">
        <ele>863</ele>
      </trkpt>
      <trkpt lat="-21.03302" lon="55.40053">
        <ele>862.4</ele>
      </trkpt>
      <trkpt lat="-21.03301" lon="55.40053">
        <ele>862</ele>
      </trkpt>
      <trkpt lat="-21.03299" lon="55.40051">
        <ele>861.5</ele>
      </trkpt>
      <trkpt lat="-21.03297" lon="55.4005">
        <ele>860.9</ele>
      </trkpt>
      <trkpt lat="-21.03297" lon="55.40053">
        <ele>860.6</ele>
      </trkpt>
      <trkpt lat="-21.03299" lon="55.40056">
        <ele>861</ele>
      </trkpt>
      <trkpt lat="-21.03301" lon="55.40062">
        <ele>861.1</ele>
      </trkpt>
      <trkpt lat="-21.03303" lon="55.40064">
        <ele>861.7</ele>
      </trkpt>
      <trkpt lat="-21.03304" lon="55.40067">
        <ele>861.7</ele>
      </trkpt>
      <trkpt lat="-21.03304" lon="55.40069">
        <ele>861.5</ele>
      </trkpt>
      <trkpt lat="-21.03303" lon="55.40071">
        <ele>861</ele>
      </trkpt>
      <trkpt lat="-21.03303" lon="55.40074">
        <ele>860.7</ele>
      </trkpt>
      <trkpt lat="-21.03306" lon="55.40078">
        <ele>861.4</ele>
      </trkpt>
      <trkpt lat="-21.03308" lon="55.40079">
        <ele>862</ele>
      </trkpt>
      <trkpt lat="-21.03309" lon="55.40081">
        <ele>862.2</ele>
      </trkpt>
      <trkpt lat="-21.03306" lon="55.40085">
        <ele>860.5</ele>
      </trkpt>
      <trkpt lat="-21.03297" lon="55.4008">
        <ele>857.8</ele>
      </trkpt>
      <trkpt lat="-21.03292" lon="55.40071">
        <ele>856.9</ele>
      </trkpt>
      <trkpt lat="-21.0329" lon="55.40072">
        <ele>856</ele>
      </trkpt>
      <trkpt lat="-21.03285" lon="55.40068">
        <ele>854.6</ele>
      </trkpt>
      <trkpt lat="-21.0328" lon="55.40068">
        <ele>852.7</ele>
      </trkpt>
      <trkpt lat="-21.03277" lon="55.4007">
        <ele>851.4</ele>
      </trkpt>
      <trkpt lat="-21.03275" lon="55.40071">
        <ele>850.6</ele>
      </trkpt>
      <trkpt lat="-21.03273" lon="55.40072">
        <ele>849.7</ele>
      </trkpt>
      <trkpt lat="-21.03272" lon="55.40074">
        <ele>849.2</ele>
      </trkpt>
      <trkpt lat="-21.03272" lon="55.40075">
        <ele>849.1</ele>
      </trkpt>
      <trkpt lat="-21.03275" lon="55.4008">
        <ele>849.6</ele>
      </trkpt>
      <trkpt lat="-21.03277" lon="55.40083">
        <ele>850.1</ele>
      </trkpt>
      <trkpt lat="-21.0328" lon="55.40085">
        <ele>850.8</ele>
      </trkpt>
      <trkpt lat="-21.03282" lon="55.40087">
        <ele>851.2</ele>
      </trkpt>
      <trkpt lat="-21.03283" lon="55.40091">
        <ele>850.8</ele>
      </trkpt>
      <trkpt lat="-21.03281" lon="55.40092">
        <ele>849.9</ele>
      </trkpt>
      <trkpt lat="-21.03278" lon="55.40092">
        <ele>848.8</ele>
      </trkpt>
      <trkpt lat="-21.03276" lon="55.40091">
        <ele>848.2</ele>
      </trkpt>
      <trkpt lat="-21.03273" lon="55.4009">
        <ele>847.3</ele>
      </trkpt>
      <trkpt lat="-21.03271" lon="55.40088">
        <ele>846.9</ele>
      </trkpt>
      <trkpt lat="-21.03266" lon="55.40087">
        <ele>845.3</ele>
      </trkpt>
      <trkpt lat="-21.03266" lon="55.40089">
        <ele>844.9</ele>
      </trkpt>
      <trkpt lat="-21.03269" lon="55.40092">
        <ele>845.4</ele>
      </trkpt>
      <trkpt lat="-21.03276" lon="55.40098">
        <ele>846.9</ele>
      </trkpt>
      <trkpt lat="-21.03279" lon="55.401">
        <ele>847.7</ele>
      </trkpt>
      <trkpt lat="-21.03283" lon="55.40101">
        <ele>849</ele>
      </trkpt>
      <trkpt lat="-21.03287" lon="55.40101">
        <ele>850.5</ele>
      </trkpt>
      <trkpt lat="-21.0329" lon="55.40101">
        <ele>851.6</ele>
      </trkpt>
      <trkpt lat="-21.03295" lon="55.40101">
        <ele>853.5</ele>
      </trkpt>
      <trkpt lat="-21.03299" lon="55.40102">
        <ele>854.8</ele>
      </trkpt>
      <trkpt lat="-21.03303" lon="55.40103">
        <ele>856.1</ele>
      </trkpt>
      <trkpt lat="-21.03306" lon="55.40105">
        <ele>856.8</ele>
      </trkpt>
      <trkpt lat="-21.03309" lon="55.40106">
        <ele>857.8</ele>
      </trkpt>
      <trkpt lat="-21.03312" lon="55.40107">
        <ele>858.7</ele>
      </trkpt>
      <trkpt lat="-21.03315" lon="55.40109">
        <ele>859.5</ele>
      </trkpt>
      <trkpt lat="-21.03318" lon="55.4011">
        <ele>860.4</ele>
      </trkpt>
      <trkpt lat="-21.0332" lon="55.40111">
        <ele>861</ele>
      </trkpt>
      <trkpt lat="-21.03322" lon="55.40112">
        <ele>861.6</ele>
      </trkpt>
      <trkpt lat="-21.03323" lon="55.40115">
        <ele>861.4</ele>
        <extensions>
          <visugpx:TrkExtension xmlns:visugpx="https://www.visugpx.com/editgpx/">
            <visugpx:node>19</visugpx:node>
            </visugpx:TrkExtension>
        </extensions>
      </trkpt>
      <trkpt lat="-21.03323" lon="55.4012">
        <ele>860.5</ele>
      </trkpt>
      <trkpt lat="-21.0332" lon="55.4014">
        <ele>855.7</ele>
      </trkpt>
      <trkpt lat="-21.03321" lon="55.4014">
        <ele>856.1</ele>
      </trkpt>
      <trkpt lat="-21.03338" lon="55.40143">
        <ele>862</ele>
      </trkpt>
      <trkpt lat="-21.03341" lon="55.4015">
        <ele>861.9</ele>
      </trkpt>
      <trkpt lat="-21.03358" lon="55.40162">
        <ele>866</ele>
      </trkpt>
      <trkpt lat="-21.03367" lon="55.40167">
        <ele>868.4</ele>
      </trkpt>
      <trkpt lat="-21.03385" lon="55.40173">
        <ele>873.5</ele>
      </trkpt>
      <trkpt lat="-21.03391" lon="55.40188">
        <ele>871.6</ele>
      </trkpt>
      <trkpt lat="-21.03396" lon="55.40197">
        <ele>871</ele>
      </trkpt>
      <trkpt lat="-21.03408" lon="55.40211">
        <ele>871.6</ele>
      </trkpt>
      <trkpt lat="-21.03407" lon="55.40224">
        <ele>867.7</ele>
      </trkpt>
      <trkpt lat="-21.03407" lon="55.40228">
        <ele>866.6</ele>
      </trkpt>
      <trkpt lat="-21.03406" lon="55.40241">
        <ele>862.6</ele>
      </trkpt>
      <trkpt lat="-21.03409" lon="55.40247">
        <ele>862.1</ele>
      </trkpt>
      <trkpt lat="-21.03418" lon="55.40265">
        <ele>859.6</ele>
      </trkpt>
      <trkpt lat="-21.03412" lon="55.40263">
        <ele>858.1</ele>
      </trkpt>
      <trkpt lat="-21.03409" lon="55.40274">
        <ele>853.5</ele>
      </trkpt>
      <trkpt lat="-21.03405" lon="55.40282">
        <ele>849.5</ele>
      </trkpt>
      <trkpt lat="-21.03409" lon="55.40285">
        <ele>849.9</ele>
      </trkpt>
      <trkpt lat="-21.03415" lon="55.40291">
        <ele>850.1</ele>
      </trkpt>
      <trkpt lat="-21.03416" lon="55.40306">
        <ele>845.6</ele>
      </trkpt>
      <trkpt lat="-21.03419" lon="55.40313">
        <ele>844.4</ele>
      </trkpt>
      <trkpt lat="-21.03423" lon="55.40317">
        <ele>844.4</ele>
        <extensions>
          <visugpx:TrkExtension xmlns:visugpx="https://www.visugpx.com/editgpx/">
            <visugpx:node>20</visugpx:node>
            </visugpx:TrkExtension>
        </extensions>
      </trkpt>
      <trkpt lat="-21.03419" lon="55.40313">
        <ele>844.4</ele>
      </trkpt>
      <trkpt lat="-21.03412" lon="55.40311">
        <ele>842.6</ele>
      </trkpt>
      <trkpt lat="-21.03406" lon="55.4031">
        <ele>840.8</ele>
      </trkpt>
      <trkpt lat="-21.03401" lon="55.40308">
        <ele>839.7</ele>
      </trkpt>
      <trkpt lat="-21.03394" lon="55.40307">
        <ele>837.6</ele>
      </trkpt>
      <trkpt lat="-21.03386" lon="55.40307">
        <ele>834.7</ele>
      </trkpt>
      <trkpt lat="-21.03378" lon="55.40308">
        <ele>831.6</ele>
      </trkpt>
      <trkpt lat="-21.0337" lon="55.40307">
        <ele>829.1</ele>
      </trkpt>
      <trkpt lat="-21.0336" lon="55.40306">
        <ele>825.9</ele>
      </trkpt>
      <trkpt lat="-21.03353" lon="55.40306">
        <ele>823.4</ele>
      </trkpt>
      <trkpt lat="-21.03344" lon="55.40305">
        <ele>820.6</ele>
      </trkpt>
      <trkpt lat="-21.03335" lon="55.40304">
        <ele>817.7</ele>
      </trkpt>
      <trkpt lat="-21.03328" lon="55.40303">
        <ele>815.5</ele>
      </trkpt>
      <trkpt lat="-21.03321" lon="55.40301">
        <ele>813.5</ele>
      </trkpt>
      <trkpt lat="-21.03315" lon="55.40298">
        <ele>812.2</ele>
      </trkpt>
      <trkpt lat="-21.0331" lon="55.40295">
        <ele>811.3</ele>
      </trkpt>
      <trkpt lat="-21.03306" lon="55.40289">
        <ele>811.6</ele>
      </trkpt>
      <trkpt lat="-21.03303" lon="55.40285">
        <ele>811.7</ele>
      </trkpt>
      <trkpt lat="-21.033" lon="55.40279">
        <ele>812.4</ele>
      </trkpt>
      <trkpt lat="-21.03296" lon="55.40271">
        <ele>813.3</ele>
      </trkpt>
      <trkpt lat="-21.03292" lon="55.40265">
        <ele>813.6</ele>
      </trkpt>
      <trkpt lat="-21.03288" lon="55.40261">
        <ele>813.3</ele>
      </trkpt>
      <trkpt lat="-21.03283" lon="55.40256">
        <ele>812.9</ele>
      </trkpt>
      <trkpt lat="-21.03279" lon="55.40253">
        <ele>812.2</ele>
      </trkpt>
      <trkpt lat="-21.03274" lon="55.4025">
        <ele>811.2</ele>
      </trkpt>
      <trkpt lat="-21.03268" lon="55.40248">
        <ele>809.4</ele>
      </trkpt>
      <trkpt lat="-21.03264" lon="55.40246">
        <ele>808.4</ele>
      </trkpt>
      <trkpt lat="-21.03259" lon="55.40241">
        <ele>807.8</ele>
      </trkpt>
      <trkpt lat="-21.03258" lon="55.4024">
        <ele>807.7</ele>
      </trkpt>
      <trkpt lat="-21.03256" lon="55.40239">
        <ele>807.2</ele>
      </trkpt>
      <trkpt lat="-21.03252" lon="55.40238">
        <ele>805.9</ele>
      </trkpt>
      <trkpt lat="-21.03248" lon="55.40237">
        <ele>804.6</ele>
      </trkpt>
      <trkpt lat="-21.03245" lon="55.40237">
        <ele>803.4</ele>
      </trkpt>
      <trkpt lat="-21.03243" lon="55.40236">
        <ele>802.9</ele>
      </trkpt>
      <trkpt lat="-21.03242" lon="55.40233">
        <ele>803.2</ele>
      </trkpt>
      <trkpt lat="-21.03241" lon="55.4023">
        <ele>803.6</ele>
      </trkpt>
      <trkpt lat="-21.03236" lon="55.40225">
        <ele>802.9</ele>
      </trkpt>
      <trkpt lat="-21.03231" lon="55.4022">
        <ele>802.3</ele>
      </trkpt>
      <trkpt lat="-21.03224" lon="55.40215">
        <ele>800.8</ele>
      </trkpt>
      <trkpt lat="-21.03221" lon="55.40214">
        <ele>799.8</ele>
      </trkpt>
      <trkpt lat="-21.03208" lon="55.40206">
        <ele>796.7</ele>
      </trkpt>
      <trkpt lat="-21.03198" lon="55.40201">
        <ele>794.1</ele>
      </trkpt>
      <trkpt lat="-21.03195" lon="55.40201">
        <ele>792.9</ele>
      </trkpt>
      <trkpt lat="-21.03193" lon="55.40203">
        <ele>791.5</ele>
      </trkpt>
      <trkpt lat="-21.03193" lon="55.40207">
        <ele>790.4</ele>
      </trkpt>
      <trkpt lat="-21.03194" lon="55.4021">
        <ele>790</ele>
      </trkpt>
      <trkpt lat="-21.03197" lon="55.40216">
        <ele>789.6</ele>
      </trkpt>
      <trkpt lat="-21.03203" lon="55.40224">
        <ele>789.9</ele>
      </trkpt>
      <trkpt lat="-21.03217" lon="55.40241">
        <ele>791</ele>
      </trkpt>
      <trkpt lat="-21.03219" lon="55.40244">
        <ele>791</ele>
      </trkpt>
      <trkpt lat="-21.03219" lon="55.40245">
        <ele>790.7</ele>
      </trkpt>
      <trkpt lat="-21.0323" lon="55.40257">
        <ele>791.8</ele>
      </trkpt>
      <trkpt lat="-21.03234" lon="55.40261">
        <ele>792.3</ele>
      </trkpt>
      <trkpt lat="-21.03235" lon="55.40265">
        <ele>791.6</ele>
      </trkpt>
      <trkpt lat="-21.03231" lon="55.40268">
        <ele>789.1</ele>
      </trkpt>
      <trkpt lat="-21.03224" lon="55.40266">
        <ele>786.8</ele>
      </trkpt>
      <trkpt lat="-21.03222" lon="55.40264">
        <ele>786.6</ele>
      </trkpt>
      <trkpt lat="-21.03216" lon="55.4026">
        <ele>785.3</ele>
      </trkpt>
      <trkpt lat="-21.03206" lon="55.40256">
        <ele>782.4</ele>
      </trkpt>
      <trkpt lat="-21.032" lon="55.40251">
        <ele>781.3</ele>
      </trkpt>
      <trkpt lat="-21.03191" lon="55.40248">
        <ele>778.5</ele>
      </trkpt>
      <trkpt lat="-21.03181" lon="55.40251">
        <ele>773.6</ele>
      </trkpt>
      <trkpt lat="-21.03174" lon="55.40253">
        <ele>770.2</ele>
      </trkpt>
      <trkpt lat="-21.0317" lon="55.40256">
        <ele>767.7</ele>
      </trkpt>
      <trkpt lat="-21.03165" lon="55.40255">
        <ele>765.8</ele>
      </trkpt>
      <trkpt lat="-21.03152" lon="55.40249">
        <ele>761.4</ele>
      </trkpt>
      <trkpt lat="-21.03148" lon="55.40251">
        <ele>759</ele>
      </trkpt>
      <trkpt lat="-21.03145" lon="55.40258">
        <ele>755.7</ele>
      </trkpt>
      <trkpt lat="-21.03141" lon="55.40255">
        <ele>754.6</ele>
      </trkpt>
      <trkpt lat="-21.03135" lon="55.40252">
        <ele>752.6</ele>
      </trkpt>
      <trkpt lat="-21.03129" lon="55.4025">
        <ele>750.4</ele>
      </trkpt>
      <trkpt lat="-21.03124" lon="55.4025">
        <ele>748</ele>
      </trkpt>
      <trkpt lat="-21.03116" lon="55.4025">
        <ele>744.3</ele>
      </trkpt>
      <trkpt lat="-21.03111" lon="55.40252">
        <ele>741.4</ele>
      </trkpt>
      <trkpt lat="-21.03104" lon="55.40254">
        <ele>737.6</ele>
      </trkpt>
      <trkpt lat="-21.03103" lon="55.40254">
        <ele>737.1</ele>
      </trkpt>
      <trkpt lat="-21.031" lon="55.40251">
        <ele>736.5</ele>
        <extensions>
          <visugpx:TrkExtension xmlns:visugpx="https://www.visugpx.com/editgpx/">
            <visugpx:node>21</visugpx:node>
            </visugpx:TrkExtension>
        </extensions>
      </trkpt>
      <trkpt lat="-21.03098" lon="55.40249">
        <ele>736.1</ele>
      </trkpt>
      <trkpt lat="-21.03088" lon="55.40244">
        <ele>732.8</ele>
      </trkpt>
      <trkpt lat="-21.0308" lon="55.40243">
        <ele>729</ele>
      </trkpt>
      <trkpt lat="-21.0307" lon="55.40244">
        <ele>723.1</ele>
      </trkpt>
      <trkpt lat="-21.03058" lon="55.40247">
        <ele>715.5</ele>
      </trkpt>
      <trkpt lat="-21.03053" lon="55.40243">
        <ele>713.8</ele>
      </trkpt>
      <trkpt lat="-21.03051" lon="55.40241">
        <ele>713.2</ele>
      </trkpt>
      <trkpt lat="-21.03026" lon="55.40218">
        <ele>705.2</ele>
      </trkpt>
      <trkpt lat="-21.03006" lon="55.402">
        <ele>698.6</ele>
      </trkpt>
      <trkpt lat="-21.02988" lon="55.40182">
        <ele>691.7</ele>
      </trkpt>
      <trkpt lat="-21.02978" lon="55.40175">
        <ele>686.6</ele>
      </trkpt>
      <trkpt lat="-21.02968" lon="55.40167">
        <ele>681.6</ele>
      </trkpt>
      <trkpt lat="-21.02958" lon="55.40157">
        <ele>677.3</ele>
      </trkpt>
      <trkpt lat="-21.02944" lon="55.40147">
        <ele>670.1</ele>
      </trkpt>
      <trkpt lat="-21.02938" lon="55.40145">
        <ele>666.5</ele>
      </trkpt>
      <trkpt lat="-21.02922" lon="55.4014">
        <ele>656.7</ele>
      </trkpt>
      <trkpt lat="-21.02911" lon="55.40141">
        <ele>648</ele>
      </trkpt>
      <trkpt lat="-21.02905" lon="55.40144">
        <ele>642.1</ele>
      </trkpt>
      <trkpt lat="-21.02901" lon="55.40148">
        <ele>637.7</ele>
      </trkpt>
      <trkpt lat="-21.02898" lon="55.40155">
        <ele>633.3</ele>
      </trkpt>
      <trkpt lat="-21.02896" lon="55.4016">
        <ele>630.4</ele>
      </trkpt>
      <trkpt lat="-21.02892" lon="55.40163">
        <ele>626.2</ele>
      </trkpt>
      <trkpt lat="-21.02889" lon="55.40165">
        <ele>623.2</ele>
      </trkpt>
      <trkpt lat="-21.02885" lon="55.40164">
        <ele>620.1</ele>
      </trkpt>
      <trkpt lat="-21.02883" lon="55.40161">
        <ele>619.2</ele>
      </trkpt>
      <trkpt lat="-21.0288" lon="55.40156">
        <ele>617.9</ele>
      </trkpt>
      <trkpt lat="-21.02877" lon="55.40151">
        <ele>616.6</ele>
      </trkpt>
      <trkpt lat="-21.02875" lon="55.40147">
        <ele>616</ele>
      </trkpt>
      <trkpt lat="-21.02872" lon="55.40143">
        <ele>614.4</ele>
      </trkpt>
      <trkpt lat="-21.02869" lon="55.40143">
        <ele>611.9</ele>
      </trkpt>
      <trkpt lat="-21.02866" lon="55.40146">
        <ele>608.6</ele>
      </trkpt>
      <trkpt lat="-21.02863" lon="55.40152">
        <ele>604.6</ele>
      </trkpt>
      <trkpt lat="-21.02862" lon="55.40157">
        <ele>602.5</ele>
      </trkpt>
      <trkpt lat="-21.02862" lon="55.40161">
        <ele>601.5</ele>
      </trkpt>
      <trkpt lat="-21.02863" lon="55.40166">
        <ele>601.1</ele>
      </trkpt>
      <trkpt lat="-21.02864" lon="55.4017">
        <ele>601.2</ele>
      </trkpt>
      <trkpt lat="-21.02863" lon="55.40179">
        <ele>598.7</ele>
      </trkpt>
      <trkpt lat="-21.02861" lon="55.40184">
        <ele>596.1</ele>
      </trkpt>
      <trkpt lat="-21.02861" lon="55.4019">
        <ele>595</ele>
      </trkpt>
      <trkpt lat="-21.02858" lon="55.40196">
        <ele>591.5</ele>
      </trkpt>
      <trkpt lat="-21.02857" lon="55.40199">
        <ele>590.2</ele>
      </trkpt>
      <trkpt lat="-21.02852" lon="55.40201">
        <ele>585.8</ele>
      </trkpt>
      <trkpt lat="-21.02849" lon="55.40202">
        <ele>583.2</ele>
      </trkpt>
      <trkpt lat="-21.02846" lon="55.40203">
        <ele>580.6</ele>
      </trkpt>
      <trkpt lat="-21.02843" lon="55.40202">
        <ele>578.3</ele>
      </trkpt>
      <trkpt lat="-21.0284" lon="55.40201">
        <ele>576</ele>
      </trkpt>
      <trkpt lat="-21.02838" lon="55.40199">
        <ele>574.7</ele>
      </trkpt>
      <trkpt lat="-21.02835" lon="55.40197">
        <ele>572.6</ele>
      </trkpt>
      <trkpt lat="-21.02833" lon="55.40194">
        <ele>571.4</ele>
      </trkpt>
      <trkpt lat="-21.02832" lon="55.40193">
        <ele>570.7</ele>
      </trkpt>
      <trkpt lat="-21.0283" lon="55.40194">
        <ele>568.7</ele>
      </trkpt>
      <trkpt lat="-21.02827" lon="55.40194">
        <ele>566</ele>
      </trkpt>
      <trkpt lat="-21.02823" lon="55.40194">
        <ele>562.4</ele>
      </trkpt>
      <trkpt lat="-21.02817" lon="55.40192">
        <ele>557.3</ele>
      </trkpt>
      <trkpt lat="-21.02812" lon="55.40192">
        <ele>552.8</ele>
      </trkpt>
      <trkpt lat="-21.02805" lon="55.40206">
        <ele>544.9</ele>
      </trkpt>
      <trkpt lat="-21.02797" lon="55.40221">
        <ele>536.5</ele>
      </trkpt>
      <trkpt lat="-21.02793" lon="55.40227">
        <ele>532.6</ele>
      </trkpt>
      <trkpt lat="-21.0279" lon="55.40232">
        <ele>529.6</ele>
      </trkpt>
      <trkpt lat="-21.02785" lon="55.40242">
        <ele>524.7</ele>
      </trkpt>
      <trkpt lat="-21.02785" lon="55.40243">
        <ele>524.6</ele>
        <extensions>
          <visugpx:TrkExtension xmlns:visugpx="https://www.visugpx.com/editgpx/">
            <visugpx:node>22</visugpx:node>
            </visugpx:TrkExtension>
        </extensions>
      </trkpt>
      <trkpt lat="-21.02782" lon="55.40249">
        <ele>521.8</ele>
      </trkpt>
      <trkpt lat="-21.02781" lon="55.40251">
        <ele>520.9</ele>
      </trkpt>
      <trkpt lat="-21.02782" lon="55.40252">
        <ele>521.8</ele>
      </trkpt>
      <trkpt lat="-21.02782" lon="55.40253">
        <ele>521.8</ele>
      </trkpt>
      <trkpt lat="-21.02783" lon="55.40255">
        <ele>522.6</ele>
      </trkpt>
      <trkpt lat="-21.02786" lon="55.40257">
        <ele>525</ele>
      </trkpt>
      <trkpt lat="-21.02789" lon="55.40259">
        <ele>527.4</ele>
      </trkpt>
      <trkpt lat="-21.0279" lon="55.4026">
        <ele>528.2</ele>
      </trkpt>
      <trkpt lat="-21.02791" lon="55.40262">
        <ele>529</ele>
      </trkpt>
      <trkpt lat="-21.0279" lon="55.40262">
        <ele>528.2</ele>
      </trkpt>
      <trkpt lat="-21.02789" lon="55.40262">
        <ele>527.4</ele>
      </trkpt>
      <trkpt lat="-21.02787" lon="55.40262">
        <ele>525.8</ele>
      </trkpt>
      <trkpt lat="-21.02785" lon="55.40262">
        <ele>524.3</ele>
      </trkpt>
      <trkpt lat="-21.02782" lon="55.40262">
        <ele>521.9</ele>
      </trkpt>
      <trkpt lat="-21.0278" lon="55.40261">
        <ele>520.3</ele>
      </trkpt>
      <trkpt lat="-21.02779" lon="55.40261">
        <ele>519.6</ele>
      </trkpt>
      <trkpt lat="-21.02777" lon="55.4026">
        <ele>518</ele>
      </trkpt>
      <trkpt lat="-21.02776" lon="55.4026">
        <ele>517.2</ele>
      </trkpt>
      <trkpt lat="-21.02774" lon="55.4026">
        <ele>515.6</ele>
      </trkpt>
      <trkpt lat="-21.02772" lon="55.4026">
        <ele>514</ele>
      </trkpt>
      <trkpt lat="-21.0277" lon="55.4026">
        <ele>512.5</ele>
      </trkpt>
      <trkpt lat="-21.02767" lon="55.4026">
        <ele>510.1</ele>
      </trkpt>
      <trkpt lat="-21.02766" lon="55.4026">
        <ele>509.3</ele>
      </trkpt>
      <trkpt lat="-21.02764" lon="55.4026">
        <ele>507.7</ele>
      </trkpt>
      <trkpt lat="-21.02762" lon="55.4026">
        <ele>506.2</ele>
      </trkpt>
      <trkpt lat="-21.0276" lon="55.4026">
        <ele>504.6</ele>
      </trkpt>
      <trkpt lat="-21.02759" lon="55.4026">
        <ele>503.8</ele>
      </trkpt>
      <trkpt lat="-21.02758" lon="55.4026">
        <ele>503</ele>
      </trkpt>
      <trkpt lat="-21.02755" lon="55.40261">
        <ele>500.7</ele>
      </trkpt>
      <trkpt lat="-21.02751" lon="55.40262">
        <ele>497.6</ele>
      </trkpt>
      <trkpt lat="-21.02748" lon="55.40263">
        <ele>495.6</ele>
      </trkpt>
      <trkpt lat="-21.02746" lon="55.40264">
        <ele>494.3</ele>
      </trkpt>
      <trkpt lat="-21.02744" lon="55.40266">
        <ele>493</ele>
      </trkpt>
      <trkpt lat="-21.02743" lon="55.40266">
        <ele>492.4</ele>
      </trkpt>
      <trkpt lat="-21.0274" lon="55.40267">
        <ele>490.4</ele>
      </trkpt>
      <trkpt lat="-21.02738" lon="55.40268">
        <ele>489.1</ele>
      </trkpt>
      <trkpt lat="-21.02737" lon="55.40268">
        <ele>488.4</ele>
      </trkpt>
      <trkpt lat="-21.02735" lon="55.40269">
        <ele>487.2</ele>
      </trkpt>
      <trkpt lat="-21.02733" lon="55.40269">
        <ele>485.8</ele>
      </trkpt>
      <trkpt lat="-21.02732" lon="55.40269">
        <ele>485.1</ele>
      </trkpt>
      <trkpt lat="-21.0273" lon="55.4027">
        <ele>483.9</ele>
      </trkpt>
      <trkpt lat="-21.02727" lon="55.4027">
        <ele>481.8</ele>
      </trkpt>
      <trkpt lat="-21.02725" lon="55.40271">
        <ele>480.6</ele>
      </trkpt>
      <trkpt lat="-21.02723" lon="55.40271">
        <ele>479.2</ele>
      </trkpt>
      <trkpt lat="-21.02722" lon="55.40272">
        <ele>478.6</ele>
      </trkpt>
      <trkpt lat="-21.02721" lon="55.40272">
        <ele>478</ele>
      </trkpt>
      <trkpt lat="-21.0272" lon="55.40273">
        <ele>477.4</ele>
      </trkpt>
      <trkpt lat="-21.02719" lon="55.40273">
        <ele>476.7</ele>
      </trkpt>
      <trkpt lat="-21.02717" lon="55.40274">
        <ele>475.5</ele>
      </trkpt>
      <trkpt lat="-21.02716" lon="55.40274">
        <ele>474.8</ele>
      </trkpt>
      <trkpt lat="-21.02715" lon="55.40274">
        <ele>474.2</ele>
      </trkpt>
      <trkpt lat="-21.02714" lon="55.40274">
        <ele>473.5</ele>
      </trkpt>
      <trkpt lat="-21.02713" lon="55.40275">
        <ele>472.9</ele>
      </trkpt>
      <trkpt lat="-21.02712" lon="55.40275">
        <ele>472.3</ele>
      </trkpt>
      <trkpt lat="-21.02711" lon="55.40275">
        <ele>471.6</ele>
      </trkpt>
      <trkpt lat="-21.02709" lon="55.40276">
        <ele>470.4</ele>
      </trkpt>
      <trkpt lat="-21.02708" lon="55.40276">
        <ele>469.7</ele>
      </trkpt>
      <trkpt lat="-21.02707" lon="55.40276">
        <ele>469</ele>
      </trkpt>
      <trkpt lat="-21.02706" lon="55.40276">
        <ele>468.4</ele>
      </trkpt>
      <trkpt lat="-21.02705" lon="55.40275">
        <ele>467.6</ele>
      </trkpt>
      <trkpt lat="-21.02703" lon="55.40276">
        <ele>466.4</ele>
      </trkpt>
      <trkpt lat="-21.02703" lon="55.40277">
        <ele>466.5</ele>
      </trkpt>
      <trkpt lat="-21.02705" lon="55.40279">
        <ele>468.1</ele>
      </trkpt>
      <trkpt lat="-21.02706" lon="55.4028">
        <ele>468.9</ele>
      </trkpt>
      <trkpt lat="-21.02707" lon="55.40282">
        <ele>469.8</ele>
      </trkpt>
      <trkpt lat="-21.02708" lon="55.40283">
        <ele>470.6</ele>
      </trkpt>
      <trkpt lat="-21.02706" lon="55.40283">
        <ele>469.3</ele>
      </trkpt>
      <trkpt lat="-21.02705" lon="55.40283">
        <ele>468.7</ele>
      </trkpt>
      <trkpt lat="-21.02704" lon="55.40283">
        <ele>468</ele>
      </trkpt>
      <trkpt lat="-21.02702" lon="55.40283">
        <ele>466.7</ele>
      </trkpt>
      <trkpt lat="-21.02701" lon="55.40283">
        <ele>466</ele>
      </trkpt>
      <trkpt lat="-21.027" lon="55.40282">
        <ele>465.2</ele>
      </trkpt>
      <trkpt lat="-21.02698" lon="55.40282">
        <ele>463.9</ele>
      </trkpt>
      <trkpt lat="-21.02697" lon="55.40282">
        <ele>463.2</ele>
      </trkpt>
      <trkpt lat="-21.02696" lon="55.40281">
        <ele>462.4</ele>
      </trkpt>
      <trkpt lat="-21.02695" lon="55.40279">
        <ele>461.4</ele>
      </trkpt>
      <trkpt lat="-21.02695" lon="55.40278">
        <ele>461.3</ele>
      </trkpt>
      <trkpt lat="-21.02695" lon="55.40277">
        <ele>461.1</ele>
      </trkpt>
      <trkpt lat="-21.02696" lon="55.40276">
        <ele>461.7</ele>
      </trkpt>
      <trkpt lat="-21.02696" lon="55.40275">
        <ele>461.5</ele>
      </trkpt>
      <trkpt lat="-21.02696" lon="55.40273">
        <ele>461.2</ele>
      </trkpt>
      <trkpt lat="-21.02696" lon="55.40271">
        <ele>460.9</ele>
      </trkpt>
      <trkpt lat="-21.02696" lon="55.4027">
        <ele>460.8</ele>
      </trkpt>
      <trkpt lat="-21.02696" lon="55.40268">
        <ele>460.5</ele>
      </trkpt>
      <trkpt lat="-21.02695" lon="55.40267">
        <ele>459.6</ele>
      </trkpt>
      <trkpt lat="-21.02694" lon="55.40266">
        <ele>458.8</ele>
      </trkpt>
      <trkpt lat="-21.02693" lon="55.40265">
        <ele>458</ele>
      </trkpt>
      <trkpt lat="-21.02691" lon="55.40263">
        <ele>456.3</ele>
      </trkpt>
      <trkpt lat="-21.02689" lon="55.40262">
        <ele>454.7</ele>
      </trkpt>
      <trkpt lat="-21.02687" lon="55.40261">
        <ele>453.2</ele>
      </trkpt>
      <trkpt lat="-21.02686" lon="55.4026">
        <ele>452.3</ele>
      </trkpt>
      <trkpt lat="-21.02685" lon="55.4026">
        <ele>451.6</ele>
      </trkpt>
      <trkpt lat="-21.02683" lon="55.40259">
        <ele>450.1</ele>
      </trkpt>
      <trkpt lat="-21.02682" lon="55.40259">
        <ele>449.4</ele>
      </trkpt>
      <trkpt lat="-21.02681" lon="55.40259">
        <ele>448.7</ele>
      </trkpt>
      <trkpt lat="-21.02678" lon="55.40258">
        <ele>446.4</ele>
      </trkpt>
      <trkpt lat="-21.02677" lon="55.40258">
        <ele>445.7</ele>
      </trkpt>
      <trkpt lat="-21.02675" lon="55.40258">
        <ele>444.3</ele>
      </trkpt>
      <trkpt lat="-21.02674" lon="55.40259">
        <ele>443.8</ele>
      </trkpt>
      <trkpt lat="-21.02672" lon="55.4026">
        <ele>442.6</ele>
      </trkpt>
      <trkpt lat="-21.02671" lon="55.40261">
        <ele>442.1</ele>
      </trkpt>
      <trkpt lat="-21.0267" lon="55.40262">
        <ele>441.6</ele>
      </trkpt>
      <trkpt lat="-21.02667" lon="55.40265">
        <ele>440.1</ele>
      </trkpt>
      <trkpt lat="-21.02665" lon="55.40267">
        <ele>439.5</ele>
      </trkpt>
      <trkpt lat="-21.02662" lon="55.40269">
        <ele>438.4</ele>
      </trkpt>
      <trkpt lat="-21.02657" lon="55.40273">
        <ele>436.9</ele>
      </trkpt>
      <trkpt lat="-21.02652" lon="55.40279">
        <ele>435.8</ele>
      </trkpt>
      <trkpt lat="-21.0265" lon="55.40281">
        <ele>435.3</ele>
      </trkpt>
      <trkpt lat="-21.02649" lon="55.40283">
        <ele>435.2</ele>
      </trkpt>
      <trkpt lat="-21.02648" lon="55.40284">
        <ele>435</ele>
      </trkpt>
      <trkpt lat="-21.02646" lon="55.40286">
        <ele>434.5</ele>
      </trkpt>
      <trkpt lat="-21.02645" lon="55.40287">
        <ele>434.3</ele>
      </trkpt>
      <trkpt lat="-21.02645" lon="55.40289">
        <ele>434.7</ele>
      </trkpt>
      <trkpt lat="-21.02644" lon="55.4029">
        <ele>434.4</ele>
      </trkpt>
      <trkpt lat="-21.02643" lon="55.40292">
        <ele>434.4</ele>
      </trkpt>
      <trkpt lat="-21.02643" lon="55.40294">
        <ele>434.9</ele>
      </trkpt>
      <trkpt lat="-21.02642" lon="55.40295">
        <ele>434.6</ele>
      </trkpt>
      <trkpt lat="-21.02641" lon="55.40297">
        <ele>434.6</ele>
      </trkpt>
      <trkpt lat="-21.02641" lon="55.40299">
        <ele>435</ele>
      </trkpt>
      <trkpt lat="-21.0264" lon="55.40301">
        <ele>435</ele>
      </trkpt>
      <trkpt lat="-21.02639" lon="55.40305">
        <ele>435.5</ele>
      </trkpt>
      <trkpt lat="-21.02638" lon="55.40307">
        <ele>435.5</ele>
      </trkpt>
      <trkpt lat="-21.02638" lon="55.4031">
        <ele>436.1</ele>
      </trkpt>
      <trkpt lat="-21.02636" lon="55.40312">
        <ele>435.7</ele>
      </trkpt>
      <trkpt lat="-21.02636" lon="55.40314">
        <ele>436.2</ele>
      </trkpt>
      <trkpt lat="-21.02635" lon="55.40316">
        <ele>436.2</ele>
      </trkpt>
      <trkpt lat="-21.02634" lon="55.40318">
        <ele>436.2</ele>
      </trkpt>
      <trkpt lat="-21.02633" lon="55.4032">
        <ele>436.3</ele>
      </trkpt>
      <trkpt lat="-21.02632" lon="55.40322">
        <ele>436.3</ele>
      </trkpt>
      <trkpt lat="-21.02631" lon="55.40323">
        <ele>436.1</ele>
      </trkpt>
      <trkpt lat="-21.02631" lon="55.40325">
        <ele>436.5</ele>
      </trkpt>
      <trkpt lat="-21.0263" lon="55.40327">
        <ele>436.6</ele>
      </trkpt>
      <trkpt lat="-21.02629" lon="55.40328">
        <ele>436.4</ele>
      </trkpt>
      <trkpt lat="-21.02628" lon="55.4033">
        <ele>436.5</ele>
      </trkpt>
      <trkpt lat="-21.02627" lon="55.40332">
        <ele>436.5</ele>
      </trkpt>
      <trkpt lat="-21.02626" lon="55.40333">
        <ele>436.3</ele>
      </trkpt>
      <trkpt lat="-21.02625" lon="55.40335">
        <ele>436.5</ele>
      </trkpt>
      <trkpt lat="-21.02624" lon="55.40336">
        <ele>436.3</ele>
      </trkpt>
      <trkpt lat="-21.02623" lon="55.40338">
        <ele>436.5</ele>
      </trkpt>
      <trkpt lat="-21.02622" lon="55.40339">
        <ele>436.3</ele>
      </trkpt>
      <trkpt lat="-21.02621" lon="55.4034">
        <ele>436.2</ele>
      </trkpt>
      <trkpt lat="-21.0262" lon="55.40342">
        <ele>436.3</ele>
      </trkpt>
      <trkpt lat="-21.02619" lon="55.40343">
        <ele>436.2</ele>
      </trkpt>
      <trkpt lat="-21.02617" lon="55.40344">
        <ele>435.7</ele>
      </trkpt>
      <trkpt lat="-21.02616" lon="55.40345">
        <ele>435.6</ele>
      </trkpt>
      <trkpt lat="-21.02615" lon="55.40346">
        <ele>435.5</ele>
      </trkpt>
      <trkpt lat="-21.02614" lon="55.40348">
        <ele>435.6</ele>
      </trkpt>
      <trkpt lat="-21.02613" lon="55.40349">
        <ele>435.5</ele>
      </trkpt>
      <trkpt lat="-21.02612" lon="55.40351">
        <ele>435.7</ele>
      </trkpt>
      <trkpt lat="-21.02611" lon="55.40352">
        <ele>435.6</ele>
      </trkpt>
      <trkpt lat="-21.0261" lon="55.40353">
        <ele>435.5</ele>
      </trkpt>
      <trkpt lat="-21.02609" lon="55.40354">
        <ele>435.4</ele>
      </trkpt>
      <trkpt lat="-21.02607" lon="55.40356">
        <ele>435.2</ele>
      </trkpt>
      <trkpt lat="-21.02606" lon="55.40357">
        <ele>435.1</ele>
      </trkpt>
      <trkpt lat="-21.02605" lon="55.40358">
        <ele>435</ele>
      </trkpt>
      <trkpt lat="-21.02604" lon="55.4036">
        <ele>435.2</ele>
      </trkpt>
      <trkpt lat="-21.02603" lon="55.40361">
        <ele>435.1</ele>
      </trkpt>
      <trkpt lat="-21.02601" lon="55.40363">
        <ele>434.9</ele>
      </trkpt>
      <trkpt lat="-21.026" lon="55.40364">
        <ele>434.9</ele>
      </trkpt>
      <trkpt lat="-21.02599" lon="55.40366">
        <ele>435.1</ele>
      </trkpt>
      <trkpt lat="-21.02597" lon="55.40367">
        <ele>434.6</ele>
      </trkpt>
      <trkpt lat="-21.02596" lon="55.40368">
        <ele>434.5</ele>
      </trkpt>
      <trkpt lat="-21.02594" lon="55.40368">
        <ele>433.8</ele>
      </trkpt>
      <trkpt lat="-21.02593" lon="55.40369">
        <ele>433.7</ele>
      </trkpt>
      <trkpt lat="-21.02591" lon="55.40369">
        <ele>433</ele>
      </trkpt>
      <trkpt lat="-21.0259" lon="55.4037">
        <ele>432.9</ele>
      </trkpt>
      <trkpt lat="-21.02588" lon="55.40371">
        <ele>432.5</ele>
      </trkpt>
      <trkpt lat="-21.02587" lon="55.40372">
        <ele>432.4</ele>
      </trkpt>
      <trkpt lat="-21.02586" lon="55.40373">
        <ele>432.4</ele>
      </trkpt>
      <trkpt lat="-21.02585" lon="55.40374">
        <ele>432.3</ele>
      </trkpt>
      <trkpt lat="-21.02583" lon="55.40375">
        <ele>431.9</ele>
      </trkpt>
      <trkpt lat="-21.02582" lon="55.40375">
        <ele>431.8</ele>
      </trkpt>
      <trkpt lat="-21.02579" lon="55.40373">
        <ele>430.6</ele>
      </trkpt>
      <trkpt lat="-21.02575" lon="55.40372">
        <ele>429.6</ele>
      </trkpt>
      <trkpt lat="-21.02573" lon="55.40371">
        <ele>428.9</ele>
      </trkpt>
      <trkpt lat="-21.02571" lon="55.40371">
        <ele>428.5</ele>
      </trkpt>
      <trkpt lat="-21.02568" lon="55.40371">
        <ele>428</ele>
      </trkpt>
      <trkpt lat="-21.02567" lon="55.40371">
        <ele>427.8</ele>
      </trkpt>
      <trkpt lat="-21.02564" lon="55.40371">
        <ele>427.3</ele>
      </trkpt>
      <trkpt lat="-21.02563" lon="55.40372">
        <ele>427.4</ele>
      </trkpt>
      <trkpt lat="-21.02561" lon="55.40372">
        <ele>427</ele>
      </trkpt>
      <trkpt lat="-21.02559" lon="55.40372">
        <ele>426.7</ele>
      </trkpt>
      <trkpt lat="-21.02558" lon="55.40372">
        <ele>426.5</ele>
      </trkpt>
      <trkpt lat="-21.02556" lon="55.40373">
        <ele>426.5</ele>
      </trkpt>
      <trkpt lat="-21.02555" lon="55.40373">
        <ele>426.3</ele>
      </trkpt>
      <trkpt lat="-21.02553" lon="55.40373">
        <ele>425.9</ele>
      </trkpt>
      <trkpt lat="-21.02552" lon="55.40374">
        <ele>426</ele>
      </trkpt>
      <trkpt lat="-21.0255" lon="55.40375">
        <ele>426</ele>
      </trkpt>
      <trkpt lat="-21.02549" lon="55.40376">
        <ele>426.1</ele>
      </trkpt>
      <trkpt lat="-21.02547" lon="55.40377">
        <ele>426.1</ele>
      </trkpt>
      <trkpt lat="-21.02546" lon="55.40379">
        <ele>426.5</ele>
      </trkpt>
      <trkpt lat="-21.02544" lon="55.4038">
        <ele>426.5</ele>
      </trkpt>
      <trkpt lat="-21.02543" lon="55.40381">
        <ele>426.6</ele>
      </trkpt>
      <trkpt lat="-21.02542" lon="55.40382">
        <ele>426.7</ele>
      </trkpt>
      <trkpt lat="-21.02541" lon="55.40384">
        <ele>427.2</ele>
      </trkpt>
      <trkpt lat="-21.0254" lon="55.40386">
        <ele>427.6</ele>
      </trkpt>
      <trkpt lat="-21.0254" lon="55.40387">
        <ele>427.9</ele>
      </trkpt>
      <trkpt lat="-21.02539" lon="55.40389">
        <ele>428.4</ele>
      </trkpt>
      <trkpt lat="-21.02539" lon="55.40391">
        <ele>429</ele>
      </trkpt>
      <trkpt lat="-21.02538" lon="55.40392">
        <ele>429.1</ele>
      </trkpt>
      <trkpt lat="-21.02537" lon="55.40399">
        <ele>431.1</ele>
      </trkpt>
      <trkpt lat="-21.02536" lon="55.40402">
        <ele>431.9</ele>
      </trkpt>
      <trkpt lat="-21.02535" lon="55.40403">
        <ele>432</ele>
      </trkpt>
      <trkpt lat="-21.02535" lon="55.40405">
        <ele>432.7</ele>
      </trkpt>
      <trkpt lat="-21.02535" lon="55.40406">
        <ele>433</ele>
      </trkpt>
      <trkpt lat="-21.02536" lon="55.40409">
        <ele>434.1</ele>
      </trkpt>
      <trkpt lat="-21.02536" lon="55.4041">
        <ele>434.4</ele>
      </trkpt>
      <trkpt lat="-21.02537" lon="55.40412">
        <ele>435.2</ele>
      </trkpt>
      <trkpt lat="-21.02538" lon="55.40413">
        <ele>435.7</ele>
      </trkpt>
      <trkpt lat="-21.02536" lon="55.40414">
        <ele>435.6</ele>
      </trkpt>
      <trkpt lat="-21.02534" lon="55.40414">
        <ele>435.3</ele>
      </trkpt>
      <trkpt lat="-21.02532" lon="55.40415">
        <ele>435.2</ele>
      </trkpt>
      <trkpt lat="-21.02531" lon="55.40417">
        <ele>435.7</ele>
      </trkpt>
      <trkpt lat="-21.0253" lon="55.4042">
        <ele>436.5</ele>
      </trkpt>
      <trkpt lat="-21.02528" lon="55.4042">
        <ele>436.1</ele>
      </trkpt>
      <trkpt lat="-21.02527" lon="55.40423">
        <ele>436.9</ele>
      </trkpt>
      <trkpt lat="-21.02526" lon="55.40427">
        <ele>438</ele>
      </trkpt>
      <trkpt lat="-21.02526" lon="55.40429">
        <ele>438.7</ele>
      </trkpt>
      <trkpt lat="-21.02526" lon="55.4043">
        <ele>439</ele>
      </trkpt>
      <trkpt lat="-21.02525" lon="55.40432">
        <ele>439.5</ele>
      </trkpt>
      <trkpt lat="-21.02525" lon="55.40434">
        <ele>440.1</ele>
      </trkpt>
      <trkpt lat="-21.02524" lon="55.40436">
        <ele>440.6</ele>
      </trkpt>
      <trkpt lat="-21.02523" lon="55.40437">
        <ele>440.8</ele>
        <extensions>
          <visugpx:TrkExtension xmlns:visugpx="https://www.visugpx.com/editgpx/">
            <visugpx:node>23</visugpx:node>
            </visugpx:TrkExtension>
        </extensions>
      </trkpt>
      <trkpt lat="-21.02523" lon="55.40438">
        <ele>441.1</ele>
      </trkpt>
      <trkpt lat="-21.02522" lon="55.40439">
        <ele>441.3</ele>
      </trkpt>
      <trkpt lat="-21.02521" lon="55.40441">
        <ele>441.7</ele>
      </trkpt>
      <trkpt lat="-21.02521" lon="55.40443">
        <ele>442.4</ele>
      </trkpt>
      <trkpt lat="-21.0252" lon="55.40445">
        <ele>442.9</ele>
      </trkpt>
      <trkpt lat="-21.0252" lon="55.40447">
        <ele>443.5</ele>
      </trkpt>
      <trkpt lat="-21.02519" lon="55.40448">
        <ele>443.7</ele>
      </trkpt>
      <trkpt lat="-21.02519" lon="55.4045">
        <ele>444.3</ele>
      </trkpt>
      <trkpt lat="-21.02519" lon="55.40452">
        <ele>445</ele>
      </trkpt>
      <trkpt lat="-21.02518" lon="55.40453">
        <ele>445.2</ele>
      </trkpt>
      <trkpt lat="-21.02518" lon="55.40455">
        <ele>445.8</ele>
      </trkpt>
      <trkpt lat="-21.02518" lon="55.40457">
        <ele>446.5</ele>
      </trkpt>
      <trkpt lat="-21.02518" lon="55.40458">
        <ele>446.8</ele>
      </trkpt>
      <trkpt lat="-21.02518" lon="55.40459">
        <ele>447.1</ele>
      </trkpt>
      <trkpt lat="-21.02519" lon="55.4046">
        <ele>447.6</ele>
      </trkpt>
      <trkpt lat="-21.02519" lon="55.40461">
        <ele>448</ele>
      </trkpt>
      <trkpt lat="-21.02519" lon="55.40463">
        <ele>448.6</ele>
      </trkpt>
      <trkpt lat="-21.02519" lon="55.40464">
        <ele>448.9</ele>
      </trkpt>
      <trkpt lat="-21.02519" lon="55.40465">
        <ele>449.3</ele>
      </trkpt>
      <trkpt lat="-21.02518" lon="55.40466">
        <ele>449.4</ele>
      </trkpt>
      <trkpt lat="-21.02517" lon="55.40467">
        <ele>449.6</ele>
      </trkpt>
      <trkpt lat="-21.02515" lon="55.40465">
        <ele>448.6</ele>
      </trkpt>
      <trkpt lat="-21.02515" lon="55.40464">
        <ele>448.3</ele>
      </trkpt>
      <trkpt lat="-21.02514" lon="55.40463">
        <ele>447.8</ele>
      </trkpt>
      <trkpt lat="-21.02513" lon="55.40461">
        <ele>447</ele>
      </trkpt>
      <trkpt lat="-21.02512" lon="55.4046">
        <ele>446.5</ele>
      </trkpt>
      <trkpt lat="-21.02511" lon="55.40458">
        <ele>445.7</ele>
      </trkpt>
      <trkpt lat="-21.0251" lon="55.40455">
        <ele>444.5</ele>
      </trkpt>
      <trkpt lat="-21.02507" lon="55.40449">
        <ele>442</ele>
      </trkpt>
      <trkpt lat="-21.02506" lon="55.40448">
        <ele>441.5</ele>
      </trkpt>
      <trkpt lat="-21.02504" lon="55.40446">
        <ele>440.5</ele>
      </trkpt>
      <trkpt lat="-21.02503" lon="55.40444">
        <ele>439.7</ele>
      </trkpt>
      <trkpt lat="-21.02501" lon="55.40442">
        <ele>438.7</ele>
      </trkpt>
      <trkpt lat="-21.02501" lon="55.4044">
        <ele>438</ele>
      </trkpt>
      <trkpt lat="-21.02502" lon="55.40438">
        <ele>437.5</ele>
      </trkpt>
      <trkpt lat="-21.02502" lon="55.40437">
        <ele>437.2</ele>
      </trkpt>
      <trkpt lat="-21.02502" lon="55.40436">
        <ele>436.8</ele>
      </trkpt>
      <trkpt lat="-21.02502" lon="55.40434">
        <ele>436.2</ele>
      </trkpt>
      <trkpt lat="-21.02501" lon="55.40433">
        <ele>435.7</ele>
      </trkpt>
      <trkpt lat="-21.02501" lon="55.40432">
        <ele>435.3</ele>
      </trkpt>
      <trkpt lat="-21.025" lon="55.40431">
        <ele>434.8</ele>
      </trkpt>
      <trkpt lat="-21.025" lon="55.40429">
        <ele>434.1</ele>
      </trkpt>
      <trkpt lat="-21.02499" lon="55.40428">
        <ele>433.8</ele>
      </trkpt>
      <trkpt lat="-21.02499" lon="55.40426">
        <ele>433.1</ele>
      </trkpt>
      <trkpt lat="-21.02498" lon="55.40425">
        <ele>432.8</ele>
      </trkpt>
      <trkpt lat="-21.02497" lon="55.40424">
        <ele>432.4</ele>
      </trkpt>
      <trkpt lat="-21.02496" lon="55.40423">
        <ele>432.1</ele>
      </trkpt>
      <trkpt lat="-21.02494" lon="55.40422">
        <ele>431.7</ele>
      </trkpt>
      <trkpt lat="-21.02492" lon="55.40421">
        <ele>431.4</ele>
      </trkpt>
      <trkpt lat="-21.02491" lon="55.4042">
        <ele>431</ele>
      </trkpt>
      <trkpt lat="-21.02489" lon="55.40419">
        <ele>430.6</ele>
      </trkpt>
      <trkpt lat="-21.02487" lon="55.40419">
        <ele>430.6</ele>
      </trkpt>
      <trkpt lat="-21.02485" lon="55.40419">
        <ele>430.6</ele>
      </trkpt>
      <trkpt lat="-21.02484" lon="55.40418">
        <ele>430.2</ele>
      </trkpt>
      <trkpt lat="-21.02482" lon="55.40418">
        <ele>430.2</ele>
      </trkpt>
      <trkpt lat="-21.02481" lon="55.40418">
        <ele>430.2</ele>
      </trkpt>
      <trkpt lat="-21.0248" lon="55.40419">
        <ele>430.5</ele>
      </trkpt>
      <trkpt lat="-21.02478" lon="55.40419">
        <ele>430.5</ele>
      </trkpt>
      <trkpt lat="-21.02477" lon="55.4042">
        <ele>430.8</ele>
      </trkpt>
      <trkpt lat="-21.02475" lon="55.4042">
        <ele>430.8</ele>
      </trkpt>
      <trkpt lat="-21.02473" lon="55.40421">
        <ele>431.1</ele>
      </trkpt>
      <trkpt lat="-21.02471" lon="55.40422">
        <ele>431.4</ele>
      </trkpt>
      <trkpt lat="-21.0247" lon="55.40422">
        <ele>431.4</ele>
      </trkpt>
      <trkpt lat="-21.02468" lon="55.40423">
        <ele>431.7</ele>
      </trkpt>
      <trkpt lat="-21.02466" lon="55.40423">
        <ele>431.7</ele>
      </trkpt>
      <trkpt lat="-21.02465" lon="55.40423">
        <ele>431.6</ele>
      </trkpt>
      <trkpt lat="-21.02463" lon="55.40423">
        <ele>431.6</ele>
      </trkpt>
      <trkpt lat="-21.02462" lon="55.40423">
        <ele>431.6</ele>
      </trkpt>
      <trkpt lat="-21.0246" lon="55.40422">
        <ele>431.3</ele>
      </trkpt>
      <trkpt lat="-21.02459" lon="55.4042">
        <ele>430.6</ele>
      </trkpt>
      <trkpt lat="-21.02459" lon="55.40419">
        <ele>430.3</ele>
      </trkpt>
      <trkpt lat="-21.02459" lon="55.40418">
        <ele>429.9</ele>
      </trkpt>
      <trkpt lat="-21.02459" lon="55.40417">
        <ele>429.6</ele>
      </trkpt>
      <trkpt lat="-21.02459" lon="55.40414">
        <ele>428.7</ele>
      </trkpt>
      <trkpt lat="-21.02458" lon="55.40413">
        <ele>428.4</ele>
      </trkpt>
      <trkpt lat="-21.02456" lon="55.40411">
        <ele>427.8</ele>
      </trkpt>
      <trkpt lat="-21.02451" lon="55.4041">
        <ele>427.5</ele>
      </trkpt>
      <trkpt lat="-21.02448" lon="55.4041">
        <ele>427.4</ele>
      </trkpt>
      <trkpt lat="-21.02446" lon="55.4041">
        <ele>427.4</ele>
      </trkpt>
      <trkpt lat="-21.02444" lon="55.4041">
        <ele>427.4</ele>
      </trkpt>
      <trkpt lat="-21.02442" lon="55.40411">
        <ele>427.7</ele>
      </trkpt>
      <trkpt lat="-21.0244" lon="55.40411">
        <ele>427.7</ele>
      </trkpt>
      <trkpt lat="-21.02438" lon="55.40411">
        <ele>427.6</ele>
      </trkpt>
      <trkpt lat="-21.02436" lon="55.40411">
        <ele>427.6</ele>
      </trkpt>
      <trkpt lat="-21.02433" lon="55.40411">
        <ele>427.6</ele>
      </trkpt>
      <trkpt lat="-21.02432" lon="55.4041">
        <ele>427.3</ele>
      </trkpt>
      <trkpt lat="-21.0243" lon="55.4041">
        <ele>427.3</ele>
      </trkpt>
      <trkpt lat="-21.02428" lon="55.40409">
        <ele>427</ele>
      </trkpt>
      <trkpt lat="-21.02426" lon="55.40408">
        <ele>426.7</ele>
      </trkpt>
      <trkpt lat="-21.02424" lon="55.40407">
        <ele>426.4</ele>
      </trkpt>
      <trkpt lat="-21.02422" lon="55.40406">
        <ele>426.1</ele>
      </trkpt>
      <trkpt lat="-21.0242" lon="55.40405">
        <ele>425.8</ele>
      </trkpt>
      <trkpt lat="-21.02419" lon="55.40403">
        <ele>425.2</ele>
      </trkpt>
      <trkpt lat="-21.02417" lon="55.40402">
        <ele>425</ele>
      </trkpt>
      <trkpt lat="-21.02414" lon="55.40401">
        <ele>424.9</ele>
      </trkpt>
      <trkpt lat="-21.02413" lon="55.404">
        <ele>424.7</ele>
      </trkpt>
      <trkpt lat="-21.02411" lon="55.40399">
        <ele>424.6</ele>
      </trkpt>
      <trkpt lat="-21.02408" lon="55.40398">
        <ele>424.5</ele>
      </trkpt>
      <trkpt lat="-21.02407" lon="55.40398">
        <ele>424.6</ele>
      </trkpt>
      <trkpt lat="-21.02405" lon="55.40396">
        <ele>424.2</ele>
      </trkpt>
      <trkpt lat="-21.02403" lon="55.40394">
        <ele>423.8</ele>
      </trkpt>
      <trkpt lat="-21.02402" lon="55.40392">
        <ele>423.4</ele>
      </trkpt>
      <trkpt lat="-21.024" lon="55.40391">
        <ele>423.3</ele>
      </trkpt>
      <trkpt lat="-21.02399" lon="55.40389">
        <ele>422.8</ele>
      </trkpt>
      <trkpt lat="-21.02398" lon="55.40387">
        <ele>422.4</ele>
      </trkpt>
      <trkpt lat="-21.02397" lon="55.40386">
        <ele>422.2</ele>
      </trkpt>
      <trkpt lat="-21.02396" lon="55.40384">
        <ele>421.8</ele>
      </trkpt>
      <trkpt lat="-21.02395" lon="55.40383">
        <ele>421.6</ele>
      </trkpt>
      <trkpt lat="-21.02394" lon="55.40381">
        <ele>421.2</ele>
      </trkpt>
      <trkpt lat="-21.02393" lon="55.4038">
        <ele>421</ele>
      </trkpt>
      <trkpt lat="-21.02391" lon="55.4038">
        <ele>421.2</ele>
      </trkpt>
      <trkpt lat="-21.0239" lon="55.4038">
        <ele>421.3</ele>
      </trkpt>
      <trkpt lat="-21.02388" lon="55.4038">
        <ele>421.5</ele>
      </trkpt>
      <trkpt lat="-21.02386" lon="55.4038">
        <ele>421.7</ele>
      </trkpt>
      <trkpt lat="-21.02384" lon="55.4038">
        <ele>421.9</ele>
      </trkpt>
      <trkpt lat="-21.02383" lon="55.4038">
        <ele>422</ele>
      </trkpt>
      <trkpt lat="-21.02381" lon="55.40381">
        <ele>422.4</ele>
      </trkpt>
      <trkpt lat="-21.0238" lon="55.40382">
        <ele>422.7</ele>
      </trkpt>
      <trkpt lat="-21.02378" lon="55.40382">
        <ele>422.9</ele>
      </trkpt>
      <trkpt lat="-21.02377" lon="55.40383">
        <ele>423.2</ele>
      </trkpt>
      <trkpt lat="-21.02375" lon="55.40383">
        <ele>423.4</ele>
      </trkpt>
      <trkpt lat="-21.02374" lon="55.40384">
        <ele>423.7</ele>
      </trkpt>
      <trkpt lat="-21.02373" lon="55.40385">
        <ele>424.1</ele>
      </trkpt>
      <trkpt lat="-21.02367" lon="55.40389">
        <ele>425.5</ele>
      </trkpt>
      <trkpt lat="-21.02366" lon="55.4039">
        <ele>425.8</ele>
      </trkpt>
      <trkpt lat="-21.02364" lon="55.40391">
        <ele>426.2</ele>
      </trkpt>
      <trkpt lat="-21.02362" lon="55.40391">
        <ele>426.4</ele>
      </trkpt>
      <trkpt lat="-21.0236" lon="55.40391">
        <ele>426.6</ele>
      </trkpt>
      <trkpt lat="-21.02359" lon="55.40391">
        <ele>426.7</ele>
      </trkpt>
      <trkpt lat="-21.02357" lon="55.4039">
        <ele>426.6</ele>
      </trkpt>
      <trkpt lat="-21.02355" lon="55.40389">
        <ele>426.5</ele>
      </trkpt>
      <trkpt lat="-21.02354" lon="55.40388">
        <ele>426.4</ele>
      </trkpt>
      <trkpt lat="-21.02352" lon="55.40387">
        <ele>426.3</ele>
      </trkpt>
      <trkpt lat="-21.0235" lon="55.40386">
        <ele>426.3</ele>
      </trkpt>
      <trkpt lat="-21.02349" lon="55.40386">
        <ele>426.4</ele>
      </trkpt>
      <trkpt lat="-21.02347" lon="55.40385">
        <ele>426.3</ele>
      </trkpt>
      <trkpt lat="-21.02345" lon="55.40385">
        <ele>426.5</ele>
      </trkpt>
      <trkpt lat="-21.02344" lon="55.40385">
        <ele>426.6</ele>
      </trkpt>
      <trkpt lat="-21.02342" lon="55.40385">
        <ele>426.8</ele>
      </trkpt>
      <trkpt lat="-21.0234" lon="55.40385">
        <ele>427</ele>
      </trkpt>
      <trkpt lat="-21.02339" lon="55.40385">
        <ele>427</ele>
      </trkpt>
      <trkpt lat="-21.02337" lon="55.40385">
        <ele>427.2</ele>
      </trkpt>
      <trkpt lat="-21.02336" lon="55.40386">
        <ele>427.5</ele>
      </trkpt>
      <trkpt lat="-21.02334" lon="55.40387">
        <ele>427.9</ele>
      </trkpt>
      <trkpt lat="-21.02333" lon="55.40388">
        <ele>428.2</ele>
      </trkpt>
      <trkpt lat="-21.02331" lon="55.40389">
        <ele>428.6</ele>
      </trkpt>
      <trkpt lat="-21.0233" lon="55.4039">
        <ele>428.9</ele>
      </trkpt>
      <trkpt lat="-21.02328" lon="55.4039">
        <ele>429.1</ele>
      </trkpt>
      <trkpt lat="-21.02327" lon="55.40391">
        <ele>429.4</ele>
      </trkpt>
      <trkpt lat="-21.02325" lon="55.40392">
        <ele>429.9</ele>
      </trkpt>
      <trkpt lat="-21.02324" lon="55.40392">
        <ele>430</ele>
      </trkpt>
      <trkpt lat="-21.02322" lon="55.40393">
        <ele>430.4</ele>
      </trkpt>
      <trkpt lat="-21.02319" lon="55.40394">
        <ele>430.9</ele>
      </trkpt>
      <trkpt lat="-21.02312" lon="55.40395">
        <ele>431.8</ele>
      </trkpt>
      <trkpt lat="-21.02302" lon="55.40395">
        <ele>432.9</ele>
      </trkpt>
      <trkpt lat="-21.02292" lon="55.40395">
        <ele>433.9</ele>
      </trkpt>
      <trkpt lat="-21.02288" lon="55.40395">
        <ele>434.4</ele>
      </trkpt>
      <trkpt lat="-21.02286" lon="55.40395">
        <ele>434.6</ele>
      </trkpt>
      <trkpt lat="-21.02282" lon="55.40395">
        <ele>435</ele>
      </trkpt>
      <trkpt lat="-21.0228" lon="55.40395">
        <ele>435.2</ele>
      </trkpt>
      <trkpt lat="-21.02277" lon="55.40394">
        <ele>435.3</ele>
      </trkpt>
      <trkpt lat="-21.02276" lon="55.40394">
        <ele>435.4</ele>
      </trkpt>
      <trkpt lat="-21.02273" lon="55.40394">
        <ele>435.8</ele>
      </trkpt>
      <trkpt lat="-21.02271" lon="55.40394">
        <ele>436</ele>
      </trkpt>
      <trkpt lat="-21.02269" lon="55.40394">
        <ele>436.2</ele>
      </trkpt>
      <trkpt lat="-21.02267" lon="55.40394">
        <ele>436.4</ele>
      </trkpt>
      <trkpt lat="-21.02265" lon="55.40395">
        <ele>436.8</ele>
      </trkpt>
      <trkpt lat="-21.02263" lon="55.40395">
        <ele>437</ele>
      </trkpt>
      <trkpt lat="-21.02261" lon="55.40396">
        <ele>437.4</ele>
      </trkpt>
      <trkpt lat="-21.02259" lon="55.40397">
        <ele>437.8</ele>
      </trkpt>
      <trkpt lat="-21.02257" lon="55.40398">
        <ele>438.1</ele>
      </trkpt>
      <trkpt lat="-21.02256" lon="55.40399">
        <ele>438.4</ele>
      </trkpt>
      <trkpt lat="-21.02254" lon="55.404">
        <ele>438.8</ele>
      </trkpt>
      <trkpt lat="-21.02252" lon="55.40403">
        <ele>439.5</ele>
      </trkpt>
      <trkpt lat="-21.02252" lon="55.40404">
        <ele>439.7</ele>
      </trkpt>
      <trkpt lat="-21.02252" lon="55.40405">
        <ele>439.8</ele>
      </trkpt>
      <trkpt lat="-21.02254" lon="55.40407">
        <ele>440</ele>
      </trkpt>
      <trkpt lat="-21.02259" lon="55.40412">
        <ele>440.3</ele>
      </trkpt>
      <trkpt lat="-21.02261" lon="55.40414">
        <ele>440.5</ele>
      </trkpt>
      <trkpt lat="-21.02262" lon="55.40416">
        <ele>440.7</ele>
      </trkpt>
      <trkpt lat="-21.02263" lon="55.40418">
        <ele>441.1</ele>
      </trkpt>
      <trkpt lat="-21.02265" lon="55.4042">
        <ele>441.5</ele>
      </trkpt>
      <trkpt lat="-21.02266" lon="55.40422">
        <ele>441.9</ele>
      </trkpt>
      <trkpt lat="-21.02267" lon="55.40424">
        <ele>442.3</ele>
      </trkpt>
      <trkpt lat="-21.02268" lon="55.40425">
        <ele>442.5</ele>
      </trkpt>
      <trkpt lat="-21.02269" lon="55.40427">
        <ele>443</ele>
      </trkpt>
      <trkpt lat="-21.02269" lon="55.40428">
        <ele>443.2</ele>
      </trkpt>
      <trkpt lat="-21.0227" lon="55.4043">
        <ele>443.7</ele>
      </trkpt>
      <trkpt lat="-21.0227" lon="55.40431">
        <ele>443.9</ele>
      </trkpt>
      <trkpt lat="-21.02271" lon="55.40433">
        <ele>444.4</ele>
      </trkpt>
      <trkpt lat="-21.0227" lon="55.40434">
        <ele>444.8</ele>
      </trkpt>
      <trkpt lat="-21.02271" lon="55.40435">
        <ele>444.9</ele>
      </trkpt>
      <trkpt lat="-21.02268" lon="55.40437">
        <ele>445.7</ele>
      </trkpt>
      <trkpt lat="-21.02262" lon="55.40439">
        <ele>446.8</ele>
      </trkpt>
      <trkpt lat="-21.02254" lon="55.4044">
        <ele>447.8</ele>
      </trkpt>
      <trkpt lat="-21.0225" lon="55.4044">
        <ele>448.2</ele>
      </trkpt>
      <trkpt lat="-21.02245" lon="55.40441">
        <ele>448.7</ele>
      </trkpt>
      <trkpt lat="-21.02242" lon="55.40441">
        <ele>448.9</ele>
      </trkpt>
      <trkpt lat="-21.02239" lon="55.40442">
        <ele>449.4</ele>
      </trkpt>
      <trkpt lat="-21.02229" lon="55.40442">
        <ele>450</ele>
      </trkpt>
      <trkpt lat="-21.02227" lon="55.40442">
        <ele>450.2</ele>
      </trkpt>
      <trkpt lat="-21.02223" lon="55.40441">
        <ele>450.1</ele>
      </trkpt>
      <trkpt lat="-21.02219" lon="55.40439">
        <ele>449.9</ele>
      </trkpt>
      <trkpt lat="-21.02214" lon="55.40439">
        <ele>450.2</ele>
      </trkpt>
      <trkpt lat="-21.0221" lon="55.4044">
        <ele>450.7</ele>
      </trkpt>
      <trkpt lat="-21.02207" lon="55.40441">
        <ele>451.2</ele>
      </trkpt>
      <trkpt lat="-21.02203" lon="55.40443">
        <ele>452</ele>
      </trkpt>
      <trkpt lat="-21.02199" lon="55.40446">
        <ele>453</ele>
      </trkpt>
      <trkpt lat="-21.02196" lon="55.40449">
        <ele>454</ele>
        <extensions>
          <visugpx:TrkExtension xmlns:visugpx="https://www.visugpx.com/editgpx/">
            <visugpx:node>24</visugpx:node>
            </visugpx:TrkExtension>
        </extensions>
      </trkpt>
      <trkpt lat="-21.02192" lon="55.40451">
        <ele>454.8</ele>
      </trkpt>
      <trkpt lat="-21.02187" lon="55.40454">
        <ele>456</ele>
      </trkpt>
      <trkpt lat="-21.02183" lon="55.40458">
        <ele>457.3</ele>
      </trkpt>
      <trkpt lat="-21.02182" lon="55.4046">
        <ele>457.9</ele>
      </trkpt>
      <trkpt lat="-21.02182" lon="55.40462">
        <ele>458.5</ele>
      </trkpt>
      <trkpt lat="-21.0218" lon="55.40465">
        <ele>459.4</ele>
      </trkpt>
      <trkpt lat="-21.02179" lon="55.40468">
        <ele>460.3</ele>
      </trkpt>
      <trkpt lat="-21.0218" lon="55.40471">
        <ele>461.1</ele>
      </trkpt>
      <trkpt lat="-21.02181" lon="55.40475">
        <ele>462.1</ele>
      </trkpt>
      <trkpt lat="-21.02181" lon="55.40478">
        <ele>462.9</ele>
      </trkpt>
      <trkpt lat="-21.02179" lon="55.4048">
        <ele>463.6</ele>
      </trkpt>
      <trkpt lat="-21.02178" lon="55.40483">
        <ele>464.5</ele>
      </trkpt>
      <trkpt lat="-21.02179" lon="55.40486">
        <ele>465.3</ele>
      </trkpt>
      <trkpt lat="-21.0218" lon="55.40489">
        <ele>466</ele>
      </trkpt>
      <trkpt lat="-21.02182" lon="55.40492">
        <ele>466.7</ele>
      </trkpt>
      <trkpt lat="-21.02183" lon="55.40496">
        <ele>467.7</ele>
      </trkpt>
      <trkpt lat="-21.02183" lon="55.405">
        <ele>468.8</ele>
      </trkpt>
      <trkpt lat="-21.02183" lon="55.40503">
        <ele>469.9</ele>
      </trkpt>
      <trkpt lat="-21.02182" lon="55.40504">
        <ele>470.3</ele>
      </trkpt>
      <trkpt lat="-21.02179" lon="55.40504">
        <ele>470.5</ele>
      </trkpt>
      <trkpt lat="-21.02175" lon="55.40504">
        <ele>470.8</ele>
      </trkpt>
      <trkpt lat="-21.02172" lon="55.40504">
        <ele>471</ele>
      </trkpt>
      <trkpt lat="-21.02166" lon="55.40504">
        <ele>471.5</ele>
      </trkpt>
      <trkpt lat="-21.02164" lon="55.40504">
        <ele>471.6</ele>
      </trkpt>
      <trkpt lat="-21.0216" lon="55.40504">
        <ele>471.8</ele>
      </trkpt>
      <trkpt lat="-21.02157" lon="55.40505">
        <ele>472.4</ele>
      </trkpt>
      <trkpt lat="-21.02156" lon="55.40507">
        <ele>473.2</ele>
      </trkpt>
      <trkpt lat="-21.02157" lon="55.40508">
        <ele>473.5</ele>
      </trkpt>
      <trkpt lat="-21.02158" lon="55.40509">
        <ele>473.8</ele>
      </trkpt>
      <trkpt lat="-21.02161" lon="55.40511">
        <ele>474.3</ele>
      </trkpt>
      <trkpt lat="-21.02166" lon="55.40512">
        <ele>474.4</ele>
      </trkpt>
      <trkpt lat="-21.0217" lon="55.40513">
        <ele>474.4</ele>
      </trkpt>
      <trkpt lat="-21.02175" lon="55.40514">
        <ele>474.4</ele>
      </trkpt>
      <trkpt lat="-21.02178" lon="55.40515">
        <ele>474.5</ele>
      </trkpt>
      <trkpt lat="-21.0218" lon="55.40517">
        <ele>475.1</ele>
      </trkpt>
      <trkpt lat="-21.0218" lon="55.40519">
        <ele>475.8</ele>
      </trkpt>
      <trkpt lat="-21.02179" lon="55.40521">
        <ele>476.6</ele>
      </trkpt>
      <trkpt lat="-21.02176" lon="55.40522">
        <ele>477.2</ele>
      </trkpt>
      <trkpt lat="-21.02172" lon="55.40526">
        <ele>478.9</ele>
      </trkpt>
      <trkpt lat="-21.0217" lon="55.40528">
        <ele>479.8</ele>
      </trkpt>
      <trkpt lat="-21.02169" lon="55.40531">
        <ele>481</ele>
      </trkpt>
      <trkpt lat="-21.02166" lon="55.40533">
        <ele>481.9</ele>
      </trkpt>
      <trkpt lat="-21.02164" lon="55.40535">
        <ele>482.8</ele>
      </trkpt>
      <trkpt lat="-21.02161" lon="55.40535">
        <ele>483</ele>
      </trkpt>
      <trkpt lat="-21.02157" lon="55.40534">
        <ele>482.9</ele>
      </trkpt>
      <trkpt lat="-21.02153" lon="55.40533">
        <ele>482.8</ele>
      </trkpt>
      <trkpt lat="-21.02149" lon="55.40533">
        <ele>483.1</ele>
      </trkpt>
      <trkpt lat="-21.02146" lon="55.40534">
        <ele>483.7</ele>
      </trkpt>
      <trkpt lat="-21.02142" lon="55.40534">
        <ele>484</ele>
      </trkpt>
      <trkpt lat="-21.02136" lon="55.40535">
        <ele>484.7</ele>
      </trkpt>
      <trkpt lat="-21.02137" lon="55.40541">
        <ele>486.9</ele>
      </trkpt>
      <trkpt lat="-21.02135" lon="55.40552">
        <ele>491.1</ele>
      </trkpt>
      <trkpt lat="-21.02133" lon="55.40562">
        <ele>494.9</ele>
      </trkpt>
      <trkpt lat="-21.02135" lon="55.40567">
        <ele>496.6</ele>
      </trkpt>
      <trkpt lat="-21.02134" lon="55.40577">
        <ele>500.4</ele>
      </trkpt>
      <trkpt lat="-21.02134" lon="55.40583">
        <ele>502.6</ele>
      </trkpt>
      <trkpt lat="-21.02136" lon="55.40591">
        <ele>505.4</ele>
      </trkpt>
      <trkpt lat="-21.02137" lon="55.40592">
        <ele>505.7</ele>
      </trkpt>
      <trkpt lat="-21.02139" lon="55.40595">
        <ele>506.7</ele>
      </trkpt>
      <trkpt lat="-21.02141" lon="55.40597">
        <ele>507.2</ele>
      </trkpt>
      <trkpt lat="-21.02145" lon="55.406">
        <ele>508</ele>
      </trkpt>
      <trkpt lat="-21.02149" lon="55.40601">
        <ele>508</ele>
      </trkpt>
      <trkpt lat="-21.02153" lon="55.40601">
        <ele>507.6</ele>
      </trkpt>
      <trkpt lat="-21.02156" lon="55.40601">
        <ele>507.3</ele>
      </trkpt>
      <trkpt lat="-21.0216" lon="55.40602">
        <ele>507.3</ele>
      </trkpt>
      <trkpt lat="-21.02162" lon="55.40604">
        <ele>507.9</ele>
      </trkpt>
      <trkpt lat="-21.02164" lon="55.40606">
        <ele>508.4</ele>
      </trkpt>
      <trkpt lat="-21.02165" lon="55.40609">
        <ele>509.4</ele>
      </trkpt>
      <trkpt lat="-21.02165" lon="55.4061">
        <ele>509.8</ele>
      </trkpt>
      <trkpt lat="-21.02164" lon="55.40613">
        <ele>510.9</ele>
      </trkpt>
      <trkpt lat="-21.02163" lon="55.40616">
        <ele>512.1</ele>
      </trkpt>
      <trkpt lat="-21.02162" lon="55.4062">
        <ele>513.7</ele>
      </trkpt>
      <trkpt lat="-21.02161" lon="55.40624">
        <ele>515.2</ele>
      </trkpt>
      <trkpt lat="-21.02161" lon="55.40626">
        <ele>515.9</ele>
      </trkpt>
      <trkpt lat="-21.02161" lon="55.40629">
        <ele>517</ele>
      </trkpt>
      <trkpt lat="-21.02161" lon="55.40631">
        <ele>517.8</ele>
      </trkpt>
      <trkpt lat="-21.02161" lon="55.40634">
        <ele>518.8</ele>
      </trkpt>
      <trkpt lat="-21.02162" lon="55.40636">
        <ele>519.5</ele>
      </trkpt>
      <trkpt lat="-21.02164" lon="55.40636">
        <ele>519.2</ele>
      </trkpt>
      <trkpt lat="-21.02166" lon="55.40637">
        <ele>519.4</ele>
      </trkpt>
      <trkpt lat="-21.02167" lon="55.40639">
        <ele>520</ele>
      </trkpt>
      <trkpt lat="-21.02166" lon="55.40641">
        <ele>520.8</ele>
      </trkpt>
      <trkpt lat="-21.02165" lon="55.40643">
        <ele>521.7</ele>
      </trkpt>
      <trkpt lat="-21.02165" lon="55.40645">
        <ele>522.4</ele>
      </trkpt>
      <trkpt lat="-21.02165" lon="55.40648">
        <ele>523.5</ele>
      </trkpt>
      <trkpt lat="-21.02166" lon="55.40651">
        <ele>524.4</ele>
      </trkpt>
      <trkpt lat="-21.02167" lon="55.40655">
        <ele>525.8</ele>
      </trkpt>
      <trkpt lat="-21.02168" lon="55.40658">
        <ele>526.7</ele>
      </trkpt>
      <trkpt lat="-21.0217" lon="55.4066">
        <ele>527.2</ele>
      </trkpt>
      <trkpt lat="-21.02173" lon="55.40662">
        <ele>527.6</ele>
      </trkpt>
      <trkpt lat="-21.02176" lon="55.40664">
        <ele>527.9</ele>
      </trkpt>
      <trkpt lat="-21.02178" lon="55.40666">
        <ele>528.4</ele>
      </trkpt>
      <trkpt lat="-21.02181" lon="55.40668">
        <ele>528.7</ele>
      </trkpt>
      <trkpt lat="-21.02183" lon="55.40669">
        <ele>528.8</ele>
      </trkpt>
      <trkpt lat="-21.02185" lon="55.40668">
        <ele>528.2</ele>
      </trkpt>
      <trkpt lat="-21.02187" lon="55.40668">
        <ele>528</ele>
      </trkpt>
      <trkpt lat="-21.02189" lon="55.40669">
        <ele>528.1</ele>
      </trkpt>
      <trkpt lat="-21.02192" lon="55.4067">
        <ele>528</ele>
      </trkpt>
      <trkpt lat="-21.02194" lon="55.40671">
        <ele>528.1</ele>
      </trkpt>
      <trkpt lat="-21.02194" lon="55.40673">
        <ele>528.7</ele>
      </trkpt>
      <trkpt lat="-21.02193" lon="55.40675">
        <ele>529.5</ele>
      </trkpt>
      <trkpt lat="-21.02193" lon="55.40677">
        <ele>530.1</ele>
      </trkpt>
      <trkpt lat="-21.02192" lon="55.40679">
        <ele>530.9</ele>
      </trkpt>
      <trkpt lat="-21.02192" lon="55.40681">
        <ele>531.5</ele>
      </trkpt>
      <trkpt lat="-21.02193" lon="55.40682">
        <ele>531.7</ele>
      </trkpt>
      <trkpt lat="-21.02195" lon="55.40684">
        <ele>532.1</ele>
      </trkpt>
      <trkpt lat="-21.02196" lon="55.40686">
        <ele>532.6</ele>
      </trkpt>
      <trkpt lat="-21.02198" lon="55.40688">
        <ele>533</ele>
      </trkpt>
      <trkpt lat="-21.022" lon="55.40689">
        <ele>533</ele>
      </trkpt>
      <trkpt lat="-21.02202" lon="55.40691">
        <ele>533.4</ele>
      </trkpt>
      <trkpt lat="-21.02204" lon="55.40693">
        <ele>533.8</ele>
      </trkpt>
      <trkpt lat="-21.02205" lon="55.40694">
        <ele>534</ele>
      </trkpt>
      <trkpt lat="-21.02207" lon="55.40695">
        <ele>534</ele>
      </trkpt>
      <trkpt lat="-21.02209" lon="55.40695">
        <ele>533.8</ele>
      </trkpt>
      <trkpt lat="-21.02211" lon="55.40695">
        <ele>533.5</ele>
      </trkpt>
      <trkpt lat="-21.02212" lon="55.40696">
        <ele>533.7</ele>
      </trkpt>
      <trkpt lat="-21.02215" lon="55.40696">
        <ele>533.3</ele>
      </trkpt>
      <trkpt lat="-21.02218" lon="55.40696">
        <ele>532.9</ele>
      </trkpt>
      <trkpt lat="-21.0222" lon="55.40697">
        <ele>533</ele>
      </trkpt>
      <trkpt lat="-21.0222" lon="55.40699">
        <ele>533.6</ele>
      </trkpt>
      <trkpt lat="-21.0222" lon="55.40701">
        <ele>534.2</ele>
      </trkpt>
      <trkpt lat="-21.02218" lon="55.40704">
        <ele>535.4</ele>
      </trkpt>
      <trkpt lat="-21.02217" lon="55.40707">
        <ele>536.4</ele>
      </trkpt>
      <trkpt lat="-21.02216" lon="55.40709">
        <ele>537.2</ele>
      </trkpt>
      <trkpt lat="-21.02216" lon="55.40712">
        <ele>538.1</ele>
      </trkpt>
      <trkpt lat="-21.02215" lon="55.40714">
        <ele>538.9</ele>
      </trkpt>
      <trkpt lat="-21.02215" lon="55.40715">
        <ele>539.2</ele>
      </trkpt>
      <trkpt lat="-21.02212" lon="55.40716">
        <ele>539.9</ele>
      </trkpt>
      <trkpt lat="-21.02209" lon="55.40717">
        <ele>540.6</ele>
      </trkpt>
      <trkpt lat="-21.02206" lon="55.40718">
        <ele>541.3</ele>
      </trkpt>
      <trkpt lat="-21.02204" lon="55.4072">
        <ele>542.2</ele>
      </trkpt>
      <trkpt lat="-21.02203" lon="55.40722">
        <ele>543</ele>
      </trkpt>
      <trkpt lat="-21.02202" lon="55.40725">
        <ele>544.1</ele>
      </trkpt>
      <trkpt lat="-21.02202" lon="55.40727">
        <ele>544.7</ele>
      </trkpt>
      <trkpt lat="-21.02201" lon="55.40729">
        <ele>545.5</ele>
      </trkpt>
      <trkpt lat="-21.02199" lon="55.40731">
        <ele>546.4</ele>
      </trkpt>
      <trkpt lat="-21.02195" lon="55.40735">
        <ele>548.2</ele>
      </trkpt>
      <trkpt lat="-21.02194" lon="55.40736">
        <ele>548.6</ele>
      </trkpt>
      <trkpt lat="-21.02188" lon="55.40749">
        <ele>553.6</ele>
      </trkpt>
      <trkpt lat="-21.02187" lon="55.40758">
        <ele>556</ele>
      </trkpt>
      <trkpt lat="-21.02187" lon="55.40766">
        <ele>558</ele>
      </trkpt>
      <trkpt lat="-21.02188" lon="55.40771">
        <ele>559.1</ele>
      </trkpt>
      <trkpt lat="-21.02192" lon="55.40777">
        <ele>560</ele>
      </trkpt>
      <trkpt lat="-21.02199" lon="55.40782">
        <ele>560.1</ele>
      </trkpt>
      <trkpt lat="-21.02208" lon="55.4079">
        <ele>560.7</ele>
      </trkpt>
      <trkpt lat="-21.02208" lon="55.40793">
        <ele>561.4</ele>
      </trkpt>
      <trkpt lat="-21.02207" lon="55.40797">
        <ele>562.5</ele>
      </trkpt>
      <trkpt lat="-21.02203" lon="55.40801">
        <ele>564.1</ele>
      </trkpt>
      <trkpt lat="-21.02197" lon="55.40809">
        <ele>567</ele>
      </trkpt>
      <trkpt lat="-21.02189" lon="55.40819">
        <ele>570.7</ele>
      </trkpt>
      <trkpt lat="-21.02188" lon="55.4082">
        <ele>571.1</ele>
      </trkpt>
      <trkpt lat="-21.02184" lon="55.40827">
        <ele>573.5</ele>
      </trkpt>
      <trkpt lat="-21.02177" lon="55.40831">
        <ele>575.7</ele>
      </trkpt>
      <trkpt lat="-21.02168" lon="55.40837">
        <ele>578.3</ele>
      </trkpt>
      <trkpt lat="-21.02158" lon="55.40839">
        <ele>580.2</ele>
      </trkpt>
      <trkpt lat="-21.0215" lon="55.4084">
        <ele>581.7</ele>
      </trkpt>
      <trkpt lat="-21.02159" lon="55.40852">
        <ele>581.8</ele>
      </trkpt>
      <trkpt lat="-21.02171" lon="55.40866">
        <ele>581.6</ele>
      </trkpt>
      <trkpt lat="-21.02178" lon="55.40872">
        <ele>581.3</ele>
      </trkpt>
      <trkpt lat="-21.02189" lon="55.4088">
        <ele>580.7</ele>
      </trkpt>
      <trkpt lat="-21.02204" lon="55.40888">
        <ele>579.5</ele>
      </trkpt>
      <trkpt lat="-21.02216" lon="55.40894">
        <ele>578.6</ele>
      </trkpt>
      <trkpt lat="-21.02224" lon="55.40896">
        <ele>577.7</ele>
      </trkpt>
      <trkpt lat="-21.02223" lon="55.40902">
        <ele>578.7</ele>
      </trkpt>
      <trkpt lat="-21.02217" lon="55.40906">
        <ele>580.2</ele>
      </trkpt>
      <trkpt lat="-21.02208" lon="55.40908">
        <ele>581.8</ele>
      </trkpt>
      <trkpt lat="-21.02201" lon="55.40911">
        <ele>583.3</ele>
      </trkpt>
      <trkpt lat="-21.02192" lon="55.40911">
        <ele>584.6</ele>
      </trkpt>
      <trkpt lat="-21.02183" lon="55.40914">
        <ele>586.3</ele>
      </trkpt>
      <trkpt lat="-21.02173" lon="55.40917">
        <ele>588.1</ele>
      </trkpt>
      <trkpt lat="-21.02165" lon="55.40922">
        <ele>589.5</ele>
      </trkpt>
      <trkpt lat="-21.02159" lon="55.40927">
        <ele>590.7</ele>
      </trkpt>
      <trkpt lat="-21.02154" lon="55.40932">
        <ele>591.8</ele>
      </trkpt>
      <trkpt lat="-21.02156" lon="55.40935">
        <ele>591.6</ele>
      </trkpt>
      <trkpt lat="-21.02152" lon="55.40937">
        <ele>592.3</ele>
      </trkpt>
      <trkpt lat="-21.02148" lon="55.40941">
        <ele>593.1</ele>
      </trkpt>
      <trkpt lat="-21.02143" lon="55.40943">
        <ele>594</ele>
      </trkpt>
      <trkpt lat="-21.02138" lon="55.40942">
        <ele>594.7</ele>
      </trkpt>
      <trkpt lat="-21.02135" lon="55.40938">
        <ele>595.1</ele>
      </trkpt>
      <trkpt lat="-21.02129" lon="55.40936">
        <ele>595.9</ele>
      </trkpt>
      <trkpt lat="-21.02125" lon="55.40936">
        <ele>596.6</ele>
      </trkpt>
      <trkpt lat="-21.02123" lon="55.4094">
        <ele>597</ele>
      </trkpt>
      <trkpt lat="-21.02125" lon="55.40941">
        <ele>596.7</ele>
      </trkpt>
      <trkpt lat="-21.02132" lon="55.40945">
        <ele>595.8</ele>
      </trkpt>
      <trkpt lat="-21.0214" lon="55.40951">
        <ele>594.7</ele>
      </trkpt>
      <trkpt lat="-21.02149" lon="55.40955">
        <ele>593.5</ele>
      </trkpt>
      <trkpt lat="-21.02157" lon="55.40958">
        <ele>592.4</ele>
      </trkpt>
      <trkpt lat="-21.02172" lon="55.40966">
        <ele>590.6</ele>
      </trkpt>
      <trkpt lat="-21.02201" lon="55.40975">
        <ele>587.1</ele>
      </trkpt>
      <trkpt lat="-21.02207" lon="55.40984">
        <ele>586.8</ele>
      </trkpt>
      <trkpt lat="-21.02196" lon="55.41">
        <ele>589.1</ele>
      </trkpt>
      <trkpt lat="-21.02168" lon="55.41045">
        <ele>591.8</ele>
        <extensions>
          <visugpx:TrkExtension xmlns:visugpx="https://www.visugpx.com/editgpx/">
            <visugpx:node>25</visugpx:node>
            </visugpx:TrkExtension>
        </extensions>
      </trkpt>
      <trkpt lat="-21.02164" lon="55.41051">
        <ele>592.1</ele>
      </trkpt>
      <trkpt lat="-21.02158" lon="55.41066">
        <ele>592.4</ele>
      </trkpt>
      <trkpt lat="-21.02161" lon="55.41076">
        <ele>591.8</ele>
      </trkpt>
      <trkpt lat="-21.02169" lon="55.41083">
        <ele>590.8</ele>
      </trkpt>
      <trkpt lat="-21.02177" lon="55.41089">
        <ele>589.5</ele>
      </trkpt>
      <trkpt lat="-21.02184" lon="55.41098">
        <ele>588.1</ele>
      </trkpt>
      <trkpt lat="-21.02192" lon="55.41104">
        <ele>586.9</ele>
      </trkpt>
      <trkpt lat="-21.022" lon="55.41108">
        <ele>585.7</ele>
      </trkpt>
      <trkpt lat="-21.02209" lon="55.41111">
        <ele>584.6</ele>
      </trkpt>
      <trkpt lat="-21.02218" lon="55.41111">
        <ele>583.7</ele>
      </trkpt>
      <trkpt lat="-21.02228" lon="55.4111">
        <ele>582.7</ele>
      </trkpt>
      <trkpt lat="-21.02236" lon="55.41113">
        <ele>581.7</ele>
      </trkpt>
      <trkpt lat="-21.02245" lon="55.41121">
        <ele>580.3</ele>
      </trkpt>
      <trkpt lat="-21.02251" lon="55.41123">
        <ele>579.5</ele>
      </trkpt>
      <trkpt lat="-21.0226" lon="55.41128">
        <ele>578.4</ele>
      </trkpt>
      <trkpt lat="-21.02277" lon="55.41126">
        <ele>576.9</ele>
      </trkpt>
      <trkpt lat="-21.02293" lon="55.41128">
        <ele>575.2</ele>
      </trkpt>
      <trkpt lat="-21.02313" lon="55.41135">
        <ele>573</ele>
      </trkpt>
      <trkpt lat="-21.02326" lon="55.41135">
        <ele>571.8</ele>
      </trkpt>
      <trkpt lat="-21.02337" lon="55.41135">
        <ele>570.9</ele>
      </trkpt>
      <trkpt lat="-21.0234" lon="55.41138">
        <ele>570.6</ele>
      </trkpt>
      <trkpt lat="-21.02348" lon="55.41139">
        <ele>570.1</ele>
      </trkpt>
      <trkpt lat="-21.02359" lon="55.41159">
        <ele>568.7</ele>
      </trkpt>
      <trkpt lat="-21.0236" lon="55.41172">
        <ele>568.1</ele>
      </trkpt>
      <trkpt lat="-21.02363" lon="55.41181">
        <ele>567.4</ele>
      </trkpt>
      <trkpt lat="-21.02369" lon="55.41181">
        <ele>567</ele>
      </trkpt>
      <trkpt lat="-21.02372" lon="55.41186">
        <ele>566.5</ele>
      </trkpt>
      <trkpt lat="-21.02374" lon="55.41191">
        <ele>566.1</ele>
      </trkpt>
      <trkpt lat="-21.02377" lon="55.41196">
        <ele>565.6</ele>
      </trkpt>
      <trkpt lat="-21.02379" lon="55.41203">
        <ele>565.1</ele>
      </trkpt>
      <trkpt lat="-21.02383" lon="55.41207">
        <ele>564.6</ele>
      </trkpt>
      <trkpt lat="-21.0239" lon="55.41208">
        <ele>564.1</ele>
      </trkpt>
      <trkpt lat="-21.02396" lon="55.41211">
        <ele>563.6</ele>
      </trkpt>
      <trkpt lat="-21.02399" lon="55.41214">
        <ele>563.2</ele>
      </trkpt>
      <trkpt lat="-21.02402" lon="55.41219">
        <ele>562.7</ele>
      </trkpt>
      <trkpt lat="-21.02398" lon="55.41223">
        <ele>562.7</ele>
      </trkpt>
      <trkpt lat="-21.02397" lon="55.41226">
        <ele>562.6</ele>
      </trkpt>
      <trkpt lat="-21.02401" lon="55.41227">
        <ele>562.3</ele>
      </trkpt>
      <trkpt lat="-21.02407" lon="55.41231">
        <ele>561.7</ele>
      </trkpt>
      <trkpt lat="-21.02418" lon="55.41239">
        <ele>560.6</ele>
      </trkpt>
      <trkpt lat="-21.02424" lon="55.41246">
        <ele>560.1</ele>
      </trkpt>
      <trkpt lat="-21.0243" lon="55.41249">
        <ele>559.7</ele>
      </trkpt>
      <trkpt lat="-21.02439" lon="55.41257">
        <ele>559</ele>
      </trkpt>
      <trkpt lat="-21.02449" lon="55.4126">
        <ele>558.6</ele>
      </trkpt>
      <trkpt lat="-21.02456" lon="55.4126">
        <ele>558.5</ele>
      </trkpt>
      <trkpt lat="-21.02459" lon="55.41264">
        <ele>558.1</ele>
      </trkpt>
      <trkpt lat="-21.02462" lon="55.41271">
        <ele>557.7</ele>
      </trkpt>
      <trkpt lat="-21.02466" lon="55.41275">
        <ele>557.3</ele>
      </trkpt>
      <trkpt lat="-21.02475" lon="55.41284">
        <ele>556.6</ele>
      </trkpt>
      <trkpt lat="-21.02475" lon="55.41295">
        <ele>555.9</ele>
      </trkpt>
      <trkpt lat="-21.02478" lon="55.41301">
        <ele>555.5</ele>
      </trkpt>
      <trkpt lat="-21.02484" lon="55.413">
        <ele>555.4</ele>
      </trkpt>
      <trkpt lat="-21.02487" lon="55.41308">
        <ele>554.8</ele>
      </trkpt>
      <trkpt lat="-21.02493" lon="55.41313">
        <ele>554.4</ele>
      </trkpt>
      <trkpt lat="-21.02495" lon="55.41321">
        <ele>553.9</ele>
      </trkpt>
      <trkpt lat="-21.02491" lon="55.41327">
        <ele>553.6</ele>
      </trkpt>
      <trkpt lat="-21.02498" lon="55.41329">
        <ele>553.3</ele>
      </trkpt>
      <trkpt lat="-21.02503" lon="55.41333">
        <ele>553</ele>
      </trkpt>
      <trkpt lat="-21.025" lon="55.4134">
        <ele>552.6</ele>
      </trkpt>
      <trkpt lat="-21.02494" lon="55.41342">
        <ele>552.6</ele>
      </trkpt>
      <trkpt lat="-21.02492" lon="55.41347">
        <ele>552.4</ele>
      </trkpt>
      <trkpt lat="-21.02494" lon="55.41351">
        <ele>552.1</ele>
      </trkpt>
      <trkpt lat="-21.02499" lon="55.41351">
        <ele>552</ele>
      </trkpt>
      <trkpt lat="-21.02501" lon="55.41353">
        <ele>551.8</ele>
      </trkpt>
      <trkpt lat="-21.02501" lon="55.41357">
        <ele>551.6</ele>
      </trkpt>
      <trkpt lat="-21.02501" lon="55.41361">
        <ele>551.3</ele>
      </trkpt>
      <trkpt lat="-21.02501" lon="55.41364">
        <ele>551.2</ele>
      </trkpt>
      <trkpt lat="-21.02506" lon="55.41366">
        <ele>551</ele>
      </trkpt>
      <trkpt lat="-21.02506" lon="55.41369">
        <ele>550.9</ele>
      </trkpt>
      <trkpt lat="-21.02504" lon="55.41373">
        <ele>550.6</ele>
      </trkpt>
      <trkpt lat="-21.02507" lon="55.41381">
        <ele>550.1</ele>
      </trkpt>
      <trkpt lat="-21.02507" lon="55.41386">
        <ele>549.8</ele>
      </trkpt>
      <trkpt lat="-21.02512" lon="55.41391">
        <ele>549.5</ele>
      </trkpt>
      <trkpt lat="-21.02514" lon="55.41397">
        <ele>549.2</ele>
      </trkpt>
      <trkpt lat="-21.02514" lon="55.41404">
        <ele>548.8</ele>
      </trkpt>
      <trkpt lat="-21.02517" lon="55.41409">
        <ele>548.5</ele>
      </trkpt>
      <trkpt lat="-21.0252" lon="55.41417">
        <ele>548</ele>
      </trkpt>
      <trkpt lat="-21.02523" lon="55.41423">
        <ele>547.6</ele>
      </trkpt>
      <trkpt lat="-21.02526" lon="55.41424">
        <ele>547.6</ele>
      </trkpt>
      <trkpt lat="-21.02531" lon="55.41424">
        <ele>547.6</ele>
      </trkpt>
      <trkpt lat="-21.02534" lon="55.41423">
        <ele>547.7</ele>
      </trkpt>
      <trkpt lat="-21.02538" lon="55.41425">
        <ele>547.5</ele>
      </trkpt>
      <trkpt lat="-21.02539" lon="55.41429">
        <ele>547.3</ele>
      </trkpt>
      <trkpt lat="-21.02539" lon="55.41433">
        <ele>547.1</ele>
      </trkpt>
      <trkpt lat="-21.02538" lon="55.41441">
        <ele>546.7</ele>
      </trkpt>
      <trkpt lat="-21.02536" lon="55.41446">
        <ele>546.4</ele>
      </trkpt>
      <trkpt lat="-21.02536" lon="55.41451">
        <ele>546.1</ele>
      </trkpt>
      <trkpt lat="-21.02536" lon="55.41459">
        <ele>545.7</ele>
      </trkpt>
      <trkpt lat="-21.02542" lon="55.41463">
        <ele>545.5</ele>
      </trkpt>
      <trkpt lat="-21.02545" lon="55.41466">
        <ele>545.4</ele>
      </trkpt>
      <trkpt lat="-21.02548" lon="55.41472">
        <ele>545.1</ele>
      </trkpt>
      <trkpt lat="-21.02549" lon="55.41477">
        <ele>544.8</ele>
      </trkpt>
      <trkpt lat="-21.02547" lon="55.41482">
        <ele>544.5</ele>
      </trkpt>
      <trkpt lat="-21.02549" lon="55.4149">
        <ele>544.1</ele>
      </trkpt>
      <trkpt lat="-21.02555" lon="55.41499">
        <ele>543.7</ele>
      </trkpt>
      <trkpt lat="-21.02565" lon="55.41508">
        <ele>543.6</ele>
      </trkpt>
      <trkpt lat="-21.02569" lon="55.41513">
        <ele>543.5</ele>
      </trkpt>
      <trkpt lat="-21.02572" lon="55.41518">
        <ele>543.4</ele>
      </trkpt>
      <trkpt lat="-21.02574" lon="55.41527">
        <ele>543.2</ele>
      </trkpt>
      <trkpt lat="-21.02576" lon="55.41534">
        <ele>543.1</ele>
      </trkpt>
      <trkpt lat="-21.02578" lon="55.41542">
        <ele>542.9</ele>
      </trkpt>
      <trkpt lat="-21.02579" lon="55.41549">
        <ele>542.7</ele>
      </trkpt>
      <trkpt lat="-21.02578" lon="55.41555">
        <ele>542.6</ele>
      </trkpt>
      <trkpt lat="-21.02578" lon="55.41559">
        <ele>542.5</ele>
      </trkpt>
      <trkpt lat="-21.02575" lon="55.41564">
        <ele>542.3</ele>
      </trkpt>
      <trkpt lat="-21.02571" lon="55.41563">
        <ele>542.2</ele>
      </trkpt>
      <trkpt lat="-21.02566" lon="55.41559">
        <ele>542.2</ele>
      </trkpt>
      <trkpt lat="-21.02563" lon="55.41561">
        <ele>542.1</ele>
      </trkpt>
      <trkpt lat="-21.02563" lon="55.41565">
        <ele>542</ele>
      </trkpt>
      <trkpt lat="-21.02569" lon="55.41573">
        <ele>541.9</ele>
      </trkpt>
      <trkpt lat="-21.02574" lon="55.41581">
        <ele>541.8</ele>
      </trkpt>
      <trkpt lat="-21.02574" lon="55.41585">
        <ele>541.7</ele>
      </trkpt>
      <trkpt lat="-21.02573" lon="55.41589">
        <ele>541.6</ele>
      </trkpt>
      <trkpt lat="-21.02571" lon="55.41593">
        <ele>541.5</ele>
      </trkpt>
      <trkpt lat="-21.02568" lon="55.41597">
        <ele>541.3</ele>
      </trkpt>
      <trkpt lat="-21.02565" lon="55.41601">
        <ele>541.1</ele>
      </trkpt>
      <trkpt lat="-21.02559" lon="55.41613">
        <ele>540.6</ele>
      </trkpt>
      <trkpt lat="-21.02559" lon="55.41618">
        <ele>540.5</ele>
      </trkpt>
      <trkpt lat="-21.02561" lon="55.41623">
        <ele>540.4</ele>
      </trkpt>
      <trkpt lat="-21.02564" lon="55.41628">
        <ele>540.3</ele>
      </trkpt>
      <trkpt lat="-21.02564" lon="55.41633">
        <ele>540.2</ele>
      </trkpt>
      <trkpt lat="-21.02563" lon="55.41637">
        <ele>540.1</ele>
      </trkpt>
      <trkpt lat="-21.0256" lon="55.41642">
        <ele>539.8</ele>
      </trkpt>
      <trkpt lat="-21.02557" lon="55.41647">
        <ele>539.6</ele>
      </trkpt>
      <trkpt lat="-21.02554" lon="55.41653">
        <ele>539.3</ele>
      </trkpt>
      <trkpt lat="-21.02552" lon="55.41657">
        <ele>539.1</ele>
      </trkpt>
      <trkpt lat="-21.02548" lon="55.41659">
        <ele>539</ele>
      </trkpt>
      <trkpt lat="-21.02543" lon="55.41665">
        <ele>538.6</ele>
      </trkpt>
      <trkpt lat="-21.02542" lon="55.41672">
        <ele>538.4</ele>
      </trkpt>
      <trkpt lat="-21.02542" lon="55.41678">
        <ele>538.2</ele>
      </trkpt>
      <trkpt lat="-21.02543" lon="55.41684">
        <ele>538.1</ele>
      </trkpt>
      <trkpt lat="-21.02543" lon="55.41687">
        <ele>538.1</ele>
      </trkpt>
      <trkpt lat="-21.02542" lon="55.41692">
        <ele>537.9</ele>
      </trkpt>
      <trkpt lat="-21.02538" lon="55.41696">
        <ele>537.7</ele>
      </trkpt>
      <trkpt lat="-21.02535" lon="55.41701">
        <ele>537.4</ele>
      </trkpt>
      <trkpt lat="-21.02534" lon="55.41706">
        <ele>537.3</ele>
      </trkpt>
      <trkpt lat="-21.02536" lon="55.41711">
        <ele>537.2</ele>
      </trkpt>
      <trkpt lat="-21.02539" lon="55.41717">
        <ele>537.2</ele>
      </trkpt>
      <trkpt lat="-21.02544" lon="55.41721">
        <ele>537.3</ele>
      </trkpt>
      <trkpt lat="-21.0255" lon="55.41725">
        <ele>537.4</ele>
      </trkpt>
      <trkpt lat="-21.02551" lon="55.41729">
        <ele>537.3</ele>
      </trkpt>
      <trkpt lat="-21.02549" lon="55.41735">
        <ele>537.1</ele>
      </trkpt>
      <trkpt lat="-21.02549" lon="55.41738">
        <ele>537.1</ele>
      </trkpt>
      <trkpt lat="-21.02549" lon="55.4174">
        <ele>537</ele>
      </trkpt>
      <trkpt lat="-21.02551" lon="55.41744">
        <ele>537</ele>
      </trkpt>
      <trkpt lat="-21.02553" lon="55.41747">
        <ele>537</ele>
      </trkpt>
      <trkpt lat="-21.02554" lon="55.41749">
        <ele>537</ele>
      </trkpt>
      <trkpt lat="-21.02557" lon="55.41754">
        <ele>537</ele>
      </trkpt>
      <trkpt lat="-21.02557" lon="55.41759">
        <ele>537</ele>
      </trkpt>
      <trkpt lat="-21.02558" lon="55.41765">
        <ele>537</ele>
      </trkpt>
      <trkpt lat="-21.02558" lon="55.41771">
        <ele>537</ele>
      </trkpt>
      <trkpt lat="-21.02558" lon="55.41778">
        <ele>537</ele>
      </trkpt>
      <trkpt lat="-21.02558" lon="55.41786">
        <ele>537</ele>
      </trkpt>
      <trkpt lat="-21.02556" lon="55.41794">
        <ele>536.8</ele>
      </trkpt>
      <trkpt lat="-21.02555" lon="55.41808">
        <ele>536.7</ele>
      </trkpt>
      <trkpt lat="-21.02554" lon="55.41814">
        <ele>536.7</ele>
      </trkpt>
      <trkpt lat="-21.02555" lon="55.41818">
        <ele>536.7</ele>
      </trkpt>
      <trkpt lat="-21.02555" lon="55.41821">
        <ele>536.7</ele>
      </trkpt>
      <trkpt lat="-21.02555" lon="55.41823">
        <ele>536.7</ele>
      </trkpt>
      <trkpt lat="-21.02558" lon="55.41828">
        <ele>536.8</ele>
      </trkpt>
      <trkpt lat="-21.02558" lon="55.4183">
        <ele>536.8</ele>
        <extensions>
          <visugpx:TrkExtension xmlns:visugpx="https://www.visugpx.com/editgpx/">
            <visugpx:node>26</visugpx:node>
            </visugpx:TrkExtension>
        </extensions>
      </trkpt>
      <trkpt lat="-21.02555" lon="55.41839">
        <ele>536.6</ele>
      </trkpt>
      <trkpt lat="-21.02553" lon="55.41839">
        <ele>536.5</ele>
      </trkpt>
      <trkpt lat="-21.02548" lon="55.41835">
        <ele>536.3</ele>
      </trkpt>
      <trkpt lat="-21.02545" lon="55.4183">
        <ele>536.2</ele>
      </trkpt>
      <trkpt lat="-21.02543" lon="55.41835">
        <ele>536.1</ele>
      </trkpt>
      <trkpt lat="-21.02543" lon="55.41839">
        <ele>536.1</ele>
      </trkpt>
      <trkpt lat="-21.02545" lon="55.41843">
        <ele>536.2</ele>
      </trkpt>
      <trkpt lat="-21.02544" lon="55.41843">
        <ele>536.1</ele>
      </trkpt>
      <trkpt lat="-21.02539" lon="55.41842">
        <ele>535.9</ele>
      </trkpt>
      <trkpt lat="-21.02536" lon="55.41841">
        <ele>535.7</ele>
      </trkpt>
      <trkpt lat="-21.02535" lon="55.41839">
        <ele>535.7</ele>
      </trkpt>
      <trkpt lat="-21.02533" lon="55.41842">
        <ele>535.6</ele>
      </trkpt>
      <trkpt lat="-21.02534" lon="55.4185">
        <ele>535.6</ele>
      </trkpt>
      <trkpt lat="-21.02536" lon="55.41859">
        <ele>535.7</ele>
      </trkpt>
      <trkpt lat="-21.02539" lon="55.41866">
        <ele>535.9</ele>
      </trkpt>
      <trkpt lat="-21.02542" lon="55.41871">
        <ele>536</ele>
      </trkpt>
      <trkpt lat="-21.02543" lon="55.41875">
        <ele>536.1</ele>
      </trkpt>
      <trkpt lat="-21.02544" lon="55.41878">
        <ele>536.1</ele>
      </trkpt>
      <trkpt lat="-21.02546" lon="55.41878">
        <ele>536.2</ele>
      </trkpt>
      <trkpt lat="-21.02552" lon="55.41878">
        <ele>536.5</ele>
      </trkpt>
      <trkpt lat="-21.02556" lon="55.41881">
        <ele>536.7</ele>
      </trkpt>
      <trkpt lat="-21.02559" lon="55.41884">
        <ele>536.8</ele>
      </trkpt>
      <trkpt lat="-21.02562" lon="55.41885">
        <ele>537</ele>
      </trkpt>
      <trkpt lat="-21.02566" lon="55.41885">
        <ele>537.2</ele>
      </trkpt>
      <trkpt lat="-21.02568" lon="55.41885">
        <ele>537.3</ele>
      </trkpt>
      <trkpt lat="-21.02566" lon="55.41894">
        <ele>537.2</ele>
      </trkpt>
      <trkpt lat="-21.02563" lon="55.41901">
        <ele>537</ele>
      </trkpt>
      <trkpt lat="-21.02559" lon="55.41906">
        <ele>536.8</ele>
      </trkpt>
      <trkpt lat="-21.02555" lon="55.4191">
        <ele>536.6</ele>
      </trkpt>
      <trkpt lat="-21.02554" lon="55.41911">
        <ele>536.6</ele>
      </trkpt>
      <trkpt lat="-21.02556" lon="55.41913">
        <ele>536.7</ele>
      </trkpt>
      <trkpt lat="-21.02562" lon="55.41915">
        <ele>537</ele>
      </trkpt>
      <trkpt lat="-21.02566" lon="55.41914">
        <ele>537.2</ele>
      </trkpt>
      <trkpt lat="-21.02568" lon="55.41915">
        <ele>537.3</ele>
      </trkpt>
      <trkpt lat="-21.02563" lon="55.41921">
        <ele>537.2</ele>
      </trkpt>
      <trkpt lat="-21.02556" lon="55.41926">
        <ele>537</ele>
      </trkpt>
      <trkpt lat="-21.02551" lon="55.41929">
        <ele>536.9</ele>
      </trkpt>
      <trkpt lat="-21.02546" lon="55.41931">
        <ele>536.7</ele>
      </trkpt>
      <trkpt lat="-21.0254" lon="55.41933">
        <ele>536.5</ele>
      </trkpt>
      <trkpt lat="-21.02536" lon="55.41934">
        <ele>536.4</ele>
      </trkpt>
      <trkpt lat="-21.02536" lon="55.41936">
        <ele>536.4</ele>
      </trkpt>
      <trkpt lat="-21.02541" lon="55.41938">
        <ele>536.7</ele>
      </trkpt>
      <trkpt lat="-21.02546" lon="55.41938">
        <ele>537</ele>
      </trkpt>
      <trkpt lat="-21.02554" lon="55.41938">
        <ele>537.4</ele>
      </trkpt>
      <trkpt lat="-21.0256" lon="55.41937">
        <ele>537.6</ele>
      </trkpt>
      <trkpt lat="-21.0257" lon="55.41933">
        <ele>537.9</ele>
      </trkpt>
      <trkpt lat="-21.02576" lon="55.41928">
        <ele>538.1</ele>
      </trkpt>
      <trkpt lat="-21.02581" lon="55.41924">
        <ele>538.2</ele>
      </trkpt>
      <trkpt lat="-21.02581" lon="55.41923">
        <ele>538.1</ele>
      </trkpt>
      <trkpt lat="-21.02586" lon="55.41922">
        <ele>538.4</ele>
      </trkpt>
      <trkpt lat="-21.02589" lon="55.41924">
        <ele>538.7</ele>
      </trkpt>
      <trkpt lat="-21.02585" lon="55.41932">
        <ele>538.7</ele>
      </trkpt>
      <trkpt lat="-21.0258" lon="55.41938">
        <ele>538.6</ele>
      </trkpt>
      <trkpt lat="-21.02578" lon="55.41942">
        <ele>538.7</ele>
      </trkpt>
      <trkpt lat="-21.02573" lon="55.41949">
        <ele>538.7</ele>
      </trkpt>
      <trkpt lat="-21.02583" lon="55.4195">
        <ele>539.2</ele>
      </trkpt>
      <trkpt lat="-21.02591" lon="55.41952">
        <ele>539.9</ele>
      </trkpt>
      <trkpt lat="-21.02598" lon="55.41952">
        <ele>540.4</ele>
      </trkpt>
      <trkpt lat="-21.02605" lon="55.41954">
        <ele>541</ele>
      </trkpt>
      <trkpt lat="-21.02608" lon="55.41954">
        <ele>541.3</ele>
      </trkpt>
      <trkpt lat="-21.02606" lon="55.41958">
        <ele>541.3</ele>
      </trkpt>
      <trkpt lat="-21.02606" lon="55.4196">
        <ele>541.3</ele>
      </trkpt>
      <trkpt lat="-21.02605" lon="55.41964">
        <ele>541.4</ele>
      </trkpt>
      <trkpt lat="-21.02606" lon="55.41966">
        <ele>541.5</ele>
      </trkpt>
      <trkpt lat="-21.02607" lon="55.41969">
        <ele>541.7</ele>
      </trkpt>
      <trkpt lat="-21.02609" lon="55.41973">
        <ele>542</ele>
      </trkpt>
      <trkpt lat="-21.02592" lon="55.41992">
        <ele>541.3</ele>
      </trkpt>
      <trkpt lat="-21.02583" lon="55.42">
        <ele>541</ele>
      </trkpt>
      <trkpt lat="-21.02575" lon="55.42009">
        <ele>541</ele>
      </trkpt>
      <trkpt lat="-21.02571" lon="55.42016">
        <ele>541.2</ele>
      </trkpt>
      <trkpt lat="-21.02568" lon="55.42023">
        <ele>541.4</ele>
      </trkpt>
      <trkpt lat="-21.02564" lon="55.42029">
        <ele>541.5</ele>
      </trkpt>
      <trkpt lat="-21.02558" lon="55.42035">
        <ele>541.5</ele>
      </trkpt>
      <trkpt lat="-21.0255" lon="55.42041">
        <ele>541.4</ele>
      </trkpt>
      <trkpt lat="-21.02543" lon="55.42048">
        <ele>541.4</ele>
      </trkpt>
      <trkpt lat="-21.02533" lon="55.42059">
        <ele>541.4</ele>
      </trkpt>
      <trkpt lat="-21.02517" lon="55.42076">
        <ele>541.5</ele>
      </trkpt>
      <trkpt lat="-21.02509" lon="55.42085">
        <ele>541.6</ele>
      </trkpt>
      <trkpt lat="-21.025" lon="55.42093">
        <ele>541.8</ele>
      </trkpt>
      <trkpt lat="-21.02483" lon="55.42101">
        <ele>542.3</ele>
      </trkpt>
      <trkpt lat="-21.02473" lon="55.42106">
        <ele>542.6</ele>
      </trkpt>
      <trkpt lat="-21.0246" lon="55.42112">
        <ele>542.9</ele>
      </trkpt>
      <trkpt lat="-21.02449" lon="55.42116">
        <ele>543.1</ele>
      </trkpt>
      <trkpt lat="-21.02433" lon="55.42126">
        <ele>543.8</ele>
      </trkpt>
      <trkpt lat="-21.02425" lon="55.42133">
        <ele>544.3</ele>
      </trkpt>
      <trkpt lat="-21.02416" lon="55.42141">
        <ele>544.8</ele>
      </trkpt>
      <trkpt lat="-21.02405" lon="55.42155">
        <ele>546</ele>
      </trkpt>
      <trkpt lat="-21.02402" lon="55.42156">
        <ele>546.1</ele>
      </trkpt>
      <trkpt lat="-21.02398" lon="55.42157">
        <ele>546.2</ele>
      </trkpt>
      <trkpt lat="-21.02389" lon="55.42154">
        <ele>545.9</ele>
      </trkpt>
      <trkpt lat="-21.02382" lon="55.4215">
        <ele>545.6</ele>
      </trkpt>
      <trkpt lat="-21.02373" lon="55.42144">
        <ele>545.1</ele>
      </trkpt>
      <trkpt lat="-21.02364" lon="55.42144">
        <ele>545.1</ele>
      </trkpt>
      <trkpt lat="-21.02349" lon="55.42154">
        <ele>545.9</ele>
      </trkpt>
      <trkpt lat="-21.02332" lon="55.42161">
        <ele>546.6</ele>
      </trkpt>
      <trkpt lat="-21.02312" lon="55.42169">
        <ele>547.7</ele>
      </trkpt>
      <trkpt lat="-21.02297" lon="55.4217">
        <ele>548.2</ele>
      </trkpt>
      <trkpt lat="-21.02281" lon="55.42169">
        <ele>548.5</ele>
      </trkpt>
      <trkpt lat="-21.02268" lon="55.42167">
        <ele>548.6</ele>
      </trkpt>
      <trkpt lat="-21.02264" lon="55.42166">
        <ele>548.6</ele>
      </trkpt>
      <trkpt lat="-21.02256" lon="55.42165">
        <ele>548.7</ele>
      </trkpt>
      <trkpt lat="-21.02243" lon="55.42163">
        <ele>548.9</ele>
      </trkpt>
      <trkpt lat="-21.02239" lon="55.42163">
        <ele>549.1</ele>
      </trkpt>
      <trkpt lat="-21.02237" lon="55.42163">
        <ele>549.2</ele>
      </trkpt>
      <trkpt lat="-21.02223" lon="55.42163">
        <ele>549.7</ele>
      </trkpt>
      <trkpt lat="-21.02215" lon="55.42164">
        <ele>550</ele>
      </trkpt>
      <trkpt lat="-21.02204" lon="55.42164">
        <ele>550.4</ele>
      </trkpt>
      <trkpt lat="-21.02201" lon="55.42164">
        <ele>550.5</ele>
      </trkpt>
      <trkpt lat="-21.02194" lon="55.42162">
        <ele>550.6</ele>
      </trkpt>
      <trkpt lat="-21.0219" lon="55.42161">
        <ele>550.7</ele>
      </trkpt>
      <trkpt lat="-21.0217" lon="55.42152">
        <ele>550.6</ele>
      </trkpt>
      <trkpt lat="-21.02153" lon="55.42148">
        <ele>551.2</ele>
      </trkpt>
      <trkpt lat="-21.0213" lon="55.42145">
        <ele>552.3</ele>
      </trkpt>
      <trkpt lat="-21.02121" lon="55.42146">
        <ele>552.9</ele>
      </trkpt>
      <trkpt lat="-21.02114" lon="55.42149">
        <ele>553.5</ele>
      </trkpt>
      <trkpt lat="-21.02106" lon="55.42156">
        <ele>554.7</ele>
      </trkpt>
      <trkpt lat="-21.02098" lon="55.42161">
        <ele>555.6</ele>
      </trkpt>
      <trkpt lat="-21.02088" lon="55.42167">
        <ele>556.7</ele>
      </trkpt>
      <trkpt lat="-21.0208" lon="55.42171">
        <ele>557.6</ele>
      </trkpt>
      <trkpt lat="-21.02069" lon="55.42175">
        <ele>558.9</ele>
      </trkpt>
      <trkpt lat="-21.0206" lon="55.4218">
        <ele>560.2</ele>
      </trkpt>
      <trkpt lat="-21.02043" lon="55.42192">
        <ele>562.8</ele>
      </trkpt>
      <trkpt lat="-21.02032" lon="55.42199">
        <ele>564.5</ele>
      </trkpt>
      <trkpt lat="-21.02014" lon="55.42206">
        <ele>566.9</ele>
      </trkpt>
      <trkpt lat="-21.02003" lon="55.4221">
        <ele>568.4</ele>
      </trkpt>
      <trkpt lat="-21.01992" lon="55.42215">
        <ele>570.3</ele>
      </trkpt>
      <trkpt lat="-21.01982" lon="55.42222">
        <ele>572.4</ele>
      </trkpt>
      <trkpt lat="-21.01977" lon="55.4223">
        <ele>574</ele>
      </trkpt>
      <trkpt lat="-21.01976" lon="55.42248">
        <ele>576.2</ele>
      </trkpt>
      <trkpt lat="-21.01974" lon="55.42266">
        <ele>578.7</ele>
      </trkpt>
      <trkpt lat="-21.01974" lon="55.42275">
        <ele>579.7</ele>
      </trkpt>
      <trkpt lat="-21.01982" lon="55.42289">
        <ele>580.1</ele>
      </trkpt>
      <trkpt lat="-21.01987" lon="55.423">
        <ele>580.6</ele>
      </trkpt>
      <trkpt lat="-21.01988" lon="55.42303">
        <ele>580.7</ele>
      </trkpt>
      <trkpt lat="-21.01992" lon="55.42309">
        <ele>580.7</ele>
      </trkpt>
      <trkpt lat="-21.02003" lon="55.42333">
        <ele>581.6</ele>
      </trkpt>
      <trkpt lat="-21.02005" lon="55.42338">
        <ele>581.9</ele>
      </trkpt>
      <trkpt lat="-21.02014" lon="55.42349">
        <ele>582</ele>
      </trkpt>
      <trkpt lat="-21.01999" lon="55.42391">
        <ele>588.4</ele>
      </trkpt>
      <trkpt lat="-21.01995" lon="55.424">
        <ele>590.2</ele>
      </trkpt>
      <trkpt lat="-21.01995" lon="55.42402">
        <ele>590.5</ele>
      </trkpt>
      <trkpt lat="-21.01994" lon="55.42404">
        <ele>590.9</ele>
      </trkpt>
      <trkpt lat="-21.01985" lon="55.42426">
        <ele>595.6</ele>
      </trkpt>
      <trkpt lat="-21.01983" lon="55.42429">
        <ele>596.5</ele>
        <extensions>
          <visugpx:TrkExtension xmlns:visugpx="https://www.visugpx.com/editgpx/">
            <visugpx:node>27</visugpx:node>
            </visugpx:TrkExtension>
        </extensions>
      </trkpt>
      <trkpt lat="-21.01974" lon="55.42448">
        <ele>601.4</ele>
      </trkpt>
      <trkpt lat="-21.01968" lon="55.42461">
        <ele>604.7</ele>
      </trkpt>
      <trkpt lat="-21.01947" lon="55.42504">
        <ele>616.7</ele>
      </trkpt>
      <trkpt lat="-21.01969" lon="55.42496">
        <ele>609.8</ele>
      </trkpt>
      <trkpt lat="-21.01979" lon="55.42493">
        <ele>607</ele>
      </trkpt>
      <trkpt lat="-21.0199" lon="55.42489">
        <ele>603.8</ele>
      </trkpt>
      <trkpt lat="-21.01999" lon="55.42488">
        <ele>601.5</ele>
      </trkpt>
      <trkpt lat="-21.02004" lon="55.42487">
        <ele>600.6</ele>
      </trkpt>
      <trkpt lat="-21.02007" lon="55.42488">
        <ele>600.4</ele>
      </trkpt>
      <trkpt lat="-21.02013" lon="55.42488">
        <ele>599.7</ele>
      </trkpt>
      <trkpt lat="-21.02015" lon="55.42488">
        <ele>599.5</ele>
      </trkpt>
      <trkpt lat="-21.02049" lon="55.4248">
        <ele>594.2</ele>
      </trkpt>
      <trkpt lat="-21.02084" lon="55.42474">
        <ele>589.2</ele>
      </trkpt>
      <trkpt lat="-21.021" lon="55.42468">
        <ele>587.5</ele>
      </trkpt>
      <trkpt lat="-21.02109" lon="55.42464">
        <ele>586.5</ele>
      </trkpt>
      <trkpt lat="-21.02119" lon="55.42459">
        <ele>585.2</ele>
      </trkpt>
      <trkpt lat="-21.0213" lon="55.42451">
        <ele>583.4</ele>
      </trkpt>
      <trkpt lat="-21.02139" lon="55.42444">
        <ele>581.8</ele>
      </trkpt>
      <trkpt lat="-21.02141" lon="55.42444">
        <ele>581.7</ele>
        <extensions>
          <visugpx:TrkExtension xmlns:visugpx="https://www.visugpx.com/editgpx/">
            <visugpx:node>28</visugpx:node>
            </visugpx:TrkExtension>
        </extensions>
      </trkpt>
    </trkseg>
  </trk>
</gpx>